     2              OBSERVATION DATA    GPS                 RINEX VERSION / TYPE
teqc 1997Sep10 19971010 23:20:06UTC                         PGM / RUN BY / DATE
                                                            COMMENT
Original Marker Name: OCTI                                  COMMENT
Campaign Name: NGS Salton Trough 1991                       COMMENT
4-Character Station Name: OCTI                              COMMENT
6-Character Antenna Code: TRMSST                            COMMENT
Vertical Measurement Point: BGP                             COMMENT
Vertical Offset to Rinex Ref. Point: 0.0597                 COMMENT
Radial Measurement Point: NGP                               COMMENT
Radial Offset to Rinex Ref. Point: 0.2334                   COMMENT
Antenna Height from Field Measurement: 1.5320 m             COMMENT
Original XYZ: -2354457.9493 -4826974.8928 3429220.9248      COMMENT
New XYZ position is based on association with SCEC monument COMMENT
E1C8V0N9+0011. Position of that monument is believed to be  COMMENT
valid to within 1 m horizontally; vertical accuracy         COMMENT
should be no worse than 3-times this value.                 COMMENT
                                                            COMMENT
Revised Rinex header created by UCSD GPS archive for        COMMENT
GSAC on 10-Apr-1999 (1999:100) 04:41:02 GMT                 COMMENT
For assistance contact dagnew@ucsd.edu or hjohnson@ucsd.edu COMMENT
                                                            COMMENT
OCOTILLO 1935                                               MARKER NAME
unknown NATIONAL GEODETIC SURVEY                            OBSERVER / AGENCY
482 TRIMBLE 4000 SST NP 4.30 / SP 4.20                      REC # / TYPE / VERS
20 TR 4000SST L1/L2 GEO                                     ANT # / TYPE
 -2354461.0000 -4826980.0000  3429223.0000                  APPROX POSITION XYZ
        1.4544        0.0000        0.0000                  ANTENNA: DELTA H/E/N
     1     1     0                                          WAVELENGTH FACT L1/2
     3    C1    L1    L2                                    # / TYPES OF OBSERV
     0                                                      INTERVAL
  1991     3    20    22    13   15.000000                  TIME OF FIRST OBS
  1991     3    21     3    41   60.000000                  TIME OF LAST OBS
     0                                                      # OF SATELLITES
                                                            END OF HEADER
 91  3 20 22 13 15.0000000  0  4G18G 2G11G19
  20460506.875          -0.18518        -0.33833
  23733984.3054         -0.16255        -0.35871
  23414063.9064         -0.92356        -0.38471
  20865120.102          -0.10816        -0.28834
 91  3 20 22 13 30.0000000  0  4G18G 2G11G19
  20462009.102        7890.820 8      6148.48323
  23723856.438      -53229.378 5    -41477.46821
  23407047.7504     -36868.99846    -28728.63361
  20862920.844      -11541.981 6     -8993.92924
 91  3 20 22 13 45.0000000  0  4G18G 2G11G19
  20463532.578       15901.307 8     12390.40523
  23713735.992     -106406.604 5    -82914.07321
  23400052.289      -73632.511 6    -57375.40021
  20860733.0474     -23041.97946    -17954.93963
 91  3 20 22 14  0.0000000  0  4G18G 2G11G19
  20465084.492       24055.230 8     18744.09423
  23703632.164     -159507.447 5   -124291.15521
  23393079.000     -110267.024 6    -85921.63621
  20858556.852      -34476.093 6    -26864.61523
 91  3 20 22 14 15.0000000  0  4G18G 2G11G19
  20466660.789       32340.028 8     25199.76123
  23693538.539     -212544.591 5   -165618.58421
  23386130.617     -146785.061 6   -114377.11721
  20856393.789      -45856.991 6    -35732.81924
 91  3 20 22 14 30.0000000  0  4G18G 2G11G19
  20468259.320       40742.658 8     31747.24823
  23683455.383     -265530.921 5   -206906.39821
  23379202.1564    -183199.09346   -142751.55961
  20854233.047      -57197.686 6    -44569.70624
 91  3 20 22 14 45.0000000  0  4G18G 2G11G19
  20469884.734       49277.675 8     38397.89423
  23673383.8444    -318451.70845   -248143.15261
  23372294.1484    -219494.27646   -171033.40061
  20852085.289      -68483.762 6    -53364.02424
 91  3 20 22 15  0.0000000  0  4G18G 2G11G19
  20471533.672       57941.005 8     45148.51723
  23663325.305     -371310.571 6   -289331.69321
  23365410.0234    -255674.02246   -199225.28261
  20849946.102      -79718.849 6    -62118.61524
 91  3 20 22 15 15.0000000  0  4G18G 2G11G19
  20473206.695       66737.914 8     52003.22923
  23653279.9924    -424102.36546   -330467.96161
  23358549.8284    -291732.99246   -227323.05561
  20847822.039      -90897.908 6    -70829.54424
 91  3 20 22 15 30.0000000  0  4G18G 2G11G19
  20474903.758       75655.099 8     58951.66723
  23643243.938     -476840.241 5   -371562.21821
  23351707.3204    -327684.02346   -255336.72061
  20845702.953     -102034.257 6    -79507.19324
 91  3 20 22 15 45.0000000  0  4G18G 2G11G19
  20476627.281       84709.912 8     66007.34023
  23633220.0784    -529506.51945   -412600.65261
  23344889.7114    -363509.40146   -283252.48661
  20843593.500     -113110.440 6    -88137.96324
 91  3 20 22 16  0.0000000  0  4G18G 2G11G19
  20478376.289       93901.939 8     73169.93423
  23623212.4144    -582101.48545   -453583.52361
  23338096.8754    -399209.12246   -311070.33561
  20841495.953     -124126.924 7    -96722.20824
 91  3 20 22 16 15.0000000  0  4G18G 2G11G19
  20480149.703      103223.832 8     80433.72623
  23613216.5474    -634632.38546   -494516.47861
  23331323.1334    -434790.29246   -338795.80061
  20839412.5004    -135091.16646   -105265.74464
 91  3 20 22 16 30.0000000  0  4G18G 2G11G19
  20481949.422      112676.934 8     87799.75523
  23603232.219     -687097.797 6   -535398.38921
  23324577.234     -470251.152 6   -366427.52921
  20837336.9454    -146001.76946   -113767.48664
 91  3 20 22 16 45.0000000  0  4G18G 2G11G19
  20483770.828      122251.454 8     95260.39523
  23593257.7584    -739507.34546   -576236.79261
  23317850.6254    -505601.22646   -393972.92361
  20835266.9454    -156868.52246   -122235.05564
 91  3 20 22 17  0.0000000  0  4G18G 2G11G19
  20485617.344      131954.449 8    102821.14623
  23583299.664     -791853.426 6   -617025.76021
  23311144.898     -540832.858 6   -421426.02921
  20833210.344     -167684.189 6   -130662.82824
 91  3 20 22 17 15.0000000  0  4G18G 2G11G19
  20487488.219      141791.601 8    110486.43323
  23573349.891     -844130.596 6   -657760.98221
  23304464.977     -575940.193 6   -448782.27821
  20831162.422     -178443.362 6   -139046.57424
 91  3 20 22 17 30.0000000  0  4G18G 2G11G19
  20489386.719      151763.228 8    118256.50823
  23563413.445     -896338.046 6   -698441.89321
  23297808.1254    -610922.36446   -476040.98961
  20829125.141     -189145.494 6   -147385.87524
 91  3 20 22 17 45.0000000  0  4G18G 2G11G19
  20491309.180      161865.782 8    126128.59923
  23553491.531     -948479.330 6   -739071.24221
  23291174.2194    -645782.65146   -503204.73561
  20827099.281     -199794.249 6   -155683.58224
 91  3 20 22 18  0.0000000  0  4G18G 2G11G19
  20493255.438      172094.563 8    134099.05423
  23543579.930    -1000559.064 6   -779652.62821
  23284562.5864    -680525.51546   -530276.97761
  20825079.6564    -210394.18346   -163943.24364
 91  3 20 22 18 15.0000000  0  4G18G 2G11G19
  20495226.063      182455.818 8    142172.73423
  23533684.1954   -1052570.57545   -820180.84561
  23277977.5704    -715144.06446   -557252.35361
  20823076.6724    -220939.01046   -172159.96164
 91  3 20 22 18 30.0000000  0  4G18G 2G11G19
  20497225.148      192948.715 8    150348.99623
  23523800.039    -1104514.853 5   -860656.67321
  23271408.4224    -749639.15646   -584131.53461
  20821077.313     -231429.731 6   -180334.52324
 91  3 20 22 18 44.9990000  0  4G18G 2G11G19
  20499248.050      203583.568 8    158635.86923
  23513930.1284   -1156376.91646   -901068.45061
  23264872.159     -783996.782 6   -610903.59621
  20819094.222     -241854.263 6   -188457.51224
 91  3 20 22 18 59.9990000  0  4G18G 2G11G19
  20501295.7534     214342.80448    167019.66063
  23504071.159    -1208182.650 6   -941436.33921
  23258353.644     -818240.347 6   -637586.78921
  20817118.526     -252233.142 6   -196544.92924
 91  3 20 22 19 14.9990000  0  4G18G 2G11G19
  20503366.792      225229.789 8    175503.00223
  23494223.690    -1259924.548 6   -981754.47621
  23251864.651     -852363.025 6   -664175.77521
  20815155.472     -262561.683 6   -204593.11724
 91  3 20 22 19 29.9990000  0  4G18G 2G11G19
  20505463.917      236248.469 8    184088.96323
  23484391.308    -1311598.101 5  -1022019.35221
  23245394.401     -886360.360 6   -690667.09421
  20813202.222     -272835.751 6   -212598.86524
 91  3 20 22 19 44.9990000  0  4G18G 2G11G19
  20507585.448      247394.184 8    192773.90523
  23474571.542    -1363207.971 5  -1062234.58221
  23238946.300     -920236.892 6   -717064.28121
  20811253.253     -283060.058 6   -220565.83724
 91  3 20 22 19 59.9990000  0  4G18G 2G11G19
  20509730.628      258668.267 8    201558.88623
  23464762.761    -1414752.408 6  -1102398.82421
  23232523.925     -953990.784 6   -743365.90221
  20809315.151     -293233.052 6   -228492.82724
 91  3 20 22 20 14.9990000  0  4G18G 2G11G19
  20511900.948      270075.017 8    210447.23223
  23454966.9094   -1466226.89246  -1142508.61861
  23226125.8154    -987617.27646   -769568.24661
  20807392.136     -303350.411 6   -236376.46124
 91  3 20 22 20 29.9990000  0  4G18G 2G11G19
  20514097.058      281615.948 8    219440.13723
  23445184.2224   -1517629.96646  -1182562.74561
  23219751.167    -1021114.695 6   -795670.02521
  20805478.542     -313410.825 6   -244215.72524
 91  3 20 22 20 44.9990000  0  4G18G 2G11G19
  20516318.472      293284.230 8    228532.28023
  23435415.2694   -1568968.40445  -1222566.48861
  23213396.909    -1054489.484 6   -821676.24721
  20803573.089     -323420.962 6   -252015.80724
 91  3 20 22 20 59.9990000  0  4G18G 2G11G19
  20518563.019      305081.651 8    237725.05323
  23425659.605    -1620240.409 5  -1262518.45621
  23207071.1284   -1087739.71246   -847585.41861
  20801676.855     -333379.214 6   -259775.46224
 91  3 20 22 21 14.9990000  0  4G18G 2G11G19
  20520831.917      317006.023 8    247016.74823
  23415914.4804   -1671447.58846  -1302419.90661
  23200767.886    -1120866.777 6   -873398.60721
  20799792.940     -343287.369 6   -267496.08224
 91  3 20 22 21 29.9990000  0  4G18G 2G11G19
  20523124.355      329058.273 8    256408.08523
  23406181.745    -1722589.023 6  -1342270.15021
  23194488.909    -1153869.317 6   -899114.76221
  20797915.487     -353144.503 6   -275176.94224
 91  3 20 22 21 44.9990000  0  4G18G 2G11G19
  20525444.230      341242.186 8    265902.02223
  23396463.3474   -1773660.76546  -1382066.10161
  23188230.940    -1186743.470 6   -924730.88121
  20796050.792     -362946.920 6   -282815.16724
 91  3 20 22 21 59.9990000  0  4G18G 2G11G19
  20527786.894      353553.953 8    275495.58423
  23386756.5584   -1824666.28945  -1421810.45761
  23181998.4644   -1219492.55646   -950249.54561
  20794194.503     -372698.376 6   -290413.68624
 91  3 20 22 22 14.9990000  0  4G18G 2G11G19
  20530153.472      365994.356 8    285189.37823
  23377063.3624   -1875604.73945  -1461502.52061
  23175791.565    -1252115.534 6   -975669.94521
  20792351.276     -382397.967 6   -297971.79324
 91  3 20 22 22 29.9990000  0  4G18G 2G11G19
  20532547.425      378570.650 8    294989.06823
  23367386.190    -1926468.628 6  -1501136.48621
  23169609.276    -1284604.692 6  -1000986.06621
  20790514.347     -392038.554 6   -305483.92224
 91  3 20 22 22 44.9990000  0  4G18G 2G11G19
  20534964.894      391276.612 8    304889.79523
  23357718.581    -1977263.849 6  -1540716.95921
  23163450.394    -1316965.841 6  -1026202.44221
  20788691.370     -401626.192 6   -312954.79524
 91  3 20 22 22 59.9990000  0  4G18G 2G11G19
  20537406.753      404102.905 8    314884.29023
  23348065.401    -2027999.494 6  -1580251.00421
  23157314.4484   -1349207.81246  -1051325.95861
  20786873.4404    -411169.97646   -320391.50064
 91  3 20 22 23 14.9990000  0  4G18G 2G11G19
  20539869.940      417051.963 8    324974.43723
  23338420.487    -2078673.082 5  -1619736.69621
  23151202.9014   -1381327.99846  -1076354.58261
  20785069.1204    -420667.61346   -327792.24264
 91  3 20 22 23 29.9990000  0  4G18G 2G11G19
  20542357.8394     430127.49748    335163.14363
  23328790.034    -2129280.868 6  -1659171.11121
  23145114.9404   -1413322.32846  -1101285.13661
  20783268.214     -430115.302 6   -335154.06624
 91  3 20 22 23 44.9990000  0  4G18G 2G11G19
  20544869.011      443322.482 8    345444.92523
  23319170.5654   -2179829.56246  -1698559.50361
  23139047.3394   -1445197.58746  -1126122.90461
  20781479.980     -439520.149 6   -342482.50124
 91  3 20 22 23 59.9990000  0  4G18G 2G11G19
  20547402.792      456633.848 8    355817.39623
  23309562.0034   -2230322.14146  -1737904.15861
  23133004.3944   -1476956.36846  -1150869.91361
  20779697.597     -448885.075 6   -349779.83324
 91  3 20 22 24 14.9990000  0  4G18G 2G11G19
  20549959.808      470076.350 8    366292.05023
  23299967.230    -2280743.377 6  -1777193.21721
  23126988.4014   -1508583.24546  -1175514.13761
  20777926.651     -458195.083 6   -357034.37024
 91  3 20 22 24 29.9990000  0  4G18G 2G11G19
  20552541.206      483637.781 8    376859.37623
  23290381.964    -2331105.622 6  -1816436.29421
  23120990.706    -1540090.474 6  -1200065.12921
  20776161.847     -467462.768 6   -364255.92324
 91  3 20 22 24 44.9990000  0  4G18G 2G11G19
  20555145.105      497319.502 8    387520.43223
  23280810.526    -2381407.312 6  -1855632.20821
  23115018.2534   -1571476.27246  -1224521.50161
  20774407.784     -476686.453 6   -371443.19524
 91  3 20 22 24 59.9990000  0  4G18G 2G11G19
  20557771.769      511126.039 8    398278.74823
  23271252.261    -2431643.482 6  -1894777.09321
  23109070.5504   -1602735.44946  -1248879.20161
  20772660.175     -485861.364 6   -378592.46424
 91  3 20 22 25 14.9990000  0  4G18G 2G11G19
  20560422.987      525055.189 8    409132.60723
  23261703.214    -2481816.304 6  -1933872.60021
  23103143.4174   -1633870.04646  -1273139.83961
  20770924.683     -494989.777 6   -385705.49524
 91  3 20 22 25 29.9990000  0  4G18G 2G11G19
  20563097.190      539108.666 8    420083.34523
  23252169.0194   -2531923.68046  -1972917.09861
  23097243.0654   -1664877.93246  -1297301.73161
  20769196.745     -504069.881 6   -392780.88824
 91  3 20 22 25 44.9990000  0  4G18G 2G11G19
  20565795.847      553287.890 8    431132.06823
  23242644.4254   -2581964.04846  -2011909.37161
  23091367.5654   -1695757.17746  -1321363.39661
  20767479.6124    -513099.98046   -399817.31364
 91  3 20 22 25 59.9990000  0  4G18G 2G11G19
  20568517.206      567591.807 8    442277.95623
  23233137.3314   -2631938.47846  -2050850.27061
  23085516.5504   -1726508.77946  -1345325.58961
  20765767.5654    -522081.40946   -406815.81964
 91  3 20 22 26 14.9990000  0  4G18G 2G11G19
  20571262.878      582021.920 8    453522.17623
  23223639.3314   -2681845.01946  -2089738.30661
  23079689.4564   -1757130.68246  -1369186.72661
  20764070.1904    -531012.39746   -413775.02164
 91  3 20 22 26 29.9990000  0  4G18G 2G11G19
  20574032.425      596578.947 8    464865.28823
  23214156.573    -2731682.914 6  -2128572.83521
  23073887.214    -1787621.877 6  -1392946.00421
  20762379.2454    -539892.18646   -420694.32764
 91  3 20 22 26 44.9990000  0  4G18G 2G11G19
  20576828.089      611264.453 8    476308.51723
  23204683.1834   -2781450.58646  -2167352.64361
  23068109.558    -1817980.594 6  -1416602.05721
  20760699.7454    -548719.31346   -427572.59664
 91  3 20 22 26 59.9990000  0  4G18G 2G11G19
  20579647.058      626077.503 8    487851.13023
  23195226.4644   -2831148.72046  -2206078.24961
  23062357.3004   -1848207.40546  -1440155.33461
  20759027.839     -557494.666 6   -434410.52324
 91  3 20 22 27 14.9990000  0  4G18G 2G11G19
  20582486.9484     641005.10648    499482.99863
  23185780.550    -2880789.886 6  -2244759.49421
  23056630.8474   -1878314.57146  -1463615.37461
  20757367.581     -566230.855 6   -441217.92724
 91  3 20 22 27 29.9990000  0  4G18G 2G11G19
  20585352.1284     656057.05848    511211.76463
  23176346.1124   -2930364.16346  -2283388.61061
  23050923.0584   -1908292.07546  -1486974.37061
  20755712.565     -574918.152 6   -447987.23624
 91  3 20 22 27 44.9990000  0  4G18G 2G11G19
  20588240.620      671235.002 8    523038.70923
  23166925.480    -2979869.667 6  -2321964.13421
  23045244.3474   -1938137.80846  -1510230.69961
  20754070.651     -583554.827 6   -454717.09624
 91  3 20 22 27 59.9990000  0  4G18G 2G11G19
  20591152.2764     686537.59648    534962.78063
  23157516.394    -3029307.544 6  -2360486.96121
  23039589.792    -1967852.859 6  -1533385.19421
  20752438.128     -592142.119 6   -461408.48124
 91  3 20 22 28 14.9990000  0  4G18G 2G11G19
  20594087.9724     701967.59448    546986.12463
  23148124.6984   -3078674.86146  -2398954.81861
  23033961.230    -1997434.048 6  -1556435.38721
  20750813.355     -600677.272 6   -468059.23324
 91  3 20 22 28 29.9990000  0  4G18G 2G11G19
  20597047.1514     717518.74748    559103.87563
  23138740.167    -3127977.618 6  -2437372.36221
  23028354.6054   -2026887.23946  -1579385.83261
  20749195.761     -609166.250 6   -474674.00724
 91  3 20 22 28 44.9990000  0  4G18G 2G11G19
  20600029.5194     733188.94648    571314.38963
  23129371.706    -3177218.051 6  -2475741.34121
  23022774.581    -2056214.307 6  -1602238.01721
  20747590.550     -617611.258 6   -481254.51624
 91  3 20 22 28 59.9990000  0  4G18G 2G11G19
  20603035.3944     748985.98348    583623.74063
  23120014.948    -3226387.886 6  -2514055.30421
  23017220.081    -2085407.045 6  -1624985.52321
  20745995.112     -626004.331 6   -487794.56024
 91  3 20 22 29 14.9990000  0  4G18G 2G11G19
  20606064.5194     764905.00448    596028.13663
  23110671.206    -3275491.841 6  -2552317.94821
  23011690.417    -2114470.027 6  -1647631.92221
  20744404.440     -634350.387 6   -494297.96924
 91  3 20 22 29 29.9990000  0  4G18G 2G11G19
  20609117.0264     780946.36848    608527.87063
  23101337.8154   -3324529.36246  -2590528.83461
  23006183.792    -2143402.549 6  -1670176.66621
  20742826.8314    -642648.87146   -500764.30864
 91  3 20 22 29 44.9990000  0  4G18G 2G11G19
  20612192.6204     797105.24048    621119.16763
  23092019.667    -3373504.840 6  -2628691.34221
  23000702.612    -2172208.835 6  -1692623.04721
  20741254.8394    -650904.32546   -507197.11864
 91  3 20 22 29 59.9990000  0  4G18G 2G11G19
  20615290.9094     813388.22448    633807.17263
  23082710.370    -3422411.725 6  -2666800.40321
  22995244.136    -2200882.036 6  -1714965.72221
  20739694.987     -659110.353 6   -513591.41224
 91  3 20 22 30 14.9990000  0  4G18G 2G11G19
  20618412.4804     829789.66548    646587.47863
  23073419.214    -3471255.223 6  -2704860.09321
  22989815.1984   -2229427.45246  -1737208.82761
  20738139.745     -667272.399 6   -519951.43424
 91  3 20 22 30 29.9990000  0  4G18G 2G11G19
  20621556.3474     846312.94848    659462.72863
  23064135.894    -3520031.895 6  -2742867.72221
  22984406.394    -2257841.387 6  -1759349.48021
  20736594.581     -675387.002 6   -526274.48824
 91  3 20 22 30 44.9990000  0  4G18G 2G11G19
  20624723.7694     862958.68548    672433.39363
  23054864.8554   -3568741.27346  -2780822.89961
  22979024.190    -2286122.993 6  -1781387.02321
  20735061.323     -683453.668 6   -532560.18424
 91  3 20 22 30 59.9990000  0  4G18G 2G11G19
  20627916.2924     879731.84448    685503.35163
  23045609.909    -3617377.757 6  -2818721.25721
  22973668.7534   -2314266.73846  -1803317.14361
  20733534.855     -691467.024 6   -538804.33624
 91  3 20 22 31 14.9990000  0  4G18G 2G11G19
  20631131.5734     896630.02148    698670.72563
  23036368.5894   -3665943.63546  -2856564.60361
  22968338.3784   -2342274.64846  -1825141.41661
  20732020.698     -699429.393 6   -545008.75824
 91  3 20 22 31 29.9990000  0  4G18G 2G11G19
  20634370.5584     913650.99948    711933.78763
  23027139.8004   -3714440.88346  -2894354.49761
  22963034.3084   -2370148.35346  -1846861.12561
  20730512.347     -707342.706 6   -551174.96224
 91  3 20 22 31 44.9990000  0  4G18G 2G11G19
  20637633.5584     930796.80548    725294.11763
  23017923.2454   -3762867.65846  -2932089.46861
  22957755.831    -2397886.038 6  -1868474.83621
  20729019.136     -715205.484 6   -557301.78424
 91  3 20 22 31 59.9990000  0  4G18G 2G11G19
  20640919.1514     948065.66548    738750.33563
  23008722.792    -3811225.174 6  -2969770.47221
  22952503.2304   -2425488.74846  -1889983.37461
  20727534.706     -723019.008 6   -563390.23224
 91  3 20 22 32 14.9990000  0  4G18G 2G11G19
  20644229.8234     965461.25548    752305.30263
  22999533.8474   -3859509.57546  -3007394.48761
  22947277.7454   -2452952.47446  -1911383.61261
  20726055.300     -730779.690 6   -569437.49624
 91  3 20 22 32 29.9990000  0  4G18G 2G11G19
  20647563.6364     982981.54248    765957.43663
  22990360.2844   -3907722.58746  -3044962.89261
  22942077.6124   -2480278.80546  -1932676.78961
  20724586.581     -738489.187 6   -575444.88024
 91  3 20 22 32 44.9990000  0  4G18G 2G11G19
  20650919.9954    1000617.44148    779699.66463
  22981194.3944   -3955873.22946  -3082482.68661
  22936901.1904   -2507476.63346  -1953869.84661
  20723129.097     -746156.339 6   -581419.27724
 91  3 20 22 32 59.9990000  0  4G18G 2G11G19
  20654299.2144    1018375.36148    793536.96063
  22972046.2764   -4003955.02546  -3119948.84161
  22931751.7694   -2534539.19346  -1974957.49061
  20721679.894     -753774.931 6   -587355.82824
 91  3 20 22 33 14.9990000  0  4G18G 2G11G19
  20657699.0194    1036245.36648    807461.60463
  22962907.5034   -4051977.52446  -3157368.78561
  22926625.0814   -2561475.95346  -1995947.10461
  20720237.800     -761354.729 6   -593262.14524
 91  3 20 22 33 29.9990000  0  4G18G 2G11G19
  20661122.4564    1054233.07948    821477.96763
  22953781.151    -4099934.643 6  -3194737.80621
  22921524.730    -2588280.911 6  -2016834.01521
  20718801.136     -768889.783 6   -599133.59724
 91  3 20 22 33 44.9990000  0  4G18G 2G11G19
  20664568.7224    1072341.61748    835588.47663
  22944667.5344   -4147823.22146  -3232053.40461
  22916449.7374   -2614950.50346  -2037615.46061
  20717378.472     -776376.896 6   -604967.69324
 91  3 20 22 33 59.9990000  0  4G18G 2G11G19
  20668037.9724    1090572.26748    849794.13863
  22935568.5264   -4195641.62046  -3269314.30661
  22911399.8154   -2641483.12446  -2058290.16761
  20715960.714     -783814.722 6   -610763.38424
 91  3 20 22 34 14.9990000  0  4G18G 2G11G19
  20671530.0194    1108922.12948    864092.69763
  22926482.628    -4243392.885 6  -3306522.91321
  22906377.4254   -2667881.56846  -2078860.32661
  20714555.417     -791206.367 6   -616523.09424
 91  3 20 22 34 29.9990000  0  4G18G 2G11G19
  20675045.5424    1127395.04448    878487.13663
  22917409.6204   -4291072.81146  -3343675.95061
  22901379.0034   -2694141.55446  -2099322.59061
  20713158.769     -798547.707 6   -622243.60324
 91  3 20 22 34 44.9990000  0  4G18G 2G11G19
  20678582.7374    1145986.74648    892974.13963
  22908347.5194   -4338685.48746  -3380776.55561
  22896408.6054   -2720266.81646  -2119679.87361
  20711770.878     -805842.497 6   -627927.84424
 91  3 20 22 34 59.9990000  0  4G18G 2G11G19
  20682144.6674    1164702.09548    907557.49063
  22899302.1594   -4386225.97546  -3417820.90861
  22891464.3554   -2746252.23946  -2139928.18061
  20710391.050     -813086.103 6   -633572.19624
 91  3 20 22 35 14.9990000  0  4G18G 2G11G19
  20685729.8554    1183540.27248    922236.55163
  22890269.8864   -4433694.64246  -3454809.30561
  22886545.855    -2772098.165 6  -2160067.79521
  20709024.628     -820279.152 6   -639177.15724
 91  3 20 22 35 29.9990000  0  4G18G 2G11G19
  20689336.7694    1202495.37848    937006.72163
  22881248.5424   -4481097.23146  -3491746.23761
  22881651.3474   -2797810.20246  -2180103.08661
  20707662.026     -827427.567 6   -644747.33624
 91  3 20 22 35 44.9990000  0  4G18G 2G11G19
  20692966.3944    1221571.94648    951871.54163
  22872239.417    -4528429.026 6  -3528627.99521
  22876786.5264   -2823383.52646  -2200030.28961
  20706312.917     -834526.619 6   -650279.04624
 91  3 20 22 35 59.9990000  0  4G18G 2G11G19
  20696619.7304    1240768.07348    966829.52163
  22863245.7454   -4575691.63846  -3565455.82161
  22871947.0114   -2848819.61246  -2219850.54561
  20704969.542     -841578.051 6   -655773.65824
 91  3 20 22 36 14.9990000  0  4G18G 2G11G19
  20700295.6054    1260085.35848    981881.91063
  22854266.956    -4622883.403 6  -3602228.45821
  22867132.5504   -2874116.48046  -2239562.31861
  20703637.6054    -848580.25146   -661229.90664
 91  3 20 22 36 29.9990000  0  4G18G 2G11G19
  20703996.347     1279530.186 8    997033.68323
  22845301.401    -4669997.733 6  -3638940.75521
  22862347.0974   -2899267.47446  -2259160.42961
  20702316.1674    -855526.47346   -666642.53964
 91  3 20 22 36 44.9990000  0  4G18G 2G11G19
  20707717.6594    1299086.25948   1012272.14563
  22836346.550    -4717050.554 6  -3675605.13621
  22857584.0654   -2924288.36246  -2278657.15361
  20701003.3474    -862432.82646   -672024.09864
 91  3 20 22 36 59.9990000  0  4G18G 2G11G19
  20711460.9174    1318760.32548   1027602.54363
  22827405.112    -4764034.845 6  -3712216.09421
  22852848.5894   -2949172.06746  -2298046.99161
  20699696.1444    -869292.50346   -677369.28864
 91  3 20 22 37 14.9990000  0  4G18G 2G11G19
  20715227.7694    1338553.34048   1043025.63263
  22818478.558    -4810949.438 6  -3748772.75221
  22848138.7924   -2973917.25346  -2317328.88561
  20698400.550     -876104.453 6   -682677.28824
 91  3 20 22 37 29.9990000  0  4G18G 2G11G19
  20719016.2694    1358462.89748   1058539.53463
  22809562.605    -4857796.771 6  -3785277.01021
  22843457.4094   -2998526.23846  -2336504.65161
  20697111.5654    -882871.06346   -687949.96064
 91  3 20 22 37 44.9990000  0  4G18G 2G11G19
  20722828.7374    1378497.69748   1074151.02663
  22800661.745    -4904567.628 6  -3821721.66221
  22838802.5814   -3022989.81946  -2355567.11961
  20695835.4334    -889583.39546   -693180.33564
 91  3 20 22 37 59.9990000  0  4G18G 2G11G19
  20726664.4724    1398653.55648   1089856.84963
  22791775.6594   -4951266.27346  -3858110.05761
  22834173.1124   -3047311.97646  -2374519.38161
  20694566.948     -896245.757 6   -698371.77224
 91  3 20 22 38 14.9990000  0  4G18G 2G11G19
  20730522.4174    1418929.56248   1105656.29463
  22782903.698    -4997893.221 6  -3894442.58921
  22829572.6514   -3071493.02946  -2393361.70361
  20693309.440     -902858.409 6   -703524.47524
 91  3 20 22 38 29.9990000  0  4G18G 2G11G19
  20734402.6204    1439321.46248   1121546.04663
  22774042.7614   -5044452.68946  -3930722.53161
  22824996.0894   -3095537.27746  -2412097.41961
  20692058.0504    -909425.94546   -708642.02864
 91  3 20 22 38 44.9990000  0  4G18G 2G11G19
  20738306.855     1459832.179 8   1137528.37823
  22765196.800    -5090941.439 6  -3966947.36721
  22820447.4484   -3119441.23646  -2430723.81561
  20690819.0504    -915945.13946   -713721.91164
 91  3 20 22 38 59.9990000  0  4G18G 2G11G19
  20742233.8474    1480470.90248   1153610.46363
  22756365.8234   -5137349.86246  -4003109.62161
  22815926.0264   -3143195.11146  -2449233.26461
  20689588.0114    -922406.35246   -718756.61364
 91  3 20 22 39 14.9990000  0  4G18G 2G11G19
  20746184.5264    1501230.26048   1169786.54563
  22747547.8004   -5183685.05846  -4039214.81561
  22811433.8154   -3166805.95846  -2467631.26561
  20688369.6754    -928817.02746   -723751.93464
 91  3 20 22 39 29.9990000  0  4G18G 2G11G19
  20750158.1834    1522112.53348   1186058.40663
  22738744.6284   -5229944.80546  -4075261.22061
  22806969.6674   -3190271.09146  -2485915.72561
  20687157.7224    -935174.77246   -728706.01564
 91  3 20 22 39 44.9990000  0  4G18G 2G11G19
  20754156.7924    1543124.32848   1202431.19163
  22729957.4874   -5276122.42446  -4111243.61461
  22802532.3624   -3213583.80946  -2504081.42561
  20685961.339     -941472.954 6   -733613.67324
 91  3 20 22 39 59.9990000  0  4G18G 2G11G19
  20758179.956     1564264.786 8   1218904.23323
  22721185.3474   -5322218.28446  -4147162.32061
  22798124.7534   -3236744.47946  -2522128.63761
  20684772.3784    -947712.11846   -738475.34764
 91  3 20 22 40 14.9990000  0  4G18G 2G11G19
  20762224.862     1585524.233 8   1235469.99323
  22712427.8784   -5368241.70546  -4183024.58161
  22793743.690    -3259762.415 6  -2540064.63221
  20683596.6444    -953901.78446   -743298.45264
 91  3 20 22 40 29.9990000  0  4G18G 2G11G19
  20766290.8234    1606890.11448   1252118.68863
  22703680.4564   -5414205.05646  -4218840.02361
  22789389.425    -3282649.819 6  -2557898.92121
  20682425.7144    -960054.44046   -748092.71864
 91  3 20 22 40 44.9990000  0  4G18G 2G11G19
  20770379.058     1628373.842 8   1268859.21223
  22694948.4254   -5460096.87646  -4254599.73361
  22785060.8704   -3305395.17146  -2575622.51061
  20681263.6204    -966158.60546   -752849.20064
 91  3 20 22 40 59.9990000  0  4G18G 2G11G19
  20774489.253     1649972.035 8   1285688.92923
  22686228.034    -5505920.349 6  -4290306.19421
  22780759.198    -3328001.306 6  -2593237.62021
  20680109.4334    -972217.40846   -757570.33864
 91  3 20 22 41 14.9990000  0  4G18G 2G11G19
  20778621.331     1671689.040 8   1302611.22623
  22677521.9564   -5551670.90046  -4325955.82261
  22776484.5344   -3350463.44046  -2610740.52661
  20678967.8624    -978226.22846   -762252.52864
 91  3 20 22 41 29.9990000  0  4G18G 2G11G19
  20782776.909     1693523.691 8   1319625.19623
  22668829.1834   -5597349.38146  -4361549.28961
  22772238.433    -3372782.325 6  -2628131.81321
  20677834.5424    -984186.21746   -766896.66464
 91  3 20 22 41 44.9990000  0  4G18G 2G11G19
  20786955.901     1715483.545 8   1336736.72823
  22660150.1054   -5642948.02446  -4397080.55561
  22768018.8864   -3394950.15646  -2645405.38861
  20676710.0734    -990089.53046   -771496.64064
 91  3 20 22 41 59.9990000  0  4G18G 2G11G19
  20791155.933     1737552.963 8   1353933.62823
  22651487.1674   -5688482.19246  -4432561.57361
  22763828.058    -3416982.331 6  -2662573.26221
  20675596.7064    -995951.71846   -776064.56864
 91  3 20 22 42 14.9990000  0  4G18G 2G11G19
  20795378.081     1759744.663 8   1371225.81623
  22642836.4644   -5733938.81646  -4467982.16461
  22759662.0894   -3438865.58346  -2679625.08961
  20674489.8784   -1001759.77546   -780590.31364
 91  3 20 22 42 29.9990000  0  4G18G 2G11G19
  20799623.753     1782055.898 8   1388611.14823
  22634201.6364   -5779320.75846  -4503344.57461
  22755525.5114   -3460602.46546  -2696562.86661
  20673396.214    -1007516.466 6   -785076.03924
 91  3 20 22 42 44.9990000  0  4G18G 2G11G19
  20803892.636     1804487.655 8   1406090.39423
  22625578.7454   -5824626.61146  -4538647.69161
  22751418.4014   -3482191.50246  -2713385.44361
  20672306.9404   -1013220.50246   -789520.73464
 91  3 20 22 42 59.9990000  0  4G18G 2G11G19
  20808185.253     1827046.499 8   1423668.66623
  22616973.1364   -5869849.58046  -4573886.21361
  22747338.355    -3503625.862 6  -2730087.48221
  20671231.2304   -1018864.99946   -793919.03264
 91  3 20 22 43 14.9990000  0  4G18G 2G11G19
  20812501.636     1849726.347 8   1441341.23323
  22608381.3944   -5914995.50146  -4609064.70161
  22743287.440    -3524911.482 6  -2746673.62721
  20670170.8314   -1024456.20546   -798275.80864
 91  3 20 22 43 29.9990000  0  4G18G 2G11G19
  20816838.886     1872517.970 8   1459100.88923
  22599804.2844   -5960073.65546  -4644190.39061
  22739264.167    -3546057.197 6  -2763150.75821
  20669114.5034   -1030003.24846   -802598.16964
 91  3 20 22 43 44.9990000  0  4G18G 2G11G19
  20821198.565     1895427.937 8   1476952.76123
  22591239.948    -6005076.760 6  -4679257.59621
  22735269.276    -3567055.773 6  -2779513.23021
  20668068.2454   -1035499.18446   -806880.70164
 91  3 20 22 43 59.9990000  0  4G18G 2G11G19
  20825579.526     1918455.355 8   1494896.15623
  22582688.4094   -6050005.71846  -4714267.01961
  22731300.144    -3587907.977 6  -2795761.64621
  20667030.3474   -1040944.82946   -811124.04964
 91  3 20 22 44 14.9990000  0  4G18G 2G11G19
  20829985.605     1941608.049 8   1512937.17023
  22574155.8704   -6094852.42146  -4749212.35361
  22727362.042    -3608605.481 6  -2811889.52021
  20666007.2924   -1046331.99346   -815321.82964
 91  3 20 22 44 29.9990000  0  4G18G 2G11G19
  20834413.980     1964876.131 8   1531068.09023
  22565636.6754   -6139626.51246  -4784101.10461
  22723450.284    -3629157.950 6  -2827904.37821
  20664994.2534   -1051670.51546   -819481.70864
 91  3 20 22 44 44.9990000  0  4G18G 2G11G19
  20838863.394     1988264.160 8   1549292.47523
  22557130.2764   -6184323.36546  -4818929.67161
  22719568.558    -3649560.619 6  -2843802.51121
  20663986.0584   -1056955.85346   -823600.14064
 91  3 20 22 44 59.9990000  0  4G18G 2G11G19
  20843338.745     2011772.320 8   1567610.47323
  22548638.6754   -6228942.52546  -4853697.69261
  22715714.347    -3669812.979 6  -2859583.52121
  20662988.0034   -1062187.68646   -827676.88864
 91  3 20 22 45 14.9990000  0  5G18G 2G16G11G19
  20847832.995     2035387.130 8   1586011.57523
  22540159.5344   -6273497.05846  -4888415.36161
  23984745.6204         -0.51155
  22711887.245    -3689927.842 6  -2875257.39521
  20662000.0114   -1067378.95146   -831722.01964
 91  3 20 22 45 29.9990000  0  5G18G 2G16G11G19
  20852348.651     2059124.146 8   1604507.89623
  22531696.8154   -6317971.30646  -4923070.46461
  23979900.3784     -25474.77045
  22708088.401    -3709889.447 6  -2890811.83721
  20661026.4014   -1072513.99646   -835723.34264
 91  3 20 22 45 44.9990000  0  5G18G 2G16G11G19
  20856888.644     2082978.969 8   1623096.01723
  22523247.3474   -6362369.38946  -4957666.23161
  23975076.8554     -50812.45245
  22704317.026    -3729701.816 6  -2906249.99421
  20660057.7694   -1077597.06046   -839684.16064
 91  3 20 22 45 59.9990000  0  5G18G 2G16G11G19
  20861446.073     2106931.157 8   1641760.01323
  22514809.2764   -6406711.40746  -4992218.30061
  23970277.972      -76033.718 5
  22700573.386    -3749385.111 6  -2921587.57621
  20659095.5114   -1082648.42146   -843620.27764
 91  3 20 22 46 14.9990000  0  5G18G 2G16G11G19
  20866028.331     2131008.391 8   1660521.43623
  22506388.7924   -6450969.59846  -5026705.05461
  23965505.034     -101110.921 5
  22696855.230    -3768911.404 6  -2936802.81421
  20658145.5504   -1087640.23546   -847509.99364
 91  3 20 22 46 29.9990000  0  5G18G 2G16G11G19
  20870632.605     2155206.429 8   1679376.99223
  22497980.1594   -6495147.92946  -5061129.58161
  23960761.5114    -126047.56745        -0.25571
  22693168.480    -3788284.406 6  -2951898.61121
  20657205.3624   -1092576.37746   -851356.32964
 91  3 20 22 46 44.9990000  0  5G18G 2G16G11G19
  20875258.245     2179516.873 8   1698320.14223
  22489586.9254   -6539254.46646  -5095498.16161
  23956038.6904    -150851.83745    -19328.19461
  22689511.534    -3807512.101 6  -2966881.17621
  20656276.9484   -1097465.22446   -855165.81064
 91  3 20 22 46 59.9990000  0  5G18G 2G16G11G19
  20879906.198     2203938.769 8   1717350.14323
  22481208.714    -6583290.159 6  -5129811.54721
  23951347.6124    -175524.80045    -38553.83861
  22685878.737    -3826595.357 6  -2981751.19721
  20655353.8784   -1102307.57146   -858939.05864
 91  3 20 22 47 14.9990000  0  5G18G 2G16G11G19
  20884575.198     2228478.702 8   1736472.11123
  22472843.651    -6627248.300 6  -5164064.50221
  23946673.6514    -200059.61045    -57671.80761
  22682276.651    -3845527.296 6  -2996503.30721
  20654444.0424   -1107096.64746   -862670.79664
 91  3 20 22 47 29.9990000  0  5G18G 2G16G11G19
  20889266.901     2253127.430 8   1755678.85923
  22464490.5034   -6671137.86146  -5198264.00761
  23942031.370     -224464.991 5    -76688.93421
  22678699.683    -3864316.817 6  -3011144.44521
  20653539.6054   -1111841.45146   -866368.03464
 91  3 20 22 47 44.9990000  0  5G18G 2G16G11G19
  20893978.597     2277887.358 8   1774972.25823
  22456152.565    -6714955.874 6  -5232407.77021
  23937409.9014    -248738.13044    -95602.98961
  22675151.980    -3882961.062 6  -3025672.37521
  20652647.3314   -1116539.41346   -870028.77964
 91  3 20 22 47 59.9990000  0  5G18G 2G16G11G19
  20898712.980     2302774.400 8   1794364.69723
  22447829.1674   -6758686.38246  -5266483.34561
  23932819.7304    -272863.36845   -114401.82561
  22671635.128    -3901443.879 6  -3040074.52221
  20651763.0734   -1121174.57146   -873640.58164
 91  3 20 22 48 14.9990000  0  5G18G 2G16G11G19
  20903472.065     2327777.295 8   1813847.42323
  22439523.4254   -6802340.26046  -5300499.20961
  23928256.5264    -296851.41745   -133093.76061
  22668147.378    -3919776.036 6  -3054359.27021
  20650892.2764   -1125757.79446   -877211.91164
 91  3 20 22 48 29.9990000  0  5G18G 2G16G11G19
  20908251.8704    2352898.49348   1833422.32463
  22431231.745    -6845915.025 6  -5334453.43121
  23923718.7374    -320699.97245   -151677.00061
  22664687.565    -3937954.941 6  -3068524.60621
  20650029.8234   -1130286.58246   -880740.83064
 91  3 20 22 48 44.9990000  0  5G18G 2G16G11G19
  20913054.144     2378131.808 8   1853084.59623
  22422952.956    -6889416.457 6  -5368350.51121
  23919202.7224    -344414.79545   -170156.02761
  22661256.878    -3955986.229 6  -3082574.91021
  20649177.9954   -1134766.76146   -884231.86964
 91  3 20 22 48 59.9990000  0  5G18G 2G16G11G19
  20917873.730     2403462.184 8   1872822.49523
  22414686.901    -6932859.456 6  -5402202.05921
  23914713.7454    -368010.56445   -188542.28161
  22657849.839    -3973884.757 6  -3096521.76721
  20648332.3154   -1139213.38646   -887696.75964
 91  3 20 22 49 14.9990000  0  5G18G 2G16G11G19
  20922715.847     2428902.626 8   1892646.16623
  22406432.675    -6976230.734 6  -5435997.71121
  23910251.2614    -391473.84745   -206825.29861
  22654472.784    -3991637.080 6  -3110354.69821
  20647494.0424   -1143613.06646   -891125.06964
 91  3 20 22 49 29.9990000  0  5G18G 2G16G11G19
  20927578.284     2454457.218 8   1912558.77823
  22398193.269    -7019525.946 6  -5469734.10021
  23905812.362     -414800.509 5   -225001.85621
  22651122.675    -4009238.874 6  -3124070.33521
  20646665.6984   -1147961.55046   -894513.49264
 91  3 20 22 49 44.9990000  0  5G18G 2G16G11G19
  20932462.362     2480120.777 8   1932556.30423
  22389968.644    -7062750.116 6  -5503415.14321
  23901396.7694    -437995.35845   -243075.72361
  22647801.026    -4026694.955 7  -3137672.43221
  20645847.8474   -1152263.71646   -897865.82364
 91  3 20 22 49 59.9990000  0  5G18G 2G16G11G19
  20937369.003     2505907.237 8   1952649.59523
  22381758.8554   -7105889.19546  -5537029.85861
  23897013.1124    -461044.57145   -261036.11161
  22644510.612    -4043991.193 7  -3151149.97121
  20645039.6284   -1156505.74246   -901171.29064
 91  3 20 22 50 14.9990000  0  5G18G 2G16G11G19
  20942298.308     2531809.509 8   1972833.13023
  22373565.284    -7148949.803 6  -5570583.44121
  23892650.1444    -483954.70145   -278888.10361
  22641246.487    -4061134.261 7  -3164508.15921
  20644243.7694   -1160694.31446   -904435.10564
 91  3 20 22 50 29.9990000  0  5G18G 2G16G11G19
  20947248.823     2557824.289 8   1993104.33623
  22365384.964    -7191935.145 6  -5604078.37821
  23888318.4644    -506728.83045   -296634.10361
  22638013.534    -4078126.993 6  -3177749.19921
  20643456.0894   -1164832.54946   -907659.69264
 91  3 20 22 50 44.9990000  0  5G18G 2G16G11G19
  20952220.659     2583950.881 8   2013462.66423
  22357220.081    -7234845.545 6  -5637514.91021
  23884007.034     -529367.482 5   -314274.56321
  22634808.3474   -4094969.86846  -3190873.47661
  20642677.2844   -1168921.05746   -910845.53864
 91  3 20 22 50 59.9990000  0  5G18G 2G16G11G19
  20957212.190     2610185.318 8   2033905.02923
  22349067.815    -7277684.704 6  -5670895.93121
  23879724.612     -551874.309 5   -331812.30221
  22631630.940    -4111666.457 6  -3203883.75921
  20641908.7454   -1172963.58246   -913995.54663
 91  3 20 22 51 14.9990000  0  5G18G 2G16G11G19
  20962226.206     2636533.500 8   2054436.02223
  22340929.722    -7320446.776 6  -5704216.89121
  23875469.222     -574243.418 5   -349242.71121
  22628482.190    -4128210.800 6  -3216775.41521
  20641149.9334   -1176953.91746   -917104.88663
 91  3 20 22 51 29.9990000  0  5G18G 2G16G11G19
  20967261.644     2662991.382 8   2075052.50323
  22332806.714    -7363135.229 6  -5737480.48321
  23871237.6754    -596478.47245   -366568.67961
  22625361.628    -4144606.283 6  -3229551.06421
  20640397.8704   -1180895.66346   -920176.36664
 91  3 20 22 51 44.9990000  0  5G18G 2G16G11G19
  20972316.878     2689562.747 8   2095757.40623
  22324698.597    -7405746.158 6  -5770683.67021
  23867031.8474    -618575.65645   -383787.22661
  22622271.440    -4160848.949 6  -3242207.64221
  20639660.4804   -1184785.09546   -923207.08163
 91  3 20 22 51 59.9990000  0  5G18G 2G16G11G19
  20977394.378     2716241.100 8   2116545.68123
  22316602.667    -7448285.768 6  -5803831.28521
  23862851.308     -640540.679 5   -400902.77621
  22619208.800    -4176944.880 7  -3254749.87421
  20638927.0344   -1188628.35546   -926201.82063
 91  3 20 22 52 14.9990000  0  5G18G 2G16G11G19
  20982491.972     2743030.429 8   2137420.42323
  22308521.011    -7490749.984 6  -5836920.14721
  23858699.058     -662369.754 5   -417912.41021
  22616174.612    -4192889.943 6  -3267174.55521
  20638206.5894   -1192421.31046   -929157.35964
 91  3 20 22 52 29.9990000  0  5G18G 2G16G11G19
  20987610.1204    2769926.72148   2158378.51463
  22300455.0734   -7533142.82746  -5869953.40461
  23854571.081     -684066.813 5   -434819.14921
  22613167.3154   -4208687.85446  -3279484.57461
  20637492.8704   -1196168.12646   -932076.94763
 91  3 20 22 52 44.9990000  0  5G18G 2G16G11G19
  20992750.190     2796933.426 8   2179422.64423
  22292402.581    -7575460.156 6  -5902927.81621
  23850467.5194    -705627.73245   -451619.81061
  22610190.1904   -4224334.54646  -3291676.76861
  20636790.6284   -1199864.59146   -934957.29964
 91  3 20 22 52 59.9990000  0  5G18G 2G16G11G19
  20997908.980     2824048.983 7   2200551.59723
  22284363.401    -7617703.303 6  -5935844.41422
  23846392.315     -727054.200 5   -468315.71321
  22607242.151    -4239831.312 6  -3303752.12621
  20636097.7694   -1203512.17246   -937799.55564
 91  3 20 22 53 14.9990000  0  5G18G 2G16G11G19
  21003090.269     2851273.338 7   2221765.32823
  22276337.9404   -7659872.27746  -5968703.22661
  23842337.769     -748345.895 5   -484906.60021
  22604321.1904   -4255177.95446  -3315710.51161
  20635411.8154   -1207110.93046   -940603.77364
 91  3 20 22 53 29.9990000  0  5G18G 2G16G11G19
  21008291.9564    2878608.73747   2243065.58363
  22268327.9954   -7701964.51346  -6001502.24761
  23838312.0654    -769500.32145   -501390.53561
  22601429.8394   -4270371.84146  -3327549.87161
  20634734.4724   -1210658.31046   -943367.95564
 91  3 20 22 53 44.9990000  0  5G18G 2G16G11G19
  21013515.003     2906056.429 7   2264453.33823
  22260333.0114   -7743978.55646  -6034240.33562
  23834311.073     -790516.102 5   -517766.42021
  22598567.9014   -4285411.59546  -3339269.11961
  20634071.3154   -1214152.90946   -946091.01364
 91  3 20 22 53 59.9990000  0  5G18G 2G16G11G19
  21018760.120     2933619.001 7   2285930.61023
  22252353.761    -7785911.545 6  -6066915.26021
  23830339.5424    -811390.17145   -534031.90961
  22595735.2694   -4300294.25047  -3350865.95561
  20633418.4014   -1217591.69046   -948770.57464
 91  3 20 22 54 14.9990000  0  5G18G 2G16G11G19
  21024026.909     2961291.797 7   2307493.77323
  22244388.7764   -7827767.81246  -6099530.40762
  23826396.5734    -832126.88645   -550190.33261
  22592932.2694   -4315024.13646  -3362343.74961
  20632771.8624   -1220979.14446   -951410.14464
 91  3 20 22 54 29.9990000  0  5G18G 2G16G11G19
  21029315.2304    2989083.88647   2329149.88763
  22236439.1204   -7869538.13746  -6132078.59061
  23822476.370     -852717.334 5   -566234.77821
  22590159.6834   -4329591.85546  -3373695.18261
  20632139.7224   -1224305.93746   -954002.43964
 91  3 20 22 54 44.9990000  0  5G18G 2G16G11G19
  21034623.940     3016984.704 7   2350890.73023
  22228505.1054   -7911232.81746  -6164567.83061
  23818584.722     -873171.402 5   -582172.97921
  22587418.0344   -4344007.55847  -3384928.16261
  20631515.8004   -1227582.51146   -956555.61064
 91  3 20 22 54 59.9990000  0  5G18G 2G16G11G19
  21039955.0654    3044996.05247   2372717.69463
  22220587.1984   -7952849.78546  -6196996.51261
  23814718.464     -893487.283 5   -598003.49521
  22584703.0584   -4358269.24346  -3396041.12061
  20630903.0424   -1230807.04846   -959068.23664
 91  3 20 22 55 14.9990000  0  6G18G 2G16G11G19G 6
  21045306.9094    3073124.58347   2394635.97163
  22212681.6674   -7994382.05646  -6229359.19462
  23810881.5034    -913658.13145   -613721.00661
  22582020.4564   -4372369.84447  -3407028.56461
  20630298.8944   -1233972.21046   -961534.59264
  24080855.7304         -0.95755
 91  3 20 22 55 29.9990000  0  6G18G 2G16G11G19G 6
  21050681.909     3101365.933 7   2416642.16423
  22204793.4724   -8035833.92546  -6261659.22161
  23807067.230     -933688.019 5   -629328.66221
  22579367.198    -4386313.469 7  -3417893.68521
  20629706.2614   -1237082.32446   -963958.05064
  24073663.9404     -37794.66244
 91  3 20 22 55 44.9990000  0  6G18G 2G16G11G19G 6
  21056076.4874    3129714.96847   2438732.26163
  22196921.2224   -8077210.25946  -6293900.39762
  23803283.909     -953582.103 5   -644830.50321
  22576742.097    -4400105.018 7  -3428640.30021
  20629125.4334   -1240142.33846   -966342.47164
  24066471.6904     -75577.42144
 91  3 20 22 55 59.9990000  0  6G18G 2G16G11G19G 6
  21061491.1204    3158172.09047   2460906.58163
  22189060.9724   -8118510.24846  -6326082.08162
  23799524.1834    -973339.84545   -660226.11961
  22574147.1984   -4413743.78847  -3439267.87461
  20628552.2844   -1243151.68546   -968687.41264
  24059286.792     -113348.748 4
 91  3 20 22 56 14.9990000  0  6G18G 2G16G11G19G 6
  21066926.9724    3186734.71447   2483163.11463
  22181214.9564   -8159736.42346  -6358206.25562
  23795790.378     -992963.423 5   -675517.16021
  22571580.8314   -4427232.16347  -3449778.25561
  20627989.4644   -1246112.79246   -970994.75964
  24052098.9174    -151111.27544
 91  3 20 22 56 29.9990000  0  6G18G 2G16G11G19G 6
  21072383.1124    3215403.73747   2505502.54863
  22173385.386    -8200887.816 6  -6390272.15821
  23792081.3864   -1012452.00445   -690703.04461
  22569042.6204   -4440568.93647  -3460170.50861
  20627431.9874   -1249024.58146   -973263.68264
  24044915.9404    -188864.07844        -0.14571
 91  3 20 22 56 44.9990000  0  6G18G 2G16G11G19G 6
  21077859.0584    3244183.27147   2527928.10463
  22165569.0424   -8241959.74946  -6422276.14161
  23788397.065    -1031800.798 5   -705780.00721
  22566534.8084   -4453749.50647  -3470441.04461
  20626891.6754   -1251882.66046   -975490.74864
  24037735.417     -226602.770 4    -29406.77521
 91  3 20 22 56 59.9990000  0  6G18G 2G16G11G19G 6
  21083355.8864    3273067.35547   2550435.11563
  22157767.7374   -8282957.77646  -6454222.53362
  23784743.253    -1051015.553 5   -720752.50921
  22564055.198    -4466779.327 7  -3480594.11021
  20626359.3624   -1254692.42146   -977680.16764
  24030551.6594    -264332.96044    -58806.76561
 91  3 20 22 57 14.9990000  0  6G18G 2G16G11G19G 6
  21088871.8554    3302057.95347   2573025.12963
  22149980.2534   -8323879.80946  -6486109.71362
  23781110.940    -1070093.827 5   -735618.65421
  22561603.7924   -4479656.25747  -3490628.05061
  20625830.7304   -1257451.75946   -979830.29164
  24023375.7614    -302052.63944    -88198.57161
 91  3 20 22 57 29.9990000  0  6G18G 2G16G11G19G 6
  21094408.5974    3331154.13947   2595697.42263
  22142207.3624   -8364726.61846  -6517938.27262
  23777504.8864   -1089036.50645   -750379.15961
  22559182.3084   -4492380.74347  -3500543.19161
  20625313.7374   -1260161.36946   -981941.66864
  24016197.1204    -339762.57343   -117582.79561
 91  3 20 22 57 44.9990000  0  6G18G 2G16G11G19G 6
  21099966.9484    3360359.12547   2618454.49063
  22134448.9644   -8405494.94446  -6549705.68262
  23773929.878    -1107840.614 5   -765031.64821
  22556790.800    -4504949.609 7  -3510337.07321
  20624810.7144   -1262818.06446   -984011.81264
  24009024.3084    -377459.74743   -146957.04561
 91  3 20 22 57 59.9990000  0  6G18G 2G16G11G19G 6
  21105545.3944    3389674.44347   2641297.53363
  22126705.5654   -8446182.70146  -6581410.31162
  23770377.269    -1126503.994 5   -779574.53421
  22554429.4174   -4517360.83147  -3520008.12661
  20624315.730    -1265419.873 6   -986039.18523
  24001855.378     -415142.235 4   -176319.88521
 91  3 20 22 58 14.9990000  0  6G18G 2G16G11G19G 6
  21111144.7144    3419101.62847   2664227.74763
  22118979.6594   -8486788.09446  -6613050.74562
  23766850.2694   -1145024.88745   -794006.36561
  22552097.0814   -4529612.56347  -3529554.89361
  20623830.9564   -1267964.82046   -988022.25564
  23994686.901     -452808.352 3   -205669.97121
 91  3 20 22 58 29.9990000  0  6G18G 2G16G11G19G 6
  21116764.7454    3448633.34247   2687239.40763
  22111266.5114   -8527318.39046  -6644632.67762
  23763354.4334   -1163410.52945   -808332.77461
  22549794.175    -4541712.069 7  -3538983.04221
  20623355.2144   -1270460.26646   -989966.74764
  23987518.3784    -490465.40743   -235012.98061
 91  3 20 22 58 44.9990000  0  6G18G 2G16G11G19G 6
  21122404.5114    3478269.85747   2710332.73163
  22103568.3864   -8567773.06246  -6676155.68662
  23759881.4724   -1181660.38645   -822553.41861
  22547521.1754   -4553658.59447  -3548291.98561
  20622891.6834   -1272905.59946   -991872.19064
  23980355.464     -528113.107 4   -264348.67421
 91  3 20 22 58 59.9990000  0  6G18G 2G16G11G19G 6
  21128064.2144    3508011.03547   2733507.61163
  22095884.0344   -8608152.13946  -6707619.78662
  23756433.5114   -1199774.96145   -836668.62461
  22545277.4804   -4565451.98647  -3557481.59861
  20622434.3784   -1275300.76246   -993738.54464
  23973195.7224    -565751.39744   -293677.07861
 91  3 20 22 59 14.9990000  0  6G18G 2G16G11G19G 6
  21133745.9014    3537864.76447   2756770.19463
  22088216.3474   -8648447.22946  -6739018.43562
  23753013.4334   -1217745.52645   -850671.64461
  22543064.2764   -4577083.96947  -3566545.44861
  20621989.9254   -1277637.68446   -995559.50864
  23966037.581     -603372.122 4   -322991.79021
 91  3 20 22 59 29.9990000  0  6G18G 2G16G11G19G 6
  21139447.4564    3567830.28047   2780119.88763
  22080563.792    -8688659.006 6  -6770352.17722
  23749621.6364   -1235572.69345   -864562.93261
  22540881.0894   -4588555.25847  -3575484.07661
  20621553.8474   -1279917.02646   -997335.61364
  23958879.347     -640976.072 4   -352293.43621
 91  3 20 22 59 44.9990000  0  6G18G 2G16G11G19G 6
  21145169.8154    3597898.51147   2803549.60863
  22072926.1054   -8728796.11946  -6801627.72762
  23746254.6204   -1253265.28745   -878349.32861
  22538727.628    -4599874.485 7  -3584304.22921
  20621131.9094   -1282147.44146   -999073.59464
  23951726.5974    -678572.21345   -381589.00061
 91  3 20 22 59 59.9990000  0  6G18G 2G16G11G19G 6
  21150910.5584    3628065.95647   2827056.63963
  22065302.190    -8768861.568 6  -6832847.44722
  23742913.401    -1270826.222 5   -892033.17621
  22536600.214    -4611044.481 7  -3593008.09721
  20620715.1984   -1284331.82746  -1000775.70864
  23944571.0504    -716163.42345   -410880.72661
 91  3 20 23  0 14.9990000  0  6G18G 2G16G11G19G 6
  21156671.4484    3658341.31447   2850647.76063
  22057693.2764   -8808846.88146  -6864004.71862
  23739598.011    -1288247.262 5   -905607.97521
  22534505.7694   -4622056.89147  -3601589.16161
  20620309.8864   -1286461.66646  -1002435.31764
  23937421.5424    -753741.38945   -440162.12661
 91  3 20 23  0 29.9990000  0  6G18G 2G16G11G19G 6
  21162454.8624    3688729.20047   2874326.56963
  22050100.386    -8848746.926 6  -6895095.54822
  23736309.5264   -1305523.11545   -919069.63361
  22532440.9254   -4632906.44546  -3610043.32561
  20619914.2924   -1288531.76346  -1004048.37264
  23930270.870     -791301.267 5   -469429.42421
 91  3 20 23  0 44.9990000  0  6G18G 2G16G11G19G 6
  21168256.0584    3719220.30247   2898085.80263
  22042521.261    -8888570.781 6  -6926127.01122
  23733047.8474   -1322663.04045   -932425.41361
  22530405.4874   -4643602.14147  -3618377.60561
  20619533.1674   -1290551.27646  -1005622.01264
  23923129.1054    -828852.07945   -498689.66961
 91  3 20 23  0 59.9990000  0  6G18G 2G16G11G19G 6
  21174077.8704    3749815.34747   2921926.03063
  22034958.073    -8928317.561 6  -6957098.41721
  23729811.6594   -1339666.20445   -945674.59861
  22528400.1124   -4654143.15147  -3626591.35561
  20619157.1754   -1292519.28646  -1007155.52864
  23915983.4094    -866393.21045   -527942.36361
 91  3 20 23  1 14.9990000  0  6G18G 2G16G11G19G 6
  21179919.7374    3780508.78647   2945842.92563
  22027408.925    -8967992.713 6  -6988014.00921
  23726602.956    -1356537.932 5   -958821.39721
  22526422.0504   -4664534.80547  -3634688.71661
  20618793.2144   -1294441.37546  -1008653.25864
  23908841.995     -903930.067 5   -557191.73521
 91  3 20 23  1 29.9990000  0  6G18G 2G16G11G19G 6
  21185779.9644    3811307.58647   2969841.92263
  22019873.230    -9007589.014 6  -7018868.15922
  23723417.214    -1373271.105 5   -971860.19621
  22524473.472    -4674769.880 6  -3642664.07921
  20618436.5734   -1296310.48946  -1010109.70964
  23901700.940     -941455.621 5   -586432.29021
 91  3 20 23  1 44.9990000  0  6G18G 2G16G11G19G 6
  21191662.5504    3842215.20647   2993925.71563
  22012354.011    -9047102.430 6  -7049657.72422
  23720262.792    -1389861.765 5   -984787.96521
  22522556.7924   -4684844.19747  -3650514.16761
  20618092.2144   -1298122.45446  -1011521.62364
  23894560.8084    -978965.81845   -615660.90061
 91  3 20 23  1 59.9990000  0  6G18G 2G16G11G19G 6
  21197561.2534    3873221.38747   3018086.30463
  22004848.784    -9086543.353 6  -7080390.80022
  23717129.534    -1406319.985 5   -997612.53721
  22520669.7694   -4694768.10747  -3658247.06061
  20617754.8474   -1299887.29546  -1012896.82564
  23887422.081    -1016471.031 5   -644885.58621
 91  3 20 23  2 14.9990000  0  6G18G 2G16G11G19G 6
  21203480.3314    3904325.43247   3042323.15563
  21997356.909    -9125911.824 6  -7111067.41522
  23714025.823    -1422646.421 5  -1010334.41721
  22518808.925    -4704541.632 7  -3665862.76921
  20617428.3864   -1301605.11046  -1014235.38064
  23880289.5584   -1053971.66245   -674106.73361
 91  3 20 23  2 29.9990000  0  6G18G 2G16G11G19G 6
  21209420.1904    3935532.72747   3066640.46063
  21989880.800    -9165202.495 6  -7141683.41422
  23710944.597    -1438835.585 5  -1022949.33321
  22516978.8784   -4714159.53147  -3673357.20961
  20617110.9334   -1303270.86846  -1015533.37464
  23873154.2694   -1091462.53544   -703320.27161
 91  3 20 23  2 44.9990000  0  6G18G 2G16G11G19G 6
  21215378.605     3966850.566 7   3091043.89923
  21982420.3554   -9204407.57446  -7172232.71162
  23707888.2224   -1454879.53145  -1035451.09761
  22515179.284    -4723613.763 7  -3680724.12221
  20616807.4254   -1304876.48546  -1016784.50164
  23866020.5654   -1128935.76645   -732520.02761
 91  3 20 23  2 59.9990000  0  6G18G 2G16G11G19G 6
  21221357.558     3998268.005 7   3115524.94523
  21974972.370    -9243538.125 6  -7202723.94022
  23704861.730    -1470789.479 5  -1047848.45421
  22513410.120    -4732915.320 7  -3687972.06521
  20616510.2924   -1306433.06246  -1017997.41064
  23858894.003    -1166402.390 4   -761714.67021
 91  3 20 23  3 14.9990000  0  6G18G 2G16G11G19G 6
  21227356.4014    4029789.28947   3140086.92263
  21967542.651    -9282589.274 6  -7233153.30222
  23701861.019    -1486560.524 5  -1060137.56321
  22511668.925    -4742059.455 7  -3695097.34021
  20616225.1204   -1307935.75546  -1019168.33964
  23851764.511    -1203857.950 4   -790900.65921
 91  3 20 23  3 29.9990000  0  6G18G 2G16G11G19G 6
  21233374.683     4061417.415 7   3164732.14623
  21960125.933    -9321557.718 6  -7263518.21421
  23698887.425    -1502189.798 5  -1072316.19421
  22509961.050    -4751043.009 7  -3702097.48521
  20615948.1594   -1309381.41046  -1020294.82564
  23844638.690    -1241299.349 3   -820075.62621
 91  3 20 23  3 44.9990000  0  6G18G 2G16G11G19G 6
  21239414.230     4093152.260 7   3189460.52023
  21952727.339    -9360443.528 6  -7293818.74022
  23695936.120    -1517677.299 5  -1084384.35721
  22508281.737    -4759865.857 7  -3708972.41621
  20615684.3704   -1310770.00146  -1021376.84664
  23837518.6674   -1278726.61144   -849239.56761
 91  3 20 23  3 59.9990000  0  6G18G 2G16G11G19G 6
  21245471.909     4124982.429 7   3214263.17223
  21945340.355    -9399257.963 6  -7324063.65222
  23693017.4874   -1533034.21045  -1096350.78561
  22506631.753    -4768539.065 7  -3715730.74521
  20615429.2304   -1312112.68246  -1022423.09663
  23830395.847    -1316150.945 4   -878401.24221
 91  3 20 23  4 14.9990000  0  6G18G 2G16G11G19G 6
  21251548.605     4156915.785 7   3239146.22823
  21937969.183    -9437992.774 6  -7354246.51622
  23690118.1284   -1548252.15045  -1108208.91061
  22505010.0034   -4777054.57147  -3722366.17861
  20615184.3944   -1313401.31846  -1023427.23064
  23823277.4174   -1353564.39943   -907554.45761
 91  3 20 23  4 29.9990000  0  6G18G 2G16G11G19G 6
  21257645.206     4188956.197 7   3264112.71423
  21930613.058    -9476643.919 6  -7384364.18422
  23687249.6444   -1563327.34945  -1119955.80661
  22503422.089    -4785408.210 7  -3728875.48621
  20614947.1364   -1314631.75746  -1024386.01764
  23816159.4874   -1390962.90544   -936695.98061
 91  3 20 23  4 44.9990000  0  6G18G 2G16G11G19G 6
  21263761.175     4221097.863 7   3289158.09423
  21923272.7304   -9515217.04846  -7414421.06461
  23684410.2374   -1578265.38845  -1131595.81261
  22501860.292    -4793605.421 7  -3735262.89621
  20614727.4954   -1315809.63046  -1025303.84564
  23809045.519    -1428352.097 4   -965830.25921
 91  3 20 23  4 59.9990000  0  6G18G 2G16G11G19G 6
  21269896.245     4253340.133 7   3314281.86423
  21915948.058    -9553712.331 6  -7444417.29422
  23681592.7844   -1593066.69945  -1143129.28461
  22500330.550    -4801646.494 7  -3741528.65021
  20614509.9094   -1316935.18246  -1026180.90364
  23801931.3004   -1465732.58844   -994957.76361
 91  3 20 23  5 14.9990000  0  6G18G 2G16G11G19G 6
  21276053.269     4285687.941 7   3339487.87122
  21908638.644    -9592124.439 6  -7474348.69022
  23678802.3474   -1607725.67945  -1154551.85961
  22498830.815    -4809526.241 7  -3747668.68121
  20614309.1594   -1318003.06746  -1027013.01964
  23794819.9804   -1503098.92844  -1024074.23461
 91  3 20 23  5 29.9990000  0  6G18G 2G16G11G19G 6
  21282227.386     4318137.676 7   3364773.30723
  21901344.862    -9630456.672 6  -7504217.85722
  23676039.8084   -1622246.28445  -1165866.57061
  22497361.464    -4817248.098 6  -3753685.69321
  20614116.7064   -1319016.82746  -1027802.96264
  23787712.0504   -1540454.71744  -1053182.48561
 91  3 20 23  5 44.9990000  0  6G18G 2G16G11G19G 6
  21288421.925     4350688.041 7   3390137.15023
  21894064.597    -9668710.355 6  -7534025.81822
  23673302.7374   -1636629.51545  -1177074.28461
  22495922.261    -4824813.171 6  -3759580.53221
  20613933.5424   -1319977.50046  -1028551.53864
  23780604.534    -1577801.409 4  -1082283.63121
 91  3 20 23  5 59.9990000  0  6G18G 2G16G11G19G 6
  21294637.089     4383347.493 7   3415585.99722
  21886802.581    -9706876.878 6  -7563765.86422
  23670595.925    -1650866.643 5  -1188168.13521
  22494513.284    -4832212.608 7  -3765346.30821
  20613761.2534   -1320876.13746  -1029251.78364
  23773501.3784   -1615130.03344  -1111370.73561
 91  3 20 23  6 14.9990000  0  6G18G 2G16G11G19G 6
  21300871.339     4416109.909 7   3441115.07622
  21879554.120    -9744961.890 6  -7593442.39222
  23667911.6444   -1664963.65545  -1199152.82061
  22493136.839    -4839452.189 7  -3770987.51721
  20613601.9094   -1321718.66546  -1029908.30164
  23766400.042    -1652446.639 4  -1140448.42221
 91  3 20 23  6 29.9990000  0  6G18G 2G16G11G19G 6
  21307125.448     4448971.114 7   3466721.13123
  21872322.940    -9782969.346 6  -7623058.48322
  23665254.683    -1678924.322 5  -1210031.22421
  22491787.167    -4846535.842 7  -3776507.22821
  20613454.8624   -1322509.14246  -1030524.25264
  23759299.448    -1689755.206 4  -1169519.84521
 91  3 20 23  6 44.9990000  0  6G18G 2G16G11G19G 6
  21313398.058     4481935.493 7   3492407.58622
  21865105.722    -9820894.737 6  -7652610.63122
  23662623.925    -1692744.234 5  -1220799.98621
  22490469.995    -4853458.969 7  -3781901.84321
  20613313.4174   -1323242.91046  -1031096.01164
  23752202.440    -1727051.294 4  -1198581.56621
 91  3 20 23  6 59.9990000  0  6G18G 2G16G11G19G 6
  21319689.565     4515000.686 7   3518172.59622
  21857903.339    -9858740.157 6  -7682100.46222
  23660020.6984   -1706425.37645  -1231460.57361
  22489184.245    -4860223.661 7  -3787173.01021
  20613186.0814   -1323921.97446  -1031625.14864
  23745104.6594   -1764337.14544  -1227635.28961
 91  3 20 23  7 14.9990000  0  6G18G 2G16G11G19G 6
  21326000.894     4548165.284 7   3544015.06522
  21850714.769    -9896507.152 6  -7711529.17522
  23657444.4334   -1719969.31645  -1242014.29461
  22487926.198    -4866831.300 7  -3792321.80521
  20613064.5894   -1324547.58746  -1032112.63464
  23738015.917    -1801614.181 5  -1256682.13921
 91  3 20 23  7 29.9990000  0  6G18G 2G16G11G19G 6
  21332332.440     4581434.928 7   3569939.39022
  21843545.480    -9934189.249 6  -7740891.74522
  23654895.472    -1733369.674 5  -1252456.09621
  22486699.980    -4873275.631 7  -3797343.33421
  20612956.7144   -1325113.65546  -1032553.71764
  23730924.1124   -1838876.20145  -1285717.32261
 91  3 20 23  7 44.9990000  0  6G18G 2G16G11G19G 6
  21338682.3084    4614801.94147   3595939.59063
  21836389.011    -9971794.038 6  -7770194.06922
  23652369.675    -1746634.308 5  -1262792.17421
  22485505.433    -4879564.198 7  -3802243.49421
  20612858.6594   -1325627.59646  -1032954.18564
  23723832.425    -1876130.825 5  -1314746.72321
 91  3 20 23  7 59.9990000  0  6G18G 2G16G11G19G 6
  21345050.815     4648267.776 7   3622016.78823
  21829247.855   -10009319.651 6  -7799434.69722
  23649874.284    -1759761.654 5  -1273021.25121
  22484337.4724   -4885695.35047  -3807020.98361
  20612769.9404   -1326087.56246  -1033312.59664
  23716746.4804   -1913376.56145  -1343769.17761
 91  3 20 23  8 14.9990000  0  6G18G 2G16G11G19G 6
  21351436.753     4681829.064 7   3648168.36622
  21822121.745   -10046768.986 6  -7828615.89122
  23647399.456    -1772754.204 5  -1283145.27221
  22483199.222    -4891671.856 7  -3811677.98421
  20612693.2304   -1326496.56146  -1033631.28864
  23709657.628    -1950616.194 5  -1372786.90521
 91  3 20 23  8 29.9990000  0  6G18G 2G16G11G19G 6
  21357841.159     4715489.187 7   3674396.95722
  21815009.745   -10084138.725 6  -7857735.05422
  23644954.2844   -1785609.09445  -1293162.04761
  22482093.4874   -4897490.31547  -3816211.81961
  20612623.8004   -1326851.09246  -1033907.54464
  23702576.0424   -1987846.44345  -1401797.35061
 91  3 20 23  8 44.9990000  0  6G18G 2G16G11G19G 6
  21364265.081     4749241.053 7   3700697.04022
  21807913.339   -10121435.920 6
  23642531.058    -1798333.242 5  -1303076.94821
  22481013.1364   -4903157.59747  -3820627.85961
  20612569.3864   -1327158.07946  -1034146.74564
  23695489.0814   -2025074.33245
 91  3 20 23  8 59.9990000  0  6G18G 2G16G11G19G 6
  21370707.4254    4783093.77147   3727075.71462
  21800832.183   -10158651.119 6
  23640138.0424   -1810917.12245  -1312882.56361
  22479967.5034   -4908664.43947  -3824918.87861
  20612517.0264   -1327408.16246  -1034341.61064
  23688407.5424   -2062290.77044
 91  3 20 23  9 14.9990000  0  6G18G 2G16G11G19G 6
  21377168.9644    4817049.33747   3753534.52762
  21793765.620   -10195781.951 6  -7944729.45222
  23637772.769    -1823358.777 5  -1322577.32421
  22478949.300    -4914008.428 7  -3829083.00021
  20612482.6204   -1327598.84046  -1034490.18364
  23681329.644    -2099493.338 5  -1488794.39321
 91  3 20 23  9 29.9990000  0  6G18G 2G16G11G19G 6
  21383648.019     4851099.308 7   3780066.89322
  21786714.362   -10232836.435 6  -7973602.96822
  23635428.097    -1835666.132 5  -1332167.47121
  22477961.675    -4919197.725 7  -3833126.58321
  20612461.2614   -1327738.15846
  23674248.1364   -2136690.27045  -1517778.84661
 91  3 20 23  9 44.9990000  0  6G18G 2G16G11G19G 6
  21390145.230     4885244.411 7   3806673.39723
  21779678.026   -10269813.656 6  -8002416.28222
  23633112.612    -1847838.216 5  -1341652.20521
  22477003.745    -4924231.286 7  -3837048.81221
  20612441.9564   -1327825.23146
  23667173.3154   -2173880.59945  -1546758.14761
 91  3 20 23  9 59.9990000  0  6G18G 2G16G11G19G 6
  21396663.308     4919488.506 7   3833357.03022
  21772657.605   -10306709.692 6  -8031166.32222
  23630821.433    -1859871.063 5  -1351028.42921
  22476076.167    -4929105.073 7  -3840846.54121
  20612431.9804   -1327855.99046
  23660094.855    -2211060.476 4  -1575729.33121
 91  3 20 23 10 14.9990000  0  6G18G 2G16G11G19G 6
  21403198.4954    4953831.31647   3860117.59062
  21765649.362   -10343524.433 6  -8059853.02622
  23628558.0264   -1871765.12745  -1360296.50761
  22475179.730    -4933819.042 7  -3844519.75021
  20612440.4014   -1327830.27746
  23653024.4404   -2248229.99244  -1604692.40361
 91  3 20 23 10 29.9990000  0  6G18G 2G16G11G19G 6
  21409749.987     4988268.541 7   3886951.71822
  21758658.628   -10380261.892 6  -8088479.51322
  23626320.6204   -1883524.26245  -1369459.44461
  22474313.120    -4938377.181 7  -3848071.53021
  20612456.4174   -1327752.10946
  23645953.2224   -2285393.16045  -1633650.54561
 91  3 20 23 10 44.9990000  0  6G18G 2G16G11G19G 6
  21416323.042     5022801.758 7   3913860.64122
  21751683.831   -10416920.200 6  -8117044.32222
  23624112.839    -1895146.857 5  -1378516.01521
  22473474.980    -4942777.727 7  -3851500.50821
  20612479.4644   -1327619.91046
  23638880.808    -2322548.306 4  -1662602.44321
 91  3 20 23 10 59.9990000  0  6G18G 2G16G11G19G 6
  21422912.253     5057436.386 7   3940848.57922
  21744722.933   -10453493.780 6  -8145543.10322
  23621924.1904   -1906627.21145  -1387461.71461
  22472667.761    -4947015.091 7  -3854802.33421
  20612515.964    -1327427.847 6
  23631814.2304   -2359689.77445  -1691543.65361
 91  3 20 23 11 14.9990000  0  6G18G 2G16G11G19G 6
  21429522.933     5092165.401 7   3967910.07822
  21737779.597   -10489989.612 6  -8173981.30522
  23619764.745    -1917972.104 5  -1396301.88121
  22471890.300    -4951096.193 7  -3857982.40221
  20612563.6754   -1327182.78746
  23624745.5654   -2396824.53045  -1720479.67261
 91  3 20 23 11 29.9990000  0  6G18G 2G16G11G19G 6
  21436147.901     5126983.725 7   3995041.15722
  21730847.612   -10526412.142 6  -8202362.38722
  23617632.136    -1929186.166 5  -1405040.09321
  22471142.495    -4955025.556 6  -3861044.22621
  20612617.3474   -1326889.17846  -1033937.12264
  23617683.698    -2433957.225 5  -1749414.05721
 91  3 20 23 11 44.9990000  0  6G18G 2G16G11G19G 6
  21442791.011     5161894.892 7   4022244.58622
  21723932.034   -10562757.602 6  -8230683.41722
  23615524.2304   -1940265.97145  -1413673.68961
  22470426.503    -4958799.426 7  -3863984.88721
  20612683.362    -1326543.169 6  -1033667.49024
  23610614.5974   -2471084.25045  -1778344.06161
 91  3 20 23 11 59.9990000  0  6G18G 2G16G11G19G 6
  21449452.128     5196893.940 7   4049516.49222
  21717027.8474  -10599030.97746  -8258948.28462
  23613439.2224   -1951216.37345  -1422206.46461
  22469735.417    -4962422.557 7  -3866808.09421
  20612758.6204   -1326149.68346  -1033360.87464
  23603551.5034   -2508210.40545  -1807273.37861
 91  3 20 23 12 14.9990000  0  6G18G 2G16G11G19G 6
  21456129.636     5231986.713 7   4076861.43322
  21710141.956   -10635225.932 6  -8287152.03822
  23611379.5114   -1962031.21345  -1430633.58161
  22469077.925    -4965888.631 7  -3869508.92021
  20612843.5814   -1325702.40246  -1033012.33664
  23596486.214    -2545329.556 5  -1836197.23621
 91  3 20 23 12 29.9990000  0  6G18G 2G16G11G19G 6
  21462825.956     5267176.509 7   4104281.97722
  21703268.636   -10671339.034 6  -8315292.00822
  23609350.6594   -1972707.00645  -1438952.38961
  22468446.245    -4969194.310 7  -3872084.75921
  20612939.4874   -1325197.90346  -1032619.20764
  23589426.0584   -2582438.37445  -1865113.04861
 91  3 20 23 12 44.9980000  0  6G18G 2G16G11G19G 6
  21469539.311     5302460.173 7   4131775.66022
  21696411.865   -10707368.165 7  -8343366.54722
  23607345.1314   -1983243.72245  -1447162.77961
  22467849.342    -4972339.930 7  -3874535.87721
  20613046.0144   -1324636.64346  -1032181.85464
  23582366.0764   -2619534.94445  -1894019.31061
 91  3 20 23 12 59.9980000  0  6G18G 2G16G11G19G 6
  21476271.318     5337834.086 7   4159339.66522
  21689569.811   -10743326.262 7  -8371385.73922
  23605363.717    -1993650.710 5  -1455272.12721
  22467278.076    -4975333.980 7  -3876868.89121
  20613161.3504   -1324026.47846  -1031706.39264
  23575306.006    -2656632.172 5  -1922926.10421
 91  3 20 23 13 14.9980000  0  6G18G 2G16G11G19G 6
  21483020.225     5373304.198 7   4186978.63522
  21682742.662   -10779202.575 7  -8399341.20222
  23603407.623    -2003919.341 5  -1463273.64621
  22466738.5614   -4978167.83547  -3879077.07762
  20613291.3734   -1323359.05646  -1031186.31564
  23568248.834    -2693719.452 5  -1951825.12521
 91  3 20 23 13 29.9980000  0  6G18G 2G16G11G19G 6
  21489787.670     5408864.526 7   4214687.91222
  21675929.467   -10815002.731 6  -8427237.32022
  23601480.7724   -2014054.91445  -1471171.48961
  22466230.545    -4980847.061 7  -3881164.76521
  20613423.8814   -1322639.87046  -1030625.90463
  23561193.1004   -2730802.24845  -1980720.65561
 91  3 20 23 13 44.9980000  0  6G18G 2G16G11G19G 6
  21496572.889     5444514.352 7   4242466.91622
  21669130.201   -10850727.401 7  -8455074.62822
  23599579.2174   -2024058.26245  -1478966.30661
  22465750.3034   -4983372.37947  -3883132.53861
  20613571.8814   -1321869.31846  -1030025.46663
  23554137.561    -2767881.376 5  -2009613.33621
 91  3 20 23 13 59.9980000  0  6G18G 2G16G11G19G 6
  21503373.4824    5480258.56547   4270319.46262
  21662349.5454  -10886371.15647  -8482848.88662
  23597702.654    -2033924.292 5  -1486654.10521
  22465300.115    -4985738.674 7  -3884976.39321
  20613729.2484   -1321042.38246  -1029381.10163
  23547083.1624   -2804951.69745  -2038499.14961
 91  3 20 23 14 14.9980000  0  6G18G 2G16G11G19G 6
  21510193.2954    5516093.91747   4298243.02362
  21655580.3034  -10921937.05547  -8510562.47862
  23595850.9594   -2043655.72445  -1494237.05661
  22464879.498    -4987948.836 7  -3886698.57921
  20613897.2564   -1320161.86046  -1028694.97064
  23540030.678    -2842016.191 5  -2067380.42321
 91  3 20 23 14 29.9980000  0  6G18G 2G16G11G19G 6
  21517028.147     5552015.294 7   4326233.62722
  21648825.584   -10957430.080 7  -8538219.27422
  23594020.9904   -2053257.89045  -1501719.21661
  22464486.037    -4990007.752 7  -3888302.90921
  20614071.5144   -1319232.56146  -1027970.83364
  23532976.6474   -2879079.72045  -2096260.94361
 91  3 20 23 14 44.9980000  0  6G18G 2G16G11G19G 6
  21523883.092     5588029.685 7   4354296.71922
  21642087.6154  -10992842.82847  -8565813.52562
  23592220.5924   -2062723.51345  -1509095.01861
  22464125.7644   -4991908.04747  -3889783.65161
  20614262.0534   -1318247.18046  -1027202.99964
  23525925.8734   -2916135.29345  -2125135.25961
 91  3 20 23 14 59.9980000  0  6G18G 2G16G11G19G 6
  21530752.834     5624136.660 7   4382431.94522
  21635363.0224  -11028175.43347  -8593345.33062
  23590444.5614   -2072052.75945  -1516364.54561
  22463792.4754   -4993649.94947  -3891140.97161
  20614459.9284   -1317205.88446  -1026391.59664
  23518874.1864   -2953182.88745  -2154003.36461
 91  3 20 23 15 14.9980000  0  6G18G 2G16G11G19G 6
  21537640.522     5660330.962 7   4410635.20922
  21628655.9824  -11063432.89847  -8620818.58362
  23588694.404    -2081250.519 5  -1523531.62921
  22463490.5764   -4995238.38947  -3892378.70461
  20614668.7564   -1316113.45846  -1025540.35064
  23511823.076    -2990227.600 5  -2182869.22821
 91  3 20 23 15 29.9980000  0  6G18G 2G16G11G19G 6
  21544547.9514    5696620.75147   4438912.87362
  21621961.8734  -11098606.92647  -8648226.82362
  23586969.7954   -2090308.68045  -1530589.93061
  22463219.6074   -4996665.10347  -3893490.42361
  20614885.1234   -1314961.67946  -1024642.85864
  23504776.6004   -3027261.07945  -2211726.32361
 91  3 20 23 15 44.9980000  0  6G18G 2G16G11G19G 6
  21551467.7794    5732990.41947   4467252.78762
  21615282.0534  -11133712.82547  -8675581.97462
  23585272.342    -2099242.787 5  -1537551.58321
  22462975.0924   -4997945.64647  -3894488.24061
  20615116.0294   -1313765.79646  -1023710.99564
  23497728.9204   -3064298.94445  -2240586.84361
 91  3 20 23 15 59.9980000  0  6G18G 2G16G11G19G 6
  21558404.162     5769439.814 7   4495654.83222
  21608613.1394  -11168750.41647  -8702883.89562
  23583593.561    -2108052.539 5  -1544416.30421
  22462759.873    -4999079.626 7  -3895371.84721
  20615348.5844   -1312525.54346  -1022744.56564
  23490681.5224   -3101340.87645  -2269450.53761
 91  3 20 23 16 14.9980000  0  6G18G 2G16G11G19G 6
  21565356.412     5805978.264 7   4524126.26422
  21601960.6394  -11203710.26047  -8730125.23362
  23581944.514    -2116728.753 5  -1551177.01921
  22462572.7174   -5000057.59547  -3896133.89262
  20615597.7014   -1311231.35346  -1021736.10464
  23483630.7254   -3138377.45345  -2298310.05461
 91  3 20 23 16 29.9980000  0  6G18G 2G16G11G19G 6
  21572326.8424    5842609.13647   4552669.72062
  21595323.3894  -11238588.77447  -8757303.20462
  23580318.350    -2125268.025 5  -1557830.96921
  22462418.1314   -5000876.00747  -3896771.61161
  20615851.9364   -1309879.56846  -1020682.76664
  23476584.1154   -3175405.26245  -2327162.73361
 91  3 20 23 16 44.9980000  0  6G18G 2G16G11G19G 6
  21579315.8424    5879338.49447   4581289.91062
  21588702.6704  -11273379.38947  -8784412.68062
  23578720.748    -2133664.026 5  -1564373.32021
  22462293.5924   -5001528.55147  -3897280.07661
  20616126.6394   -1308463.58446  -1019579.39964
  23469542.990    -3212417.768 5  -2356003.49221
 91  3 20 23 16 59.9980000  0  6G18G 2G16G11G19G 6
  21586321.6074    5916144.81947   4609970.07462
  21582095.3344  -11308103.44347  -8811470.28862
  23577143.7724   -2141937.76745  -1570820.39461
  22462196.139    -5002036.380 7  -3897675.77922
  20616400.8424   -1307004.72846  -1018442.63164
  23462496.881    -3249436.383 5  -2384849.02421
 91  3 20 23 17 14.9980000  0  6G18G 2G16G11G19G 6
  21593342.139     5953038.811 7   4638718.55422
  21575501.5534  -11342750.19947  -8838467.66362
  23575595.787    -2150078.692 5  -1577163.98521
  22462130.3504   -5002389.00247  -3897950.54661
  20616688.2014   -1305492.32146  -1017264.13264
  23455454.9284   -3286450.49245  -2413691.02461
 91  3 20 23 17 29.9980000  0  6G18G 2G16G11G19G 6
  21600379.0224    5990021.83147   4667536.40262
  21568923.4754  -11377317.93147  -8865403.46962
  23574071.764    -2158085.283 5  -1583402.89521
  22462091.732    -5002584.720 7
  20616986.3974   -1303924.51346  -1016042.46564
  23448411.6074   -3323458.30045  -2442528.11761
 91  3 20 23 17 44.9980000  0  6G18G 2G16G11G19G 6
  21607434.1934    6027090.68947   4696421.13562
  21562360.4594  -11411809.42447  -8892279.86262
  23572572.420    -2165960.322 5  -1589539.27921
  22462084.147    -5002626.306 7
  20617295.9674   -1302304.14346  -1014779.84364
  23441366.5534   -3360462.85245  -2471362.68561
 91  3 20 23 17 59.9980000  0  6G18G 2G16G11G19G 6
  21614503.631     6064248.163 7   4725374.92322
  21555812.0534  -11446221.50147  -8919094.37762
  23571101.9364   -2173700.80045  -1595570.83461
  22462108.459    -5002510.530 7
  20617615.1934   -1300628.02246  -1013473.77863
  23434329.326    -3397460.814 5  -2500192.11021
 91  3 20 23 18 14.9980000  0  6G18G 2G16G11G19G 6
  21621595.326     6101504.954 7   4754406.10622
  21549280.0684  -11480543.44747  -8945838.65962
  23569657.920    -2181296.262 5  -1601489.40221
  22462159.897    -5002226.770 7
  20617946.6864   -1298885.30246  -1012115.81664
  23427289.9984   -3434441.61645  -2529008.17061
 91  3 20 23 18 29.9980000  0  6G18G 2G16G11G19G 6
  21628702.1154    6138858.47647   4783512.65962
  21542766.4364  -11514777.63647  -8972514.55762
  23568237.357    -2188748.932 5  -1607296.68021
  22462248.615    -5001777.418 7
  20618287.9044   -1297078.17847  -1010707.66864
  23420257.279    -3471407.758 5  -2557812.79321
 91  3 20 23 18 44.9980000  0  6G18G 2G16G11G19G 6
  21635827.3034    6176298.19547   4812686.37162
  21536266.3974  -11548934.42747  -8999130.15262
  23566840.779    -2196069.449 5  -1613000.98321
  22462363.6154   -5001172.74247  -3897002.75061
  20618644.3344   -1295216.93346  -1009257.34764
  23413223.3114   -3508369.41745  -2586613.93861
 91  3 20 23 18 59.9980000  0  6G18G 2G16G11G19G 6
  21642967.6784    6213822.34547   4841925.87262
  21529780.4284  -11583015.11447  -9025686.44262
  23565476.240    -2203259.215 5  -1618603.40821
  22462505.178    -5000414.259 7  -3896411.71021
  20619011.3034   -1293302.72446  -1007765.75763
  23406189.4514   -3545327.96145  -2615412.64361
 91  3 20 23 19 14.9980000  0  6G18G 2G16G11G19G 6
  21650123.8034    6251428.71047   4871229.44062
  21523308.7874  -11617021.54947  -9052184.87362
  23564131.5924   -2210320.22145  -1624105.48061
  22462678.6784   -4999503.92647  -3895702.35161
  20619383.3114   -1291337.51146  -1006234.42463
  23399159.5924   -3582285.49245  -2644210.56861
 91  3 20 23 19 29.9980000  0  6G18G 2G16G11G19G 6
  21657295.373     6289117.790 7   4900597.47022
  21516852.5684  -11650953.12547  -9078624.97862
  23562815.2324   -2217251.86645  -1629506.76861
  22462882.0454   -4998441.10647  -3894874.17561
  20619767.1004   -1289320.75746  -1004662.92564
  23392126.8344   -3619241.30845  -2673007.15461
 91  3 20 23 19 44.9980000  0  6G18G 2G16G11G19G 6
  21664485.428     6326894.859 7   4930034.06522
  21510409.740   -11684804.383 7  -9105002.49722
  23561520.811    -2224048.693 5  -1634803.04021
  22463111.3814   -4997220.24047  -3893922.84562
  20620162.6474   -1287246.77446  -1003046.83863
  23385093.4284   -3656190.00345  -2701798.19061
 91  3 20 23 19 59.9980000  0  6G18G 2G16G11G19G 6
  21671688.7324    6364752.81747   4959533.67362
  21503982.990   -11718582.186 7  -9131322.77922
  23560250.6004   -2230717.62945  -1639999.60861
  22463375.0844   -4995848.29647  -3892853.79462
  20620565.8184   -1285122.37646  -1001391.46164
  23378060.529    -3693138.492 5  -2730589.05121
 91  3 20 23 20 14.9980000  0  6G18G 2G16G11G19G 6
  21678910.0534    6402698.92947   4989101.97262
  21497569.818   -11752278.752 7  -9157579.76122
  23559007.4204   -2237251.18345  -1645090.71361
  22463666.107    -4994317.717 7  -3891661.11922
  20620982.3184   -1282939.88946   -999690.82363
  23371032.8424   -3730079.15445  -2759373.82961
 91  3 20 23 20 29.9980000  0  6G18G 2G16G11G19G 6
  21686147.8344    6440728.64447   5018735.41562
  21491174.100   -11785898.656 7  -9183777.00522
  23557790.2094   -2243653.73745  -1650079.74061
  22463986.2324   -4992632.81247  -3890348.20462
  20621404.7014   -1280703.43647   -997948.13364
  23363999.7254   -3767016.30145  -2788155.85561
 91  3 20 23 20 44.9980000  0  6G18G 2G16G11G19G 6
  21693401.4904    6478846.97547   5048437.92262
  21484790.420   -11819436.208 7  -9209910.07622
  23556596.4824   -2249920.00645  -1654962.53261
  22464337.9204   -4990788.24547  -3888910.87462
  20621842.3574   -1278407.49446   -996159.08963
  23356974.1394   -3803944.57845  -2816930.99061
 91  3 20 23 20 59.9980000  0  6G18G 2G16G11G19G 6
  21700667.3424    6517035.79047   5078195.35562
  21478421.0144  -11852909.65747  -9235993.20562
  23555426.420    -2256068.370 5  -1659753.47921
  22464714.4674   -4988802.29347  -3887363.37162
  20622286.3264   -1276070.22647   -994337.84463
  23349949.3734   -3840882.23245  -2845713.44261
 91  3 20 23 21 14.9980000  0  6G18G 2G16G11G19G 6
  21707950.7324    6555306.34247   5108016.47362
  21472065.631   -11886307.428 7  -9262017.35822
  23554283.068    -2262087.328 5  -1664443.59221
  22465120.615    -4986663.266 7  -3885696.58822
  20622744.5294   -1273679.98146   -992475.31963
  23342919.5764   -3877817.66345  -2874494.15161
 91  3 20 23 21 29.9980000  0  6G18G 2G16G11G19G 6
  21715248.568     6593658.122 7   5137900.87622
  21465724.443   -11919629.840 7  -9287982.78922
  23553162.764    -2267977.225 5  -1669033.12421
  22465556.7954   -4984371.55347  -3883910.83261
  20623207.1474   -1271237.05147   -990571.74163
  23335888.154    -3914751.236 5  -2903273.42521
 91  3 20 23 21 44.9980000  0  6G18G 2G16G11G19G 6
  21722563.8654    6632096.42247   5167852.70262
  21459398.029   -11952871.172 7  -9313885.04722
  23552065.0764   -2273732.62545  -1673517.84561
  22466022.139    -4981921.557 7
  20623686.3424   -1268735.67946
  23328865.5764   -3951677.38045  -2932046.88861
 91  3 20 23 21 59.9980000  0  6G18G 2G16G11G19G 6
  21729893.6864    6670618.11447   5197869.50962
  21453087.959   -11986034.333 7  -9339726.38722
  23550998.053    -2279356.129 5  -1677899.81621
  22466520.9514   -4979316.06347  -3879971.48161
  20624174.0844   -1266178.58246   -986630.07463
  23321836.0684   -3988598.72645  -2960816.61561
 91  3 20 23 22 14.9980000  0  6G18G 2G16G11G19G 6
  21737239.8034    6709220.54947   5227949.23262
  21446791.209   -12019121.850 7  -9365508.78722
  23549952.436    -2284850.409 5  -1682181.06821
  22467045.178    -4976557.802 7  -3877822.17821
  20624668.3184   -1263568.19046   -984596.00463
  23314811.990    -4025518.081 5  -2989584.80421
 91  3 20 23 22 29.9980000  0  6G18G 2G16G11G19G 6
  21744603.4904    6747909.75747   5258096.57562
  21440510.232   -12052127.531 7  -9391227.41822
  23548930.303    -2290209.771 5  -1686357.22421
  22467600.0374   -4973640.56747  -3875549.01161
  20625171.9984   -1260898.31147   -982515.58363
  23307785.264    -4062429.117 5  -3018346.48521
 91  3 20 23 22 44.9980000  0  6G18G 2G16G11G19G 6
  21751980.1544    6786682.91747   5288309.32862
  21434243.662   -12085053.648 7  -9416884.05322
  23547934.373    -2295436.053 5  -1690429.66321
  22468186.0684   -4970566.72647  -3873153.80662
  20625693.0454   -1258171.15746   -980390.53064
  23300762.881    -4099334.202 5  -3047103.55721
 91  3 20 23 22 59.9980000  0  6G18G 2G16G11G19G 6
  21759375.5534    6825541.54147   5318588.67362
  21427995.475   -12117898.363 7  -9442477.25722
  23546964.2564   -2300528.02045  -1694397.44761
  22468800.1074   -4967334.64747  -3870635.29962
  20626226.5454   -1255384.86446   -978219.39263
  23293741.7094   -4136231.67745  -3075854.67661
 91  3 20 23 23 14.9980000  0  6G18G 2G16G11G19G 6
  21766784.5454    6864480.80547   5348930.85862
  21421757.654   -12150666.536 7  -9468010.81922
  23546024.967    -2305490.585 5  -1698264.39721
  22469443.5144   -4963949.14547  -3867997.24262
  20626766.0924   -1252544.08046   -976005.79463
  23286720.303    -4173126.238 5  -3104603.54421
 91  3 20 23 23 29.9980000  0  6G18G 2G16G11G19G 6
  21774210.9204    6903501.47147   5379336.47362
  21415537.967   -12183357.114 7  -9493483.91722
  23545105.3034   -2310322.64145  -1702029.67761
  22470120.2404   -4960409.12547  -3865238.78462
  20627313.1074   -1249647.82947   -973748.97464
  23279701.232    -4210016.882 5  -3133349.35421
 91  3 20 23 23 44.9980000  0  6G18G 2G16G11G19G 6
  21781650.701     6942604.196 7   5409806.02522
  21409332.717   -12215968.830 7  -9518895.56722
  23544208.1074   -2315023.34545  -1705692.55361
  22470819.9984   -4956713.53847  -3862359.10262
  20627880.1154   -1246694.70146   -971447.83563
  23272684.3424   -4246902.61745  -3162091.31861
 91  3 20 23 23 59.9980000  0  6G18G 2G16G11G19G 6
  21789107.7954    6981786.69247   5440337.74362
  21403140.639   -12248503.805 7  -9544247.41122
  23543340.131    -2319594.919 5  -1709254.82421
  22471553.8264   -4952864.44047  -3859359.80162
  20628448.9594   -1243686.81047   -969104.02363
  23265661.826    -4283785.418 5  -3190831.03221
 91  3 20 23 24 14.9980000  0  6G18G 2G16G11G19G 6
  21796580.3184    7021053.51947   5470935.16861
  21396965.272   -12280957.365 7  -9569535.82222
  23542495.1074   -2324032.76945  -1712712.90961
  22472315.8974   -4948857.39247  -3856237.42062
  20629034.3654   -1240619.54046   -966713.94563
  23258646.068    -4320660.807 5  -3219564.93221
 91  3 20 23 24 29.9980000  0  6G18G 2G16G11G19G 6
  21804068.4434    7060398.56647   5501593.55562
  21390804.537   -12313335.388 7  -9594765.37422
  23541673.7644   -2328342.67745  -1716071.31561
  22473106.8734   -4944698.21847  -3852996.51062
  20629628.0844   -1237498.43246   -964281.91263
  23251627.7874   -4357534.50245  -3248297.53261
 91  3 20 23 24 44.9980000  0  6G18G 2G16G11G19G 6
  21811570.3504    7099823.26047   5532313.99862
  21384657.076   -12345636.163 7  -9619934.72822
  23540879.139    -2332522.938 5  -1719328.65321
  22473930.1234   -4940385.31547  -3849635.80262
  20630230.6624   -1234321.86446   -961806.66263
  23244611.982    -4394404.812 5  -3277027.50321
 91  3 20 23 24 59.9980000  0  6G18G 2G16G11G19G 6
  21819085.3344    7139320.77547   5563091.18762
  21378524.131   -12377866.238 7  -9645048.98922
  23540106.772    -2336580.323 5  -1722490.25221
  22474779.6704   -4935925.34847  -3846160.50462
  20630844.4674   -1231096.24147   -959293.18963
  23237596.1624   -4431278.34845  -3305759.98561
 91  3 20 23 25 14.9980000  0  6G18G 2G16G11G19G 6
  21826618.365     7178901.937 7   5593933.53821
  21372405.545   -12410014.537 7  -9670099.53522
  23539359.1864   -2340504.10745  -1725547.76861
  22475655.3424   -4931307.27847  -3842562.01462
  20631470.9904   -1227810.47346   -956732.85464
  23230580.5064   -4468144.11545  -3334486.41861
 91  3 20 23 25 29.9980000  0  6G18G 2G16G11G19G 6
  21834166.209     7218568.428 7   5624842.38622
  21366305.279   -12442079.116 7  -9695084.84122
  23538639.451    -2344292.373 5  -1728499.70521
  22476565.4284   -4926529.26247  -3838838.88762
  20632107.8974   -1224462.44347   -954123.99964
  23223568.4674   -4505000.16245  -3363205.25461
 91  3 20 23 25 44.9980000  0  6G18G 2G16G11G19G 6
  21841730.2014    7258316.19547   5655814.57061
  21360218.272   -12474063.582 7  -9720007.72422
  23537943.443    -2347948.914 5  -1731348.98921
  22477503.6704   -4921595.02647  -3834994.03462
  20632757.5764   -1221055.77547   -951469.45763
  23216556.0924   -4541850.17945  -3391919.41861
 91  3 20 23 25 59.9980000  0  6G18G 2G16G11G19G 6
  21849309.9044    7298143.21147   5686848.51962
  21354145.061   -12505969.861 7  -9744869.67422
  23537271.2094   -2351475.81345  -1734097.25961
  22478472.5144   -4916506.56047  -3831028.99862
  20633413.8034   -1217592.34247   -948770.67863
  23209545.5764   -4578696.05745  -3420630.33961
 91  3 20 23 26 14.9980000  0  6G18G 2G16G11G19G 6
  21856903.2954    7338048.29547   5717943.29761
  21348089.459   -12537798.954 7  -9769671.48722
  23536626.428    -2354874.277 5  -1736745.42521
  22479471.5534   -4911264.95547  -3826944.62662
  20634085.8264   -1214072.93147   -946028.28863
  23202534.2644   -4615538.86545  -3449338.89461
 91  3 20 23 26 29.9980000  0  6G18G 2G16G11G19G 6
  21864511.365     7378034.657 6   5749101.39122
  21342048.225   -12569547.421 7  -9794410.47322
  23536004.4124   -2358140.73645  -1739290.74561
  22480498.7254   -4905866.66047  -3822738.16162
  20634764.6934   -1210493.98247   -943239.49663
  23195521.623    -4652375.028 5  -3478042.26021
 91  3 20 23 26 44.9980000  0  6G18G 2G16G11G19G 6
  21872134.584     7418096.549 6   5780318.35022
  21336020.764   -12601220.613 7  -9819090.80422
  23535407.5224   -2361280.82145  -1741737.59061
  22481552.7724   -4900317.06747  -3818413.80562
  20635460.3814   -1206860.89847   -940408.52563
  23188514.772    -4689209.969 5  -3506744.67821
 91  3 20 23 26 59.9980000  0  6G18G 2G16G11G19G 6
  21879774.162     7458235.259 7   5811595.15621
  21330008.006   -12632817.395 7  -9843711.59622
  23534830.795    -2364293.333 5  -1744085.03121
  22482637.1784   -4894615.08346  -3813970.68962
  20636160.7254   -1203172.14747   -937534.17864
  23181504.326    -4726042.436 5  -3535445.16721
 91  3 20 23 27 14.9980000  0  6G18G 2G16G11G19G 6
  21887427.0924    7498453.23047   5842933.73462
  21324009.764   -12664334.629 7  -9868270.39822
  23534282.147    -2367175.616 5  -1746330.95721
  22483753.2794   -4888757.88546  -3809406.64362
  20636872.8504   -1199424.76946   -934614.14763
  23174497.1394   -4762869.34545  -3564141.31961
 91  3 20 23 27 29.9980000  0  6G18G 2G16G11G19G 6
  21895095.4984    7538746.91747   5874331.30961
  21318026.709   -12695775.625 7  -9892769.80022
  23533759.1234   -2369930.78145  -1748477.89261
  22484895.0374   -4882748.88747  -3804724.31362
  20637597.1154   -1195622.03847   -931650.98563
  23167488.482    -4799694.165 5  -3592835.84821
 91  3 20 23 27 44.9980000  0  6G18G 2G16G11G19G 6
  21902776.5454    7579116.26146   5905787.83961
  21312058.506   -12727140.138 7  -9917209.60323
  23533260.0534   -2372558.77345  -1750525.71961
  22486069.5294   -4876587.90747  -3799923.55762
  20638331.0374   -1191763.57446   -928644.39263
  23160481.287    -4836516.689 5  -3621528.57521
 91  3 20 23 27 59.9980000  0  6G18G 2G16G11G19G 6
  21910474.053     7619562.036 6   5937303.92621
  21306104.389   -12758427.188 7  -9941589.04023
  23532784.029    -2375058.835 5  -1752473.82521
  22487270.2174   -4870274.15547  -3795003.75462
  20639075.4124   -1187848.37547   -925593.58763
  23153473.2484   -4873335.97445  -3650218.80561
 91  3 20 23 28 14.9980000  0  6G18G 2G16G11G19G 6
  21918183.897     7660080.542 7   5968876.67821
  21300164.897   -12789640.235 7  -9965910.81823
  23532331.7644   -2377434.39645  -1754324.94561
  22488500.8894   -4863811.04447  -3789967.56962
  20639830.9044   -1183879.79246   -922501.18663
  23146469.9824   -4910155.48245  -3678909.19261
 91  3 20 23 28 29.9980000  0  6G18G 2G16G11G19G 6
  21925910.318     7700680.305 7   6000512.75721
  21294240.373   -12820770.538 7  -9990168.11623
  23531905.9434   -2379676.98345  -1756072.45661
  22489759.756    -4857189.775 7  -3784808.15122
  20640596.1474   -1179848.90647   -919360.24263
  23139463.4364   -4946966.38445  -3707592.86861
 91  3 20 23 28 44.9980000  0  6G18G 2G16G11G19G 6
  21933650.639     7741358.678 6   6032210.08521
  21288331.795   -12851820.426 7 -10014362.75722
  23531505.8424   -2381788.82645  -1757718.06661
  22491048.5294   -4850412.90447  -3779527.47962
  20641378.1234   -1175758.07546   -916172.58663
  23132459.717    -4983770.939 5  -3736271.60621
 91  3 20 23 28 59.9980000  0  6G18G 2G16G11G19G 6
  21941405.053     7782108.891 6   6063963.38821
  21282437.615   -12882796.702 7 -10038500.03622
  23531127.8574   -2383776.83345  -1759267.20361
  22492367.2954   -4843487.21647  -3774130.84062
  20642164.2404   -1171613.96647   -912943.41563
  23125455.670    -5020576.025 5  -3764950.76821
 91  3 20 23 29 14.9980000  0  6G18G 2G16G11G19G 6
  21949172.561     7822930.323 6   6095772.19321
  21276557.053   -12913699.438 7 -10062580.00823
  23530773.3344   -2385641.54245  -1760720.25261
  22493715.0064   -4836412.84247  -3768618.35362
  20642965.1544   -1167416.48447   -909672.65463
  23118452.6074   -5057381.66645  -3793630.35161
 91  3 20 23 29 29.9980000  0  6G18G 2G16G11G19G 6
  21956957.514     7863834.070 6   6127645.13221
  21270691.701   -12944517.186 7 -10086593.76122
  23530443.107    -2387371.780 5  -1762068.51821
  22495091.7484   -4829178.52546  -3762981.23262
  20643773.2094   -1163154.22447   -906351.41363
  23111451.8814   -5094176.57445  -3822301.58661
 91  3 20 23 29 44.9980000  0  6G18G 2G16G11G19G 6
  21964753.9824    7904808.51847   6159573.17661
  21264842.342   -12975261.448 7 -10110550.24622
  23530136.0224   -2388978.87545  -1763320.81661
  22496495.8574   -4821795.77146  -3757228.44162
  20644596.3114   -1158838.55847   -902988.56063
  23104448.193    -5130972.123 5  -3850973.30221
 91  3 20 23 29 59.9980000  0  6G18G 2G16G11G19G 6
  21972566.4124    7945855.51747   6191557.74961
  21259005.342   -13005929.945 7 -10134447.69423
  23529853.2094   -2390460.73845  -1764475.55161
  22497929.6624   -4814262.53646  -3751358.39462
  20645427.0614   -1154467.14847   -899582.27163
  23097444.615    -5167766.213 5  -3879643.88421
 91  3 20 23 30 14.9980000  0  6G18G 2G16G11G19G 6
  21980393.834     7986982.694 7   6223604.79721
  21253185.904   -13036515.022 7 -10158280.14522
  23529597.0224   -2391810.06345  -1765527.00761
  22499392.7174   -4806571.30846  -3745365.23762
  20646273.3344   -1150032.13146   -896126.41463
  23090447.4824   -5204551.13145  -3908307.32961
 91  3 20 23 30 29.9980000  0  6G18G 2G16G11G19G 6
  21988233.9514    8028185.07846   6255710.44061
  21247380.873   -13067021.264 7 -10182051.15822
  23529366.9594   -2393031.49545  -1766478.78061
  22500884.5614   -4798726.74847  -3739252.60362
  20647129.5534   -1145538.35446   -892624.77763
  23083446.920    -5241331.584 5  -3936967.29621
 91  3 20 23 30 44.9980000  0  6G18G 2G16G11G19G 6
  21996087.365     8069461.708 6   6287873.93221
  21241589.975   -13097449.490 7 -10205761.38622
  23529156.178    -2394125.736 5  -1767331.45721
  22502406.7794   -4790729.60047  -3733021.07062
  20647994.8114   -1140986.31446   -889077.73363
  23076448.600    -5278108.155 5  -3965624.23821
 91  3 20 23 30 59.9980000  0  6G18G 2G16G11G19G 6
  22003957.193     8110814.263 6   6320096.58921
  21235815.818   -13127797.667 7 -10229409.23523
  23528972.2014   -2395091.02145  -1768083.66261
  22503960.1234   -4782578.03947  -3726669.21162
  20648868.7794   -1136373.95247   -885483.68363
  23069452.4284   -5314878.87745  -3994276.62761
 91  3 20 23 31 14.9980000  0  6G18G 2G16G11G19G 6
  22011840.295     8152239.529 6   6352375.90721
  21230054.350   -13158068.437 7 -10252996.76822
  23528813.9674   -2395930.33845  -1768737.71461
  22505537.6004   -4774274.93247  -3720199.26762
  20649760.9284   -1131703.95246   -881844.72263
  23062452.0454   -5351646.50445  -4022926.59061
 91  3 20 23 31 29.9980000  0  6G18G 2G16G11G19G 6
  22019735.7014    8193738.90547   6384712.99661
  21224309.303   -13188260.791 7 -10276523.19723
  23528677.514    -2396642.528 5  -1769292.66621
  22507148.0534   -4765819.18647  -3713610.37662
  20650661.9364   -1126974.92146   -878159.76263
  23055456.725    -5388409.892 5  -4051573.24721
 91  3 20 23 31 44.9980000  0  6G18G 2G16G11G19G 6
  22027649.381     8235316.581 6   6417111.08021
  21218579.967   -13218369.846 7 -10299984.71923
  23528570.3504   -2397222.97845  -1769744.97861
  22508787.4124   -4757206.02047  -3706898.82862
  20651572.0224   -1122181.93346   -874424.97263
  23048463.2564   -5425164.10545  -4080212.76361
 91  3 20 23 31 59.9980000  0  6G18G 2G16G11G19G 6
  22035572.9514    8276961.58546   6449561.60761
  21212864.139   -13248406.451 7 -10323389.78823
  23528480.334    -2397682.605 5  -1770103.15821
  22510453.7174   -4748446.39647  -3700073.15062
  20652495.4754   -1117335.84946   -870648.80763
  23041467.5614   -5461920.02545  -4108853.62061
 91  3 20 23 32 14.9980000  0  6G18G 2G16G11G19G 6
  22043512.8654    8318678.83046   6482068.43361
  21207161.482   -13278365.358 7 -10346734.31223
  23528417.2794   -2398016.49345  -1770363.36561
  22512149.3654   -4739535.26247  -3693129.41662
  20653428.5224   -1112431.16746   -866826.97963
  23034477.5844   -5498672.45745  -4137491.75361
 91  3 20 23 32 29.9980000  0  6G18G 2G16G11G19G 6
  22051465.4984    8360466.91246   6514630.45661
  21201476.131   -13308247.980 7 -10370019.39323
  23528375.787    -2398226.158 5  -1770526.77321
  22513874.7174   -4730473.90547  -3686068.62962
  20654371.8504   -1107469.16046   -862960.48963
  23027483.0294   -5535422.64145  -4166128.12861
 91  3 20 23 32 44.9980000  0  6G18G 2G16G11G19G 6
  22059431.709     8402326.150 7   6547247.93321
  21195803.889   -13338053.792 7 -10393244.62423
  23528358.3654   -2398311.02845
  22515626.6544   -4721262.02747  -3678890.54962
  20655327.5844   -1102449.34946   -859048.95163
  23020487.4434   -5572170.27245  -4194762.50961
 91  3 20 23 32 59.9980000  0  6G18G 2G16G11G19G 6
  22067408.678     8444253.341 6   6579918.36221
  21190146.607   -13367785.429 7 -10416412.06023
  23528368.1074   -2398273.86945
  22517406.639    -4711902.268 7  -3671597.25022
  20656291.897    -1097374.045 7   -855094.18123
  23013494.1314   -5608917.82645  -4223396.85361
 91  3 20 23 33 14.9980000  0  6G18G 2G16G11G19G 6
  22075401.3504    8486249.33346   6612642.39261
  21184503.5144  -13397441.60447 -10439520.70363
  23528397.615    -2398113.924 5
  22519216.772    -4702393.684 7  -3664187.98921
  20657271.178    -1092242.239 7   -851095.38523
  23006504.3424   -5645664.24645  -4252030.30761
 91  3 20 23 33 29.9980000  0  6G18G 2G16G11G19G 6
  22083403.7404    8528311.71146   6645418.14661
  21178873.256   -13427024.615 7 -10462572.32723
  23528453.5844   -2397833.72245
  22521054.092    -4692738.654 7  -3656664.60722
  20658255.9594   -1087056.05547   -847054.21363
  22999512.3264   -5682411.68645  -4280664.53961
 91  3 20 23 33 44.9980000  0  6G18G 2G16G11G19G 6
  22091420.5064    8570437.23946   6678243.10761
  21173256.936   -13456537.652 7 -10485569.42523
  23528528.092    -2397436.131 5  -1769911.38821
  22522918.529    -4682940.338 7  -3649029.57921
  20659254.0454   -1081818.42947   -842972.95163
  22992518.561    -5719163.188 5  -4309301.94321
 91  3 20 23 33 59.9980000  0  6G18G 2G16G11G19G 6
  22099451.482     8612631.912 6   6711121.95421
  21167655.154   -13485974.754 7 -10508507.34723
  23528625.123    -2396915.015 5  -1769505.32821
  22524811.936    -4672992.706 7  -3641278.18022
  20660259.2404   -1076523.22747   -838846.81963
  22985525.3974   -5755912.78445  -4337937.86061
 91  3 20 23 34 14.9980000  0  6G18G 2G16G11G19G 6
  22107496.014     8654909.557 6   6744065.46321
  21162070.654   -13515321.427 7 -10531374.81023
  23528751.0764   -2396256.52645  -1768992.25861
  22526735.131    -4662881.665 7  -3633399.46522
  20661283.6234   -1071155.90846   -834664.49863
  22978533.490    -5792645.991 5  -4366560.99621
 91  3 20 23 34 29.9980000  0  6G18G 2G16G11G19G 6
  22115555.740     8697261.561 6   6777066.90821
  21156503.022   -13544585.819 7 -10554178.15123
  23528901.662    -2395468.930 5  -1768378.58421
  22528688.8814   -4652615.36747  -3625399.76062
  20662319.6704   -1065724.66946   -830432.36563
  22971543.8034   -5829371.03045  -4395177.77161
 91  3 20 23 34 44.9980000  0  6G18G 2G16G11G19G 6
  22123626.389     8739677.173 6   6810117.92521
  21150947.123   -13573778.643 7 -10576925.72923
  23529067.951    -2394563.359 4  -1767672.97021
  22530670.5374   -4642204.68747  -3617287.55162
  20663360.0684   -1060239.98146   -826158.58663
  22964553.943    -5866098.521 5  -4423796.46621
 91  3 20 23 34 59.9980000  0  6G18G 2G16G11G19G 6
  22131709.6704    8782157.21246   6843219.13661
  21145405.725   -13602898.989 7 -10599616.83723
  23529264.264    -2393538.838 4  -1766874.64721
  22532680.818    -4631648.877 6  -3609062.25621
  20664411.0064   -1054701.04047   -821842.53063
  22957565.865    -5902827.681 5  -4452416.44721
 91  3 20 23 35 14.9980000  0  6G18G 2G16G11G19G 6
  22139806.9124    8824701.78346   6876370.63461
  21139877.779   -13631946.275 7 -10622251.01123
  23529483.772    -2392394.958 4  -1765983.36321
  22534714.709    -4620947.464 6  -3600723.51122
  20665477.7174   -1049107.22646   -817483.71963
  22950576.076    -5939557.843 5  -4481037.22221
 91  3 20 23 35 29.9980000  0  6G18G 2G16G11G19G 6
  22147915.717     8867313.324 6   6909574.31621
  21134364.9284  -13660917.54347 -10644825.95563
  23529729.443    -2391129.057 4  -1764996.99321
  22536779.2954   -4610097.68847  -3592269.15162
  20666555.4824   -1043455.36346   -813079.67663
  22943587.7794   -5976286.18245  -4509656.56461
 91  3 20 23 35 44.9980000  0  6G18G 2G16G11G19G 6
  22156037.8034    8909994.24646   6942832.06361
  21128866.779   -13689810.630 7 -10667339.97623
  23529988.3184   -2389739.03744  -1763913.91461
  22538874.397    -4599097.458 7  -3583697.55422
  20667639.5684   -1037743.20046   -808628.64763
  22936597.600    -6013010.335 5  -4538272.65021
 91  3 20 23 35 59.9980000  0  6G18G 2G16G11G19G 6
  22164175.428     8952754.233 6   6976151.41921
  21123385.670   -13718615.379 7 -10689785.16622
  23530280.482    -2388214.975 4  -1762726.36721
  22540996.9904   -4587936.56347  -3575000.76362
  20668741.2564   -1031960.50146   -804122.65363
  22929613.131    -6049720.130 5  -4566877.54321
 91  3 20 23 36 14.9980000  0  6G18G 2G16G11G19G 6
  22172321.6624    8995567.45646   7009512.24561
  21117915.4364  -13747357.44147 -10712181.50662
  23530592.115    -2386582.443 5  -1761454.31521
  22543148.0534   -4576640.76747  -3566198.85862
  20669849.0844   -1026132.73146   -799581.54463
  22922624.959    -6086441.204 5  -4595491.22721
 91  3 20 23 36 29.9980000  0  6G18G 2G16G11G19G 6
  22180481.5614    9038447.67746   7042925.27961
  21112460.826   -13776022.953 7 -10734518.19922
  23530928.100    -2384827.486 5  -1760086.85321
  22545324.381    -4565196.420 7  -3557281.19522
  20670969.9514   -1020245.79846   -794994.32863
  22915637.061    -6123159.528 5  -4624102.76621
 91  3 20 23 36 44.9980000  0  6G18G 2G16G11G19G 6
  22188654.350     9081392.778 6   7076388.87921
  21107019.8184  -13804613.44147 -10756796.43362
  23531282.9044   -2382952.08245  -1758625.52261
  22547530.459    -4553605.182 7  -3548249.07922
  20672103.7094   -1014301.17346   -790362.16163
  22908649.818    -6159876.729 5  -4652713.43621
 91  3 20 23 36 59.9980000  0  6G18G 2G16G11G19G 6
  22196837.7404    9124401.87446   7109902.34461
  21101592.6074  -13833129.73847 -10779016.85662
  23531664.365    -2380957.393 4  -1757071.23821
  22549765.701    -4541868.104 7  -3539103.32522
  20673243.1234   -1008299.54147   -785685.57063
  22901662.998    -6196593.743 5  -4681323.96021
 91  3 20 23 37 14.9980000  0  6G18G 2G16G11G19G 6
  22205034.717     9167473.543 6   7143464.57321
  21096181.6934  -13861572.68247 -10801180.12162
  23532065.865    -2378844.391 4  -1755424.77121
  22552025.639    -4529986.199 7  -3529844.71822
  20674396.6544   -1002241.95047   -780965.37463
  22894678.131    -6233311.424 5  -4709935.00921
 91  3 20 23 37 29.9980000  0  6G18G 2G16G11G19G 6
  22213243.4284    9210613.46746   7177079.98361
  21090783.5764  -13889936.54347 -10823281.76362
  23532490.920    -2376607.614 5  -1753681.86921
  22554314.686    -4517953.704 7  -3520468.76922
  20675561.2794    -996122.46147   -776196.94663
  22887688.748    -6270023.878 5  -4738541.98921
 91  3 20 23 37 44.9980000  0  6G18G 2G16G11G19G 6
  22221467.7324    9253822.15946   7210748.97061
  21085399.8264  -13918220.64347 -10845321.25563
  23532941.006    -2374246.383 4  -1751841.99321
  22556632.5534   -4505770.05447  -3510975.04362
  20676737.7254    -989940.26346   -771379.65563
  22880705.7954   -6306730.33645  -4767144.28961
 91  3 20 23 37 59.9980000  0  6G18G 2G16G11G19G 6
  22229700.3974    9297091.53246   7244465.23361
  21080032.8264  -13946432.91547 -10867304.77762
  23533410.0144   -2371768.69544  -1749911.35261
  22558979.107    -4493443.428 7  -3501369.90222
  20677923.0534    -983703.23547   -766519.63963
  22873718.772    -6343438.791 5  -4795748.15021
 91  3 20 23 38 14.9980000  0  6G18G 2G16G11G19G 6
  22237948.4204    9340425.42246   7278231.77061
  21074677.7874  -13974569.19747 -10889229.08762
  23533903.2644   -2369170.45745  -1747886.80861
  22561352.568    -4480969.767 6  -3491650.18722
  20679122.9984    -977407.09546   -761613.55863
  22866733.9824   -6380145.06945  -4824350.31061
 91  3 20 23 38 29.9980000  0  6G18G 2G16G11G19G 6
  22246206.5224    9383822.01846   7312047.18161
  21069338.3184  -14002630.95147 -10911095.32363
  23534423.334    -2366453.534 5  -1745769.74421
  22563753.811    -4468350.522 6  -3481817.02822
  20680330.6784    -971053.08846   -756662.38863
  22859749.990    -6416850.548 5  -4852951.82821
 91  3 20 23 38 44.9980000  0  6G18G 2G16G11G19G 6
  22254477.3974    9427287.47046   7345916.24761
  21064014.0844  -14030611.89347 -10932898.59363
  23534963.9824   -2363611.64445  -1743555.32761
  22566184.303    -4455579.575 6  -3471865.65922
  20681552.2874    -964634.72246   -751661.06663
  22852766.068    -6453548.803 5  -4881547.75821
 91  3 20 23 38 59.9980000  0  6G18G 2G16G11G19G 6
  22262761.6314    9470822.61446   7379839.61861
  21058704.0294  -14058510.78647 -10954637.92863
  23535529.2404   -2360643.62145  -1741242.62761
  22568642.959    -4442655.924 6  -3461795.29722
  20682786.9044    -958150.83746   -746608.69563
  22845783.920    -6490238.746 5  -4910137.19021
 91  3 20 23 39 14.9980000  0  6G18G 2G16G11G19G 6
  22271055.9434    9514418.01446   7413809.93961
  21053408.7324  -14086336.69647 -10976320.39463
  23536115.3814   -2357559.07745  -1738839.12361
  22571130.857    -4429588.694 6  -3451613.06322
  20684031.2324    -951610.26446   -741512.14563
  22838802.4364   -6526929.29746  -4938727.09761
 91  3 20 23 39 29.9980000  0  6G18G 2G16G11G19G 6
  22279362.5534    9558065.71146   7447821.00561
  21048126.3034  -14114097.55847 -10997952.16763
  23536724.693    -2354366.066 5  -1736351.09521
  22573642.865    -4416385.982 6  -3441325.26122
  20685284.7724    -945020.92646   -736377.60663
  22831819.7564   -6563628.40146  -4967323.67661
 91  3 20 23 39 44.9980000  0  6G18G 2G16G11G19G 6
  22287680.4824    9601772.85646   7481878.39261
  21042857.7014  -14141785.91347 -11019527.45063
  23537353.5844   -2351057.09645  -1733772.71961
  22576183.740    -4403040.443 6  -3430926.15722
  20686548.9594    -938375.09846   -731199.04163
  22824835.0454   -6600328.51246  -4995921.03361
 91  3 20 23 39 59.9980000  0  6G18G 2G16G11G19G 6
  22296010.139     9645545.770 6   7515987.01821
  21037603.3344  -14169395.00347 -11041040.96763
  23538002.4434   -2347625.76245  -1731098.98061
  22578749.826    -4389545.544 6  -3420410.67722
  20687825.7174    -931666.10246   -725971.25763
  22817852.3734   -6637022.91446  -5024513.96361
 91  3 20 23 40 14.9980000  0  6G18G 2G16G11G19G 6
  22304350.5064    9689372.74946   7550137.79061
  21032362.7254  -14196936.44247 -11062501.76263
  23538678.5294   -2344083.79045  -1728339.04461
  22581344.0614   -4375913.14046  -3409788.05062
  20689112.1624    -924905.69546   -720703.41663
  22810867.303    -6673723.330 5  -5053111.55321
 91  3 20 23 40 29.9980000  0  6G18G 2G16G11G19G 6
  22312702.5614    9733264.35346   7584338.91661
  21027136.9284  -14224399.21747 -11083901.26463
  23539376.912    -2340420.116 5  -1725484.27721
  22583966.8574   -4362132.29046  -3399049.76162
  20690411.9514    -918082.65246   -715386.76963
  22803885.4754   -6710418.69046  -5081705.21861
 91  3 20 23 40 44.9980000  0  6G18G 2G16G11G19G 6
  22321063.8894    9777210.17846   7618582.29061
  21021923.1004  -14251793.80747 -11105247.63563
  23540095.857    -2336645.671 5  -1722543.20821
  22586616.0924   -4348213.42746  -3388203.92062
  20691720.4674    -911207.00946   -710029.13463
  22796899.654    -6747119.257 5  -5110302.92821
 91  3 20 23 40 59.9980000  0  6G18G 2G16G11G19G 6
  22329438.9204    9821219.80346   7652875.37861
  21016724.9984  -14279110.43547 -11126533.25563
  23540835.443    -2332750.845 5  -1719508.32421
  22589291.3424   -4334146.85046  -3377242.97861
  20693040.3504    -904268.85147   -704622.78263
  22789916.5534   -6783815.02445  -5138896.91861
 91  3 20 23 41 14.9980000  0  6G18G 2G16G11G19G 6
  22337825.2174    9865287.76646   7687213.92561
  21011540.3034  -14306354.00047 -11147761.94763
  23541599.7724   -2328740.72345  -1716383.57761
  22591996.4674   -4319937.70846  -3366170.95461
  20694371.3184    -897273.15846   -699171.60463
  22782933.818    -6820511.137 5  -5167491.16021
 91  3 20 23 41 29.9980000  0  6G18G 2G16G11G19G 6
  22346221.670     9909412.801 6   7721596.94121
  21006370.6864  -14333525.67047 -11168934.61263
  23542383.5064   -2324616.58545  -1713170.01061
  22594727.3654   -4305587.31047  -3354988.85262
  20695712.9204    -890220.88446   -693676.33463
  22775950.756    -6857208.635 5  -5196086.48221
 91  3 20 23 41 44.9980000  0  6G18G 2G16G11G19G 6
  22354630.545     9953596.498 6   7756025.66421
  21001212.8424  -14360623.63447 -11190049.84663
  23543191.186    -2320376.555 5  -1709866.12121
  22597485.4044   -4291094.05247  -3343695.43462
  20697066.8654    -883110.21546   -688135.55963
  22768969.209    -6893905.731 5  -5224681.49521
 91  3 20 23 41 59.9980000  0  6G18G 2G16G11G19G 6
  22363051.225     9997839.428 6   7790500.54021
  20996071.5924  -14387647.05047 -11211106.99363
  23544022.4674   -2316020.42745  -1706471.78161
  22600270.1544   -4276457.13947  -3332290.07862
  20698430.9594    -875940.10446   -682548.46863
  22761984.779    -6930601.370 5  -5253275.37621
 91  3 20 23 42 14.9980000  0  6G18G 2G16G11G19G 6
  22371482.139    10042152.322 6   7825029.93621
  20990945.1864  -14414584.66347 -11232097.27963
  23544873.5684   -2311536.63745  -1702977.96761
  22603085.6234   -4261665.53847  -3320764.18762
  20699809.6864    -868699.16346   -676906.18163
  22755002.756    -6967284.436 5  -5281859.46321
 91  3 20 23 42 29.9980000  0  6G18G 2G16G11G19G 6
  22379925.7794   10086519.49146   7859601.62661
  20985832.1704  -14441452.31947 -11253033.04963
  23545748.3974   -2306941.33145  -1699397.26661
  22605925.693    -4246735.295 7  -3309130.26122
  20701196.8034    -861403.17646   -671221.01263
  22748022.9204   -7003970.58345  -5310445.95361
 91  3 20 23 42 44.9980000  0  6G18G 2G16G11G19G 6
  22388379.998    10130947.792 6   7894220.94721
  20980734.8654  -14468242.84747 -11273908.72263
  23546648.225    -2302227.790 5  -1695724.43021
  22608795.0454   -4231659.41447  -3297382.84761
  20702598.7404    -854044.88346   -665487.28563
  22741040.147    -7040652.661 5  -5339029.26021
 91  3 20 23 42 59.9980000  0  6G18G 2G16G11G19G 6
  22396844.7954   10175430.09346   7928882.35261
  20975649.4434  -14494963.12847 -11294729.66063
  23547563.5374   -2297402.68145  -1691964.64361
  22611690.607    -4216444.735 7  -3285527.28322
  20704010.2404    -846630.99346   -659710.23863
  22734059.5534   -7077337.50145  -5367614.71861
 91  3 20 23 43 14.9980000  0  6G18G 2G16G11G19G 6
  22405321.1864   10219974.29546   7963591.99661
  20970579.1004  -14521604.86747 -11315489.39063
  23548504.0454   -2292457.93545  -1688111.64761
  22614613.0294   -4201083.25346  -3273557.32161
  20705432.8264    -839153.27446   -653883.45063
  22727081.928    -7114016.722 6  -5396195.80121
 91  3 20 23 43 29.9980000  0  6G18G 2G16G11G19G 6
  22413808.8344   10264579.02746   7998348.80761
  20965523.8504  -14548168.84047 -11336188.52663
  23549468.9204   -2287395.00245  -1684166.51861
  22617564.9984   -4185576.04146  -3261473.80862
  20706864.7174    -831612.56646   -648007.58363
  22720102.8344   -7150691.26845  -5424773.24961
 91  3 20 23 43 44.9980000  0  6G18G 2G16G11G19G 6
  22422306.131    10309233.296 6   8033144.21321
  20960481.9364  -14574666.08247 -11356835.66263
  23550453.3344   -2282224.90245  -1680137.93261
  22620541.498    -4169933.914 6  -3249285.16721
  20708311.1624    -824019.55446   -642090.95563
  22713120.7874   -7187371.89745  -5453355.43161
 91  3 20 23 43 59.9980000  0  6G18G 2G16G11G19G 6
  22430814.5454   10353941.11146   8067981.34061
  20955453.5374  -14601092.47247 -11377427.59163
  23551455.7094   -2276943.46445  -1676022.54561
  22623544.7954   -4154153.04546  -3236988.41362
  20709769.0534    -816369.81046   -636130.12463
  22706142.2564   -7224054.47245  -5481939.12961
 91  3 20 23 44 14.9980000  0  6G18G 2G16G11G19G 6
  22439332.436    10398699.257 6   8102857.68621
  20950438.0224  -14627451.00947 -11397966.64563
  23552482.4284   -2271553.72845  -1671822.81461
  22626573.592    -4138236.506 7  -3224585.94521
  20711231.8814    -808666.32646   -630127.41763
  22699160.5294   -7260741.89146  -5510526.60461
 91  3 20 23 44 29.9980000  0  6G18G 2G16G11G19G 6
  22447858.545    10443505.618 6   8137771.59521
  20945435.0374  -14653743.41647 -11418454.16663
  23553528.123    -2266057.980 5  -1667540.43521
  22629628.303    -4122186.369 6  -3212079.36921
  20712709.8894    -800910.84546   -624084.19863
  22692177.0534   -7297435.86846  -5539119.17961
 91  3 20 23 44 44.9980000  0  6G18G 2G16G11G19G 6
  22456397.287    10488372.923 6   8172732.99921
  20940445.8894  -14679956.82147 -11438880.13163
  23554598.350    -2260443.733 5  -1663165.73821
  22632709.6154   -4105989.92047  -3199458.79161
  20714197.6864    -793090.50246   -617990.42963
  22685196.389    -7334123.638 6  -5567706.91121
 91  3 20 23 44 59.9980000  0  6G18G 2G16G11G19G 6
  22464946.881    10533300.888 6   8207741.66921
  20935472.7874  -14706091.03547 -11459244.39163
  23555688.5294   -2254710.65445  -1658698.47961
  22635820.0844   -4089647.23047  -3186724.25561
  20715698.0224    -785204.79246   -611845.73463
  22678215.592    -7370804.968 6  -5596289.64621
 91  3 20 23 45 14.9980000  0  6G18G 2G16G11G19G 6
  22473505.2794   10578288.12346   8242796.53861
  20930513.9364  -14732147.44047 -11479548.01263
  23556801.0294   -2248860.33545  -1654139.82561
  22638957.2874   -4073159.52647  -3173876.72861
  20717210.1544    -777254.82746   -605650.96063
  22671236.623    -7407480.955 6  -5624868.21521
 91  3 20 23 45 29.9980000  0  6G18G 2G16G11G19G 6
  22482077.2644   10623324.16046   8277889.42761
  20925568.0614  -14758136.11347 -11499798.86363
  23557936.897    -2242903.004 5  -1649497.79921
  22642120.631    -4056537.028 7  -3160924.15621
  20718730.7254    -769250.65346   -599413.95163
  22664257.420    -7444161.602 6  -5653450.41721
 91  3 20 23 45 44.9980000  0  6G18G 2G16G11G19G 6
  22490657.232    10668406.538 6   8313018.42521
  20920635.7644  -14784059.40747 -11519998.77463
  23559091.482    -2236841.363 5  -1644774.48721
  22645308.490    -4039782.319 6  -3147868.56321
  20720265.7644    -761194.36546   -593136.33763
  22657273.1234   -7480849.30046  -5682038.11761
 91  3 20 23 45 59.9980000  0  6G18G 2G16G11G19G 6
  22499246.303    10713544.862 6   8348191.00321
  20915716.6314  -14809907.41147 -11540140.01263
  23560262.397    -2230665.591 5  -1639962.23521
  22648523.0764   -4022885.86246  -3134702.52261
  20721811.2644    -753076.22246   -586810.52063
  22650293.7874   -7517534.12646  -5710623.57561
 91  3 20 23 46 14.9980000  0  6G18G 2G16G11G19G 6
  22507844.8264   10758735.36046   8383404.25361
  20910811.6074  -14835683.52447 -11560225.23763
  23561458.1704   -2224379.15445  -1635063.76761
  22651765.709    -4005851.017 6  -3121428.64121
  20723366.311     -744899.396 6   -580438.97823
  22643313.5294   -7554219.31246  -5739209.31261
 91  3 20 23 46 29.9980000  0  6G18G 2G16G11G19G 6
  22516454.217    10803976.978 6   8418657.32721
  20905920.1704  -14861388.88847 -11580255.32863
  23562679.154    -2217983.559 5  -1630080.21721
  22655033.5064   -3988679.08046  -3108047.94361
  20724931.9514    -736664.90946   -574022.50363
  22636329.7874   -7590905.94046  -5767796.16061
 91  3 20 23 46 44.9980000  0  6G18G 2G16G11G19G 6
  22525074.514    10849270.166 6   8453950.57221
  20901042.2014  -14887022.28747 -11600229.34463
  23563915.9124   -2211477.72445  -1625010.79561
  22658328.1704   -3971369.03946  -3094559.62761
  20726511.600     -728371.757 6   -567560.32123
  22629349.3654   -7627592.78046  -5796383.19461
 91  3 20 23 46 59.9980000  0  6G18G 2G16G11G19G 6
  22533703.6474   10894613.56146   8489282.97161
  20896178.1934  -14912584.86047 -11620148.17763
  23565174.904    -2204862.820 5  -1619856.37021
  22661647.850    -3953922.225 6  -3080964.73021
  20728103.5684    -720020.73846   -561053.04663
  22622369.4284   -7664280.92046  -5824971.22661
 91  3 20 23 47 14.9980000  0  6G18G 2G16G11G19G 6
  22542341.6544   10940012.17646   8524658.39161
  20891327.4904  -14938071.51547 -11640007.84963
  23566455.951    -2198133.871 5  -1614613.07321
  22664994.865    -3936333.673 7  -3067259.38421
  20729701.6704    -711606.49446   -554496.50363
  22615389.0294   -7700965.20546  -5853556.26061
 91  3 20 23 47 29.9980000  0  6G18G 2G16G11G19G 6
  22550992.037    10985469.123 6   8560079.25821
  20886493.2564  -14963479.19847 -11659805.98463
  23567757.561    -2191288.371 5  -1609278.96321
  22668368.631    -3918600.543 7  -3053441.38321
  20731315.264     -703125.884 6   -547888.24923
  22608408.3424   -7737642.49746  -5882135.85761
 91  3 20 23 47 44.9980000  0  6G18G 2G16G11G19G 6
  22559651.928    11030976.725 6   8595539.59221
  20881671.5924  -14988814.97847 -11679548.09063
  23569080.451    -2184333.669 5  -1603859.77521
  22671769.8894   -3900730.07547  -3039516.37461
  20732941.3504    -694585.94146   -541233.75863
  22601429.9364   -7774319.81146  -5910715.45461
 91  3 20 23 47 59.9980000  0  6G18G 2G16G11G19G 6
  22568322.014    11076538.602 6   8631042.22321
  20876865.4514  -15014074.91747 -11699231.10163
  23570423.889    -2177265.824 5  -1598352.41521
  22675197.5064   -3882718.49647  -3025481.41061
  20734578.982     -685982.472 6   -534529.77023
  22594447.9044   -7810993.12446  -5939291.94961
 91  3 20 23 48 14.9980000  0  6G18G 2G16G11G19G 6
  22577004.287    11122159.070 6   8666590.49221
  20872073.4904  -15039254.68747 -11718851.64563
  23571793.381    -2170080.688 5  -1592753.66621
  22678652.6074   -3864561.73347  -3011333.30861
  20736228.6624    -677311.19646   -527772.93763
  22587472.8114   -7847658.05646  -5967861.90361
 91  3 20 23 48 29.9980000  0  6G18G 2G16G11G19G 6
  22585693.0064   11167826.64546   8702175.48761
  20867294.6074  -15064365.70847 -11738418.61363
  23573179.904    -2162789.436 5  -1587072.21021
  22682133.5924   -3846271.28846  -2997081.04361
  20737888.0534    -668583.26146   -520971.96063
  22580495.365    -7884325.911 6  -5996434.13921
 91  3 20 23 48 44.9980000  0  6G18G 2G16G11G19G 6
  22594393.584    11213542.496 6   8737798.08821
  20862529.7254  -15089406.25347 -11757930.66963
  23574587.9044   -2155390.88445  -1581307.14761
  22685638.9044   -3827845.68246  -2982723.46161
  20739560.9824    -659797.12946   -514125.63263
  22573515.2874   -7920994.95346  -6025007.29661
 91  3 20 23 48 59.9980000  0  6G18G 2G16G11G19G 6
  22603102.670    11259310.124 6   8773461.04221
  20857777.9824  -15114372.26947 -11777384.65063
  23576018.162    -2147881.664 5  -1575455.85421
  22689171.4674   -3809280.95946  -2968257.47861
  20741244.834     -650948.371 6   -507230.50723
  22566538.5764   -7957661.01746  -6053578.13661
 91  3 20 23 49 14.9980000  0  6G18G 2G16G11G19G 6
  22611820.717    11305126.112 6   8809161.67821
  20853040.5684  -15139267.75847 -11796783.67863
  23577469.1864   -2140265.26845  -1569521.05861
  22692731.1154   -3790581.01446  -2953686.12161
  20742940.4044    -642040.72546   -500289.49663
  22559561.787    -7994327.884 6  -6082149.60921
 91  3 20 23 49 29.9980000  0  6G18G 2G16G11G19G 6
  22620550.5454   11350994.09946   8844902.84761
  20848317.975   -15164088.524 7 -11816124.47523
  23578937.0224   -2132537.96345  -1563499.84261
  22696314.8504   -3771741.93846  -2939006.35561
  20744647.5534    -633069.96746   -493299.30463
  22552583.2874   -8030991.30446  -6110718.37961
 91  3 20 23 49 44.9980000  0  6G18G 2G16G11G19G 6
  22629286.2014   11396906.43546   8880678.54461
  20843607.209   -15188841.679 7 -11835412.59423
  23580428.0294   -2124707.06645  -1557397.89561
  22699926.1784   -3752771.19847  -2924223.99261
  20746365.834     -624043.250 6   -486265.51223
  22545605.7644   -8067658.55646  -6139290.13961
 91  3 20 23 49 59.9980000  0  6G18G 2G16G11G19G 6
  22638033.4284   11442873.80446   8916497.14061
  20838911.7324  -15213516.27347 -11854639.49263
  23581939.412    -2116761.768 5  -1551206.79921
  22703563.4124   -3733658.09247  -2909330.69561
  20748095.5454    -614949.51246   -479179.49563
  22538629.3734   -8104318.46446  -6167856.18061
 91  3 20 23 50 14.9980000  0  6G18G 2G16G11G19G 6
  22646789.6624   11488886.64146   8952351.16961
  20834229.5454  -15238121.88047 -11873812.63963
  23583473.3734   -2108712.04645  -1544934.35461
  22707224.818    -3714412.279 7  -2894333.99021
  20749836.9044    -605798.11746   -472048.54863
  22531654.5064   -8140980.65246  -6196424.00061
 91  3 20 23 50 29.9980000  0  6G18G 2G16G11G19G 6
  22655555.1544   11534948.98046   8988243.75461
  20829561.678   -15262653.956 7 -11892928.48823
  23585023.490    -2100553.707 5  -1538577.24421
  22710913.7954   -3695029.51347  -2879230.57461
  20751589.2404    -596584.38846   -464869.02763
  22524676.8894   -8177640.40246  -6224989.91161
 91  3 20 23 50 44.9980000  0  6G18G 2G16G11G19G 6
  22664330.061    11581063.479 6   9024176.98921
  20824908.1314  -15287109.93547 -11911985.03963
  23586600.443    -2092283.893 5  -1532133.28621
  22714628.2484   -3675507.35146  -2864018.53961
  20753356.6624    -587305.66246   -457638.86063
  22517701.7174   -8214295.08846  -6253551.87561
 91  3 20 23 50 59.9980000  0  6G18G 2G16G11G19G 6
  22673114.756    11627224.611 6   9060146.56221
  20820267.600   -15311494.836 7 -11930986.20623
  23588193.1314   -2083908.02445  -1525606.71661
  22718368.2404   -3655850.80646  -2848701.78861
  20755131.904     -577966.637 6   -450361.71023
  22510727.545    -8250949.629 6  -6282113.74521
 91  3 20 23 51 14.9980000  0  6G18G 2G16G11G19G 6
  22681907.170    11673430.497 6   9096151.00521
  20815640.357   -15335810.322 7 -11949933.28423
  23589804.147    -2075428.081 5  -1518999.00221
  22722134.592    -3636061.796 6  -2833281.82421
  20756922.561     -568569.159 6   -443039.01223
  22503752.5614   -8287605.63446  -6310676.73861
 91  3 20 23 51 29.9980000  0  6G18G 2G16G11G19G 6
  22690710.232    11719683.162 6   9132191.91121
  20811026.803   -15360054.291 7 -11968824.63523
  23591441.904    -2066842.117 5  -1512308.69721
  22725926.678    -3616138.414 6  -2817757.15221
  20758721.881     -559110.754 6   -435668.84023
  22496775.897    -8324260.797 6  -6339239.09021
 91  3 20 23 51 44.9980000  0  6G18G 2G16G11G19G 6
  22699519.897    11765983.481 6   9168269.93921
  20806426.436   -15384225.272 7 -11987659.11323
  23593092.772    -2058148.982 5  -1505534.92421
  22729742.5374   -3596079.50346  -2802126.87461
  20760535.342     -549590.140 6   -428250.19423
  22489801.264    -8360913.755 6  -6367799.71921
 91  3 20 23 51 59.9980000  0  6G18G 2G16G11G19G 6
  22708340.451    11812328.731 6   9204382.98621
  20801840.443   -15408326.079 7 -12006438.90823
  23594767.990    -2049351.512 5  -1498679.79421
  22733586.2014   -3575887.87046  -2786393.17561
  20762355.373     -540009.668 6   -420784.90823
  22482825.943    -8397567.040 6  -6396360.60821
 91  3 20 23 52 14.9980000  0  6G18G 2G16G11G19G 6
  22717166.701    11858720.962 6   9240532.63121
  20797266.998   -15432354.567 7 -12025162.35223
  23596461.811    -2040447.501 5  -1491741.66121
  22737453.3654   -3555561.58846  -2770554.55261
  20764192.076     -530367.183 6   -413271.29323
  22475853.2954   -8434218.49546  -6424920.06861
 91  3 20 23 52 29.9980000  0  6G18G 2G16G11G19G 6
  22726005.139    11905159.093 6   9276718.05421
  20792708.982   -15456311.199 7 -12043829.80323
  23598176.8654   -2031437.78745  -1484721.16161
  22741347.2254   -3535101.39046  -2754611.58361
  20766037.217     -520663.213 6   -405709.77223
  22468878.6234   -8470868.54946  -6453478.43461
 91  3 20 23 52 44.9980000  0  6G18G 2G16G11G19G 6
  22734849.756    11951641.785 6   9312938.20121
  20788164.193   -15480197.299 7 -12062442.29423
  23599907.920    -2022323.984 5  -1477619.54921
  22745265.0454   -3514508.65946  -2738565.33261
  20767895.865     -510898.713 6   -398101.09023
  22461904.482    -8507518.423 6  -6482036.66121
 91  3 20 23 52 59.9980000  0  6G18G 2G16G11G19G 6
  22743704.1544   11998165.48046   9349190.27861
  20783631.365   -15504016.175 7 -12081002.40323
  23601665.1234   -2013109.75945  -1470439.71861
  22749208.5924   -3493786.84246  -2722418.49661
  20769764.162     -501076.825 6   -390447.68523
  22454929.209    -8544171.234 6  -6510597.18421
 91  3 20 23 53 14.9980000  0  6G18G 2G16G11G19G 6
  22752566.5374   12044732.19646   9385475.88361
  20779111.170   -15527765.547 7 -12099508.35323
  23603438.2724   -2003793.06545  -1463180.01561
  22753178.4124   -3472934.07346  -2706169.62961
  20771645.865     -491195.343 6   -382747.84023
  22447954.279    -8580824.643 6  -6539158.17321
 91  3 20 23 53 29.9980000  0  6G18G 2G16G11G19G 6
  22761435.787    12091343.631 6   9421796.33921
  20774606.147   -15551443.114 7 -12117958.34723
  23605229.193    -1994372.014 5  -1455838.98221
  22757169.912    -3451948.241 6  -2689817.07821
  20773536.7794    -481251.83646   -374999.66563
  22440980.2484   -8617476.52246  -6567717.96661
 91  3 20 23 53 44.9980000  0  6G18G 2G16G11G19G 6
  22770312.647    12138001.273 6   9458152.80621
  20770113.514   -15575047.221 7 -12136351.10723
  23607040.7644   -1984844.92545  -1448415.32261
  22761190.006    -3430827.805 6  -2673359.63321
  20775441.764     -471244.476 6   -367201.73223
  22434003.998    -8654124.968 6  -6596275.08721
 91  3 20 23 53 59.9980000  0  6G18G 2G16G11G19G 6
  22779201.857    12184706.787 6   9494546.54921
  20765637.061   -15598576.227 7 -12154685.34123
  23608878.5534   -1975210.38745  -1440907.95561
  22765234.8114   -3409571.31146  -2656796.17661
  20777357.975     -461171.420 6   -359352.61523
  22427031.264    -8690768.201 6  -6624828.15321
 91  3 20 23 54 14.9980000  0  6G18G 2G16G11G19G 6
  22788097.1154   12231452.15446   9530971.34861
  20761171.475   -15622037.866 7 -12172967.09023
  23610728.1544   -1965476.18345  -1433322.95661
  22769304.3184   -3388186.64146  -2640132.84061
  20779286.889     -451040.436 6   -351458.35923
  22420057.412    -8727413.878 6  -6653383.11221
 91  3 20 23 54 29.9980000  0  6G18G 2G16G11G19G 6
  22797001.607    12278240.662 6   9567429.79521
  20756721.912   -15645428.804 7 -12191193.74023
  23612601.232    -1955638.966 5  -1425657.62921
  22773398.240    -3366670.641 6  -2623367.16621
  20781225.2644    -440847.89946   -343516.13563
  22413086.0224   -8764058.48546  -6681937.24161
 91  3 20 23 54 44.9980000  0  6G18G 2G16G11G19G 6
  22805912.0924   12325070.77346   9603920.65761
  20752283.1624  -15668750.09547 -12209366.11863
  23614491.568    -1945700.309 5  -1417913.32621
  22777516.834    -3345024.551 6  -2606500.13021
  20783178.068     -430594.674 6   -335526.62123
  22406111.639    -8800702.938 6  -6710491.25021
 91  3 20 23 54 59.9980000  0  6G18G 2G16G11G19G 6
  22814832.490    12371944.229 6   9640445.28621
  20747859.264   -15691999.724 7 -12227482.65623
  23616403.9754   -1935658.33744  -1410088.45761
  22781661.303    -3323246.595 6  -2589530.33721
  20785139.076     -420278.888 6   -327488.36523
  22399139.6474   -8837345.34246  -6739043.65961
 91  3 20 23 55 14.9980000  0  6G18G 2G16G11G19G 6
  22823761.475    12418860.199 6   9677003.04821
  20743447.7484  -15715178.24847 -12245543.79163
  23618334.0534   -1925513.92145  -1402183.77061
  22785830.537    -3301337.459 6  -2572458.33321
  20787115.889     -409900.593 6   -319401.40023
  22392166.6314   -8873985.97646  -6767594.70361
 91  3 20 23 55 29.9980000  0  6G18G 2G16G11G19G 6
  22832696.7564   12465817.57146   9713593.05661
  20739051.154   -15738286.488 7 -12263550.15923
  23620284.9674   -1915267.88145  -1394199.91461
  22790024.842    -3279298.187 6  -2555284.91721
  20789103.865     -399460.737 6   -311266.46823
  22385193.295    -8910625.759 6  -6796145.08321
 91  3 20 23 55 44.9980000  0  6G18G 2G16G11G19G 6
  22841639.7014   12512816.40246   9750215.37361
  20734666.8574  -15761324.09447 -12281501.47963
  23622252.1154   -1904920.42845  -1386137.03861
  22794244.326    -3257128.706 6  -2538010.05621
  20791102.154     -388959.009 6   -303083.32223
  22378220.7644   -8947264.07446  -6824694.33061
 91  3 20 23 55 59.9980000  0  6G18G 2G16G11G19G 6
  22850592.8034   12559857.64546   9786870.73361
  20730295.982   -15784290.206 7 -12299397.10123
  23624239.248    -1894470.675 5
  22798487.053    -3234828.180 6  -2520633.06521
  20793110.662     -378394.133 6
  22371250.857    -8983899.916 6  -6853241.63121
 91  3 20 23 56 14.9980000  0  6G18G 2G16G11G19G 6
  22859551.412    12606935.792 6   9823554.84221
  20725938.311   -15807190.087 7 -12317241.10923
  23626247.5064   -1883924.24745
  22802755.811    -3212402.043 6  -2503158.19921
  20795133.834     -367771.184 6
  22364278.2874   -9020538.33346  -6881790.94961
 91  3 20 23 56 29.9980000  0  5G18G 2G11G19G 6
  22868516.1004   12654054.15446   9860270.29361
  20721593.787   -15830020.084 7 -12335030.66323
  22807047.107    -3189847.044 6  -2485582.92121
  20797167.420     -357086.585 6   -278247.72023
  22357305.975    -9057175.881 6  -6910339.58421
 91  3 20 23 56 44.9980000  0  5G18G 2G11G19G 6
  22877490.2564   12701216.57146   9897020.06561
  20717264.209   -15852775.827 7 -12352762.36023
  22811364.443    -3167158.973 6  -2467903.95021
  20799212.787     -346335.924 6   -269870.59923
  22350336.647    -9093808.042 6  -6938884.01721
 91  3 20 23 56 59.9980000  0  5G18G 2G11G19G 6
  22886473.7954   12748419.06946   9933801.08961
  20712946.303   -15875461.231 7 -12370439.24823
  22815706.4674   -3144341.92446  -2450124.47161
  20801271.818     -335522.838 6   -261444.83423
  22343364.2644   -9130438.49846  -6967427.13261
 91  3 20 23 57 14.9980000  0  5G18G 2G11G19G 6
  22895464.428    12795662.167 6   9970613.75721
  20708643.178   -15898075.724 7 -12388060.88223
  22820072.990    -3121395.419 6  -2432244.12921
  20803339.061     -324646.602 6   -252969.86223
  22336393.6234   -9167066.65046  -6995968.45361
 91  3 20 23 57 29.9980000  0  5G18G 2G11G19G 6
  22904462.084    12842944.797 6  10007457.19821
  20704352.787   -15920619.979 7 -12405627.78523
  22824464.568    -3098320.458 6  -2414263.68821
  20805422.084     -313707.774 6   -244446.12023
  22329424.1544   -9203693.01646  -7024508.39061
 91  3 20 23 57 44.9980000  0  5G18G 2G11G19G 6
  22913465.7644   12890264.34346  10044329.42061
  20700076.561   -15943096.384 7 -12423141.82223
  22828879.842    -3075119.609 6  -2396185.15621
  20807514.631     -302708.651 6   -235875.39923
  22322453.2174   -9240319.95446  -7053048.76961
 91  3 20 23 57 59.9980000  0  5G18G 2G11G19G 6
  22922479.123    12937624.263 6  10081233.11221
  20695812.451   -15965501.165 7 -12440600.04923
  22833317.662    -3051789.267 6  -2378005.71821
  20809617.967     -291645.481 6   -227254.76823
  22315488.3424   -9276943.55746  -7081586.55461
 91  3 20 23 58 14.9980000  0  5G18G 2G11G19G 6
  22931499.8654   12985020.16246  10118164.83261
  20691562.428   -15987838.450 8 -12458005.68023
  22837781.865    -3028333.847 6  -2359728.81921
  20811736.561     -280522.126 6   -218587.23523
  22308513.404    -9313567.852 6  -7110124.86021
 91  3 20 23 58 29.9980000  0  5G18G 2G11G19G 6
  22940525.514    13032456.011 6  10155127.66421
  20687325.639   -16010104.160 8 -12475355.53223
  22842269.740    -3004749.457 6  -2341351.41521
  20813863.568     -269334.546 6   -209869.65823
  22301545.2724   -9350188.64746  -7138660.45561
 91  3 20 23 58 44.9980000  0  5G18G 2G11G19G 6
  22949559.6314   13079928.26346  10192118.87161
  20683100.639   -16032301.634 7 -12492652.21823
  22846781.897    -2981039.564 6  -2322876.21821
  20816005.904     -258085.737 6   -201104.36523
  22294579.139    -9386809.117 6  -7167195.78021
 91  3 20 23 58 59.9980000  0  5G18G 2G11G19G 6
  22958600.389    13127435.238 6  10229137.14921
  20678889.350   -16054432.365 7 -12509896.88923
  22851318.373    -2957205.765 6  -2304304.47421
  20818156.350     -246776.899 6   -192292.29923
  22287608.803    -9423430.620 6  -7195731.91421
 91  3 20 23 59 14.9980000  0  5G18G 2G11G19G 6
  22967645.998    13174978.005 6  10266183.31421
  20674691.568   -16076495.009 7 -12527088.50723
  22855876.1784   -2933246.98846  -2285635.33961
  20820320.225     -235406.626 6   -183432.36723
  22280641.4514   -9460051.62446  -7224267.65561
 91  3 20 23 59 29.9980000  0  5G18G 2G11G19G 6
  22976701.2254   13222557.95146  10303258.44461
  20670505.318   -16098487.721 7 -12544225.63423
  22860459.764    -2909161.792 6  -2266867.70421
  20822499.404     -223973.240 6   -174523.24523
  22273670.545    -9496670.356 6  -7252801.62321
 91  3 20 23 59 44.9980000  0  5G18G 2G11G19G 6
  22985761.912    13270171.971 6  10340360.10921
  20666333.217   -16120413.618 7 -12561310.69823
  22865066.732    -2884953.307 6  -2248003.99921
  20824683.506     -212479.465 6   -165567.08023
  22266703.170    -9533289.613 6  -7281335.99421
 91  3 20 23 59 59.9980000  0  5G18G 2G11G19G 6
  22994829.7954   13317821.80246  10377489.69361
  20662174.139   -16142270.393 7 -12578341.89823
  22869696.709    -2860619.618 6  -2229042.73221
  20826882.381     -200923.150 6   -156562.17923
  22259735.607    -9569907.270 6  -7309869.12621
 91  3 21  0  0 14.9980000  0  5G18G 2G11G19G 6
  23003902.865    13365505.036 6  10414645.32421
  20658027.662   -16164060.545 7 -12595321.18723
  22874352.576    -2836163.336 6  -2209985.93521
  20829091.498     -189306.623 6   -147510.36123
  22252767.428    -9606525.558 6  -7338402.74721
 91  3 21  0  0 29.9980000  0  5G18G 2G11G19G 6
  23012982.7254   13413223.89146  10451828.68961
  20653894.615   -16185781.424 7 -12612246.49923
  22879029.920    -2811581.967 6  -2190831.67121
  20831317.639     -177626.854 6   -138409.25923
  22245800.225    -9643141.680 6  -7366934.68221
 91  3 21  0  0 44.9980000  0  5G18G 2G11G19G 6
  23022073.3734   13460981.16646  10489041.99761
  20649775.162   -16207430.123 7 -12629115.56623
  22883731.107    -2786872.757 6  -2171577.79021
  20833550.607     -165880.784 6   -129256.50123
  22238830.904    -9679752.650 6  -7395462.60521
 91  3 21  0  0 59.9980000  0  5G18G 2G11G19G 6
  23031167.623    13508770.037 6  10526279.93921
  20645668.279   -16229013.235 7 -12645933.52423
  22888455.576    -2762042.540 6  -2152229.61721
  20835797.147     -154074.998 6   -120057.20223
  22231865.4204   -9716364.81446  -7423991.44561
 91  3 21  0  1 14.9980000  0  5G18G 2G11G19G 6
  23040266.4984   13556590.58746  10563542.55261
  20641573.272   -16250530.322 7 -12662700.03823
  22893203.209    -2737091.227 6  -2132787.08121
  20838055.373     -142209.210 6   -110811.14623
  22224898.748    -9752977.892 6  -7452521.00921
 91  3 21  0  1 29.9980000  0  5G18G 2G11G19G 6
  23049371.2874   13604439.38046  10600827.16861
  20637491.209   -16271984.621 7 -12679417.62523
  22897975.654    -2712022.118 6  -2113252.76321
  20840326.084     -130286.124 6   -101520.44623
  22217930.451    -9789594.794 6  -7481053.55121
 91  3 21  0  1 44.9980000  0  5G18G 2G11G19G 6
  23058483.4284   13652325.58646  10638140.94261
  20633421.904   -16293366.735 7 -12696078.96523
  22902770.068    -2686826.126 6  -2093619.58121
  20842605.779     -118296.311 6    -92177.75223
  22210962.647    -9826206.059 6  -7509581.70221
 91  3 21  0  1 59.9980000  0  5G18G 2G11G19G 6
  23067602.0684   13700241.51846  10675477.87061
  20629364.998   -16314684.077 7 -12712689.83623
  22907586.842    -2661510.793 6  -2073893.40421
  20844898.967     -106247.002 6    -82788.69723
  22203995.373    -9862818.861 6  -7538111.05621
 91  3 21  0  2 14.9980000  0  5G18G 2G11G19G 6
  23076727.795    13748188.368 5  10712838.88821
  20625321.084   -16335935.471 7 -12729249.31823
  22912427.842    -2636075.282 6  -2054073.57421
  20847202.842      -94137.030 6    -73352.37023
  22197026.990    -9899432.007 6  -7566640.66421
 91  3 21  0  2 29.9980000  0  5G18G 2G11G19G 6
  23085857.600    13796167.650 5  10750225.16421
  20621290.897   -16357118.883 7 -12745755.82923
  22917291.397    -2610517.767 6  -2034158.68121
  20849520.670      -81964.172 6    -63867.04623
  22190061.256    -9936043.253 6  -7595168.80721
 91  3 21  0  2 44.9980000  0  5G18G 2G11G19G 6
  23094993.4044   13844175.64646  10787633.84861
  20617271.709   -16378237.773 7 -12762212.05723
  22922175.959    -2584841.864 6  -2014151.54521
  20851846.982      -69731.796 6    -54335.34323
  22183093.5844   -9972656.01146  -7623698.12361
 91  3 21  0  2 59.9980000  0  5G18G 2G11G19G 6
  23104133.9514   13892212.60845  10825065.09661
  20613264.553   -16399291.862 7 -12778617.79623
  22927086.592    -2559047.261 6  -1994051.90921
  20854186.990      -57439.416 6    -44756.88523
  22176127.772   -10009269.755 6  -7652228.20121
 91  3 21  0  3 14.9980000  0  5G18G 2G11G19G 6
  23113280.568    13940283.639 5  10862522.89721
  20609271.311   -16420275.762 7 -12794968.83923
  22932017.756    -2533128.870 6  -1973855.81721
  20856537.154      -45081.407 6    -35127.28323
  22169161.022   -10045878.954 6  -7680754.74921
 91  3 21  0  3 29.9980000  0  5G18G 2G11G19G 6
  23122432.811    13988380.304 5  10900000.63721
  20605289.232   -16441197.712 7 -12811271.61623
  22936971.154    -2507095.349 6  -1953570.01521
  20858901.264      -32665.992 6    -25452.95623
  22162194.2404  -10082491.90646  -7709284.21861
 91  3 21  0  3 44.9980000  0  5G18G 2G11G19G 6
  23131589.5764   14036500.81145  10937496.98561
  20601320.209   -16462058.980 7 -12827527.10323
  22941946.717    -2480948.303 6  -1933195.74821
  20861273.561      -20194.485 6    -15734.91823
  22155225.850   -10119109.775 6  -7737817.52121
 91  3 21  0  3 59.9980000  0  5G18G 2G11G19G 6
  23140754.0294   14084652.67645  10975017.76061
  20597363.865   -16482852.259 7 -12843729.61423
  22946946.8184   -2454680.45946  -1912727.35661
  20863660.076       -7659.422 6     -5967.35923
  22148258.0534  -10155725.05046  -7766348.80261
 91  3 21  0  4 14.9980000  0  5G18G 2G11G19G 6
  23149922.3574   14132832.32445  11012560.18361
  20593419.764   -16503580.408 7 -12859881.36923
  22951965.982    -2428295.060 6  -1892167.35821
  20866055.920        4936.326 6      3847.49023
  22141289.412   -10192340.548 6  -7794880.25721
 91  3 21  0  4 29.9980000  0  5G18G 2G11G19G 6
  23159096.889    14181037.958 5  11050122.85721
  20589486.811   -16524245.192 7 -12875983.75223
  22957010.5294   -2401793.84446  -1871517.11961
  20868464.201       17591.493 6     13708.63823
  22134322.1784  -10228957.66046  -7823412.96961
 91  3 21  0  4 44.9980000  0  5G18G 2G11G19G 6
  23168276.2954   14229272.76645  11087708.24061
  20585566.389   -16544843.295 7 -12892034.17623
  22962076.850    -2375173.901 6  -1850774.36121
  20870885.037       30309.591 6     23618.82223
  22127352.3424  -10265573.08346  -7851944.37561
 91  3 21  0  4 59.9980000  0  5G18G 2G11G19G 6
  23177460.436    14277535.635 5  11125315.50521
  20581659.311   -16565375.669 7 -12908033.38523
  22967164.178    -2348436.302 6  -1829939.92321
  20873317.475       43089.495 6     33577.16423
  22120386.8344  -10302187.51946  -7880475.01161
 91  3 21  0  5 14.9980000  0  5G18G 2G11G19G 6
  23186647.154    14325819.295 5  11162938.96921
  20577764.272   -16585849.111 7 -12923986.67123
  22972274.1234   -2321588.13446  -1809019.33261
  20875757.842       55924.748 6     43578.64223
  22113417.6074  -10338807.69246  -7909010.11061
 91  3 21  0  5 29.9980000  0  5G18G 2G11G19G 6
  23195841.9984   14374130.84345  11200584.15061
  20573879.865   -16606256.188 7 -12939888.24723
  22977403.9754   -2294622.32746  -1788007.07661
  20878215.029       68822.752 6     53629.01223
  22106450.7014  -10375426.20246  -7937543.92561
 91  3 21  0  5 44.9980000  0  5G18G 2G11G19G 6
  23205041.107    14422478.028 5  11238257.13121
  20570010.693   -16626589.034 7 -12955731.98123
  22982560.9594   -2267531.01446  -1766897.02261
  20880681.865       81791.487 6     63734.49223
  22099482.022   -10412034.916 6  -7966070.09021
 91  3 21  0  5 59.9980000  0  5G18G 2G11G19G 6
  23214247.6074   14470848.62446  11275948.34861
  20566153.897   -16646859.623 7 -12971527.20223
  22987737.1314   -2240326.45946  -1745698.72961
  20883161.076       94819.091 6     73885.86123
  22092515.8974  -10448645.57246  -7994597.78261
 91  3 21  0  6 14.9980000  0  5G18G 2G11G19G 6
  23223454.709    14519239.855 5  11313655.64321
  20562307.334   -16667070.536 7 -12987275.92223
  22992936.0614   -2213011.43646  -1724414.35261
  20885650.037      107903.161 6     84081.21523
  22085548.8894  -10485260.79046  -8023129.03261
 91  3 21  0  6 29.9980000  0  5G18G 2G11G19G 6
  23232667.8034   14567654.84745  11351381.43761
  20558474.1624  -16687218.45648 -13002975.56263
  22998154.4044   -2185582.97346  -1703041.59461
  20888151.850      121047.180 6     94323.28523
  22078579.9674  -10521876.99646  -8051661.05161
 91  3 21  0  6 44.9980000  0  5G18G 2G11G19G 6
  23241887.2094   14616095.30846  11389127.07461
  20554651.9434  -16707301.47048 -13018624.62463
  23003396.240    -2158039.209 6  -1681578.99521
  20890664.2094     134253.27346    104613.72063
  22071610.7324  -10558492.12246  -8080192.22161
 91  3 21  0  6 59.9980000  0  5G18G 2G11G19G 6
  23251108.318    14664561.662 6  11426892.91021
  20550842.490   -16727318.752 8 -13034222.46423
  23008660.5614   -2130379.68946  -1660026.18261
  20893188.795      147522.393 6    114953.26823
  22064646.9364  -10595105.24646  -8108721.83961
 91  3 21  0  7 14.9980000  0  5G18G 2G11G19G 6
  23260335.6234   14713049.03846  11464675.13961
  20547045.232   -16747275.226 8 -13049772.91723
  23013942.9754   -2102609.42046  -1638387.07961
  20895724.623      160849.703 6    125338.16223
  22057677.1934  -10631721.00046  -8137253.49961
 91  3 21  0  7 29.9980000  0  5G18G 2G11G19G 6
  23269566.3424   14761559.80546  11502475.55761
  20543259.061   -16767168.244 7 -13065273.92723
  23019250.8654   -2074726.07746  -1616659.86561
  20898274.5294     174237.83146    135770.44063
  22050708.6074  -10668336.80546  -8165785.20461
 91  3 21  0  7 44.9980000  0  5G18G 2G11G19G 6
  23278804.1934   14810095.12346  11540295.10861
  20539486.834   -16786996.328 8 -13080724.34423
  23024579.4204   -2046728.31946  -1594843.49761
  20900832.459      187688.495 6    146251.45423
  22043743.162   -10704950.933 6  -8194315.60321
 91  3 21  0  7 59.9980000  0  5G18G 2G11G19G 6
  23288044.162    14858648.834 6  11578128.99921
  20535724.6474  -16806765.42847 -13096128.79463
  23029926.2794   -2018622.41846  -1572942.85961
  20903405.607      201195.749 6    156776.55523
  22036774.7014  -10741569.23946  -8222849.26261
 91  3 21  0  8 14.9980000  0  5G18G 2G11G19G 6
  23297284.9594   14907220.45846  11615976.85761
  20531973.959   -16826475.809 7 -13111487.48623
  23035293.9594   -1990408.73646  -1550958.23661
  20905984.201      214759.695 6    167345.84223
  22029803.5764  -10778191.75346  -8251386.18661
 91  3 21  0  8 29.9980000  0  5G18G 2G11G19G 6
  23306533.3814   14955815.62346  11653843.05561
  20528235.045   -16846121.464 7 -13126795.74323
  23040685.8424   -1962081.70646  -1528885.29161
  20908577.014      228386.369 6    177964.00623
  22022834.2484  -10814812.41846  -8279921.67761
 91  3 21  0  8 44.9980000  0  5G18G 2G11G19G 6
  23315786.225    15004441.627 5  11691733.29421
  20524510.818   -16865694.865 7 -13142047.70023
  23046097.6624   -1933633.98646  -1506718.30761
  20911184.092      242083.528 6    188637.09023
  22015868.8114  -10851423.54446  -8308449.73561
 91  3 21  0  8 59.9980000  0  5G18G 2G11G19G 6
  23325044.0064   15053090.41145  11729641.26261
  20520797.709   -16885204.053 8 -13157249.61623
  23051536.4124   -1905073.79146  -1484463.67061
  20913805.240      255843.117 6    199358.82623
  22008901.170   -10888032.915 6  -8336976.41721
 91  3 21  0  9 14.9980000  0  5G18G 2G11G19G 6
  23334304.4674   15101759.62845  11767565.16661
  20517097.318   -16904651.245 8 -13172403.22323
  23056989.4364   -1876403.59746  -1462123.32461
  20916431.592      269663.134 6    210127.65023
  22001935.5684  -10924642.62046  -8365503.36061
 91  3 21  0  9 29.9980000  0  5G18G 2G11G19G 6
  23343573.9904   15150450.62145  11805506.04161
  20513407.803   -16924034.665 7 -13187507.14023
  23062467.0534   -1847621.79146  -1439696.00661
  20919078.131      283545.376 6    220944.96323
  21994969.1004  -10961250.88746  -8394029.18861
 91  3 21  0  9 44.9980000  0  5G18G 2G11G19G 6
  23352842.139    15199163.445 5  11843463.91221
  20509732.990   -16943353.981 8 -13202561.10123
  23067966.0454   -1818728.22446  -1417181.59961
  20921726.451      297490.452 6    231811.23823
  21988003.5144  -10997857.02546  -8422553.35161
 91  3 21  0  9 59.9980000  0  5G18G 2G11G19G 6
  23362116.022    15247895.407 5  11881436.71421
  20506067.568   -16962611.679 7 -13217567.05323
  23073483.7794   -1789725.47246  -1394582.12161
  20924395.834      311496.034 6    242724.66023
  21981036.5144  -11034463.26746  -8451077.60061
 91  3 21  0 10 14.9980000  0  5G18G 2G11G19G 6
  23371395.6474   15296650.68445  11919427.69461
  20502415.373   -16981803.452 8 -13232521.63623
  23079024.3814   -1760609.66046  -1371894.54761
  20927069.467      325566.521 6    253688.65723
  21974072.1074  -11071065.30946  -8479598.57561
 91  3 21  0 10 29.9980000  0  5G18G 2G11G19G 6
  23380675.647    15345422.303 5  11957431.39921
  20498774.295   -17000935.772 8 -13247429.88923
  23084585.4904   -1731387.62646  -1349124.20761
  20929758.139      339695.593 6    264698.30223
  21967107.6394  -11107669.56146  -8508121.27161
 91  3 21  0 10 44.9980000  0  5G18G 2G11G19G 6
  23389959.3894   15394211.96845  11995449.15661
  20495145.889   -17020007.124 8 -13262290.63723
  23090167.9514   -1702058.07446  -1326270.06961
  20932459.295      353884.750 6    275754.76723
  21960141.0844  -11144274.29846  -8536644.33661
 91  3 21  0 10 59.9980000  0  5G18G 2G11G19G 6
  23399248.162    15443021.299 5  12033482.23121
  20491528.225   -17039015.331 8 -13277102.18323
  23095769.7094   -1672619.06646  -1303330.65061
  20935172.451      368136.169 6    286859.74623
  21953175.2014  -11180877.26246  -8565166.03261
 91  3 21  0 11 14.9980000  0  5G18G 2G11G19G 6
  23408537.787    15491847.439 5  12071528.41221
  20487923.381   -17057963.137 8 -13291866.65923
  23101392.8344   -1643073.44146  -1280308.14961
  20937893.607      382447.576 6    298011.47223
  21946208.397   -11217480.914 6  -8593688.25321
 91  3 21  0 11 29.9980000  0  5G18G 2G11G19G 6
  23417833.3814   15540690.03245  12109587.41661
  20484328.678   -17076850.735 8 -13306584.21923
  23107035.4594   -1613421.80546  -1257203.04361
  20940628.686      396818.820 6    309209.82523
  21939245.248   -11254085.301 6  -8622211.05421
 91  3 21  0 11 44.9980000  0  5G18G 2G11G19G 6
  23427131.693    15589549.553 5  12147659.61721
  20480746.115   -17095677.529 8 -13321254.40423
  23112697.2484   -1583663.62046  -1234014.90561
  20943375.568      411250.587 6    320455.34023
  21932277.717   -11290689.599 6  -8650733.78121
 91  3 21  0 11 59.9980000  0  5G18G 2G11G19G 6
  23436431.9674   15638429.12345  12185747.44161
  20477175.209   -17114440.040 8 -13335874.49923
  23118379.584    -1553795.767 6  -1210741.31121
  20946138.584      425746.321 6    331750.69923
  21925313.631   -11327290.407 6  -8679253.78321
 91  3 21  0 12 14.9980000  0  5G18G 2G11G19G 6
  23445736.9674   15687326.96245  12223849.49261
  20473616.803   -17133139.483 8 -13350445.45423
  23124084.0374   -1523819.68246  -1187383.38961
  20948904.311      440305.180 6    343095.24723
  21918349.1154  -11363888.63446  -8707771.78461
 91  3 21  0 12 29.9980000  0  5G18G 2G11G19G 6
  23455043.5224   15736238.51045  12261962.20161
  20470070.029   -17151780.521 8 -13364970.89323
  23129809.2564   -1493740.22046  -1163944.91461
  20951685.373      454922.564 6    354485.39723
  21911383.959   -11400488.742 6  -8736291.24921
 91  3 21  0 12 44.9980000  0  5G18G 2G11G19G 6
  23464356.279    15785167.928 5  12300088.86921
  20466534.022   -17170358.742 8 -13379447.38723
  23135553.0064   -1463553.35546  -1140422.75161
  20954479.834      469602.870 6    365924.58023
  21904420.2564  -11437086.15446  -8764808.61561
 91  3 21  0 12 59.9980000  0  5G18G 2G11G19G 6
  23473669.2794   15834111.34445  12338226.43461
  20463010.8654  -17188877.77148 -13393877.75763
  23141317.9594   -1433262.87846  -1116819.84761
  20957287.842      484342.654 6    377410.10523
  21897456.6004  -11473684.45146  -8793326.67161
 91  3 21  0 13 14.9980000  0  5G18G 2G11G19G 6
  23482987.3264   15883066.38345  12376373.06661
  20459497.3894  -17207339.72848 -13408263.66163
  23147100.670    -1402871.072 6  -1093137.99121
  20960099.873      499139.989 6    388940.47223
  21890490.443   -11510285.445 6  -8821846.81921
 91  3 21  0 13 29.9980000  0  5G18G 2G11G19G 6
  23492305.639    15932035.023 5  12414530.27521
  20455995.1004  -17225742.43848 -13422603.39263
  23152904.0224   -1372376.11746  -1069375.76161
  20962926.982      513996.905 6    400517.26923
  21883524.725   -11546886.933 6  -8850367.35821
 91  3 21  0 13 44.9980000  0  5G18G 2G11G19G 6
  23501625.7404   15981013.47345  12452695.12461
  20452503.6154  -17244089.46048 -13436899.73763
  23158725.8114   -1341781.64946  -1045535.97061
  20965766.522      528910.399 6    412138.15923
  21876559.4284  -11583492.12046  -8878890.79161
 91  3 21  0 13 59.9980000  0  5G18G 2G11G19G 6
  23510949.2094   16030006.73145  12490871.51361
  20449023.3734  -17262375.70248 -13451148.72063
  23164567.7174   -1311082.88346  -1021614.92561
  20968616.662      543885.601 6    423807.13023
  21869593.4434  -11620095.71246  -8907412.96661
 91  3 21  0 14 14.9980000  0  5G18G 2G11G19G 6
  23520275.9824   16079015.64845  12529060.10761
  20445555.5844  -17280599.80448 -13465349.28163
  23170429.3184   -1280278.80446   -997611.81861
  20971476.639      558923.822 6    435525.20923
  21862628.4594  -11656696.41946  -8935932.89161
 91  3 21  0 14 29.9980000  0  5G18G 2G11G19G 6
  23529604.1864   16128038.06745  12567259.22961
  20442099.2794  -17298763.57048 -13479502.83463
  23176309.8344   -1249371.45646   -973528.22861
  20974351.850      574023.388 6    447291.08523
  21855664.1074  -11693295.85946  -8964451.85061
 91  3 21  0 14 44.9980000  0  5G18G 2G11G19G 6
  23538935.3814   16177076.28745  12605470.67361
  20438654.9754  -17316864.86848 -13493607.70463
  23182213.6544   -1218358.80446   -949362.59261
  20977235.467      589186.660 6    459106.60723
  21848701.0614  -11729891.63546  -8992967.93861
 91  3 21  0 14 59.9980000  0  5G18G 2G11G19G 6
  23548270.529    16226125.863 5  12643690.93221
  20435221.9434  -17334908.08048 -13507667.31763
  23188134.3264   -1187245.56646   -925118.56661
  20980133.764      604409.388 6    470968.45823
  21841734.7254  -11766487.88846  -9021484.40161
 91  3 21  0 15 14.9980000  0  5G18G 2G11G19G 6
  23557605.1864   16275187.49645  12681920.62161
  20431799.0064  -17352891.88748 -13521680.64063
  23194074.0374   -1156030.74546   -900795.38961
  20983039.662      619692.888 6    482877.66123
  21834772.6074  -11803083.38646  -9050000.28661
 91  3 21  0 15 29.9980000  0  5G18G 2G11G19G 6
  23566942.147    16324255.066 5  12720154.91021
  20428387.2484  -17370822.25748 -13535652.32063
  23200031.904    -1124720.592 6   -876397.92621
  20985960.615      635031.416 6    494829.74323
  21827806.3814  -11839683.79446  -9078519.98261
 91  3 21  0 15 44.9980000  0  5G18G 2G11G19G 6
  23576281.803    16373337.149 5  12758400.52721
  20424987.3894  -17388690.13348 -13549575.30463
  23206009.4514   -1093306.30146   -851919.31261
  20988890.451      650434.071 6    506831.79623
  21820842.701   -11876279.960 6  -9107036.37621
 91  3 21  0 15 59.9980000  0  5G18G 2G11G19G 6
  23585626.0294   16422429.93245  12796654.48461
  20421598.0614  -17406499.26148 -13563452.51263
  23212006.459    -1061791.706 6   -827362.54021
  20991833.6784     665897.34046    518881.08463
  21813879.3574  -11912875.23646  -9135552.07261
 91  3 21  0 16 14.9970000  0  5G18G 2G11G19G 6
  23594969.634    16471535.777 5  12834918.60121
  20418221.0874  -17424242.82248 -13577278.63063
  23218023.3374   -1030173.63546   -802725.14761
  20994787.821      681426.056 6    530981.36623
  21806917.7744  -11949461.50946  -9164060.76261
 91  3 21  0 16 29.9970000  0  5G18G 2G11G19G 6
  23604319.1034   16520657.40745  12873195.03261
  20414855.8144  -17441926.98348 -13591058.46263
  23224060.4934    -998451.71546   -778006.83461
  20997757.462      697018.622 6    543131.40123
  21799953.8374  -11986046.98146  -9192568.82261
 91  3 21  0 16 44.9970000  0  5G18G 2G11G19G 6
  23613667.267    16569791.505 5  12911481.18321
  20411502.6814  -17459550.27248 -13604790.86263
  23230115.1494    -966628.13146   -753209.30061
  21000734.814      712674.211 6    555330.54723
  21792991.9934  -12022628.97546  -9221074.18161
 91  3 21  0 16 59.9970000  0  5G18G 2G11G19G 6
  23623019.126    16618937.766 5  12949776.79221
  20408160.2514  -17477112.60548 -13618475.76363
  23236189.9154    -934703.15246   -728332.75661
  21003726.923      728393.031 6    567578.95723
  21786033.4234  -12059207.26046  -9249576.64561
 91  3 21  0 17 14.9970000  0  5G18G 2G11G19G 6
  23632371.298    16668089.717 5  12988076.88021
  20404829.1964  -17494620.21748 -13632118.02563
  23242284.1034    -902683.29146   -703382.28261
  21006728.095      744168.877 6    579871.80323
  21779071.4464  -12095787.95446  -9278080.98461
 91  3 21  0 17 29.9970000  0  5G18G 2G11G19G 6
  23641726.220    16717251.935 5  13026384.91021
  20401508.6104  -17512068.14748 -13645713.78063
  23248395.9314    -870563.78846   -678354.16261
  21009742.173      760007.101 6    592213.26123
  21772110.5404  -12132365.90246  -9306583.19261
 91  3 21  0 17 44.9970000  0  5G18G 2G11G19G 6
  23651085.6034   16766423.65545  13064700.37261
  20398199.3294  -17529457.13048 -13659263.60163
  23254527.9704    -838345.58646   -653249.13261
  21012768.196      775906.947 6    604602.73323
  21765150.6104  -12168941.60846  -9335083.65061
 91  3 21  0 17 59.9970000  0  5G18G 2G11G19G 6
  23660444.142    16815603.626 5  13103022.25821
  20394901.5644  -17546788.19748 -13672768.29763
  23260674.978     -806030.000 6   -628068.21221
  21015805.454      791867.676 6    617039.64323
  21758191.0874  -12205515.94446  -9363583.03861
 91  3 21  0 18 14.9970000  0  5G18G 2G11G19G 6
  23669806.4464   16864787.03145  13141346.81861
  20391613.7354  -17564065.98348 -13686231.47563
  23266843.5094    -773621.82446   -602815.14861
  21018854.314      807884.666 6    629520.39523
  21751229.845   -12242093.241 6  -9392084.73321
 91  3 21  0 18 29.9970000  0  5G18G 2G11G19G 6
  23679164.782    16913979.576 5  13179678.52221
  20388336.8214  -17581284.44148 -13699648.41863
  23273029.946     -741115.316 6   -577485.45021
  21021912.196      823964.192 6    642049.87723
  21744271.6814  -12278667.28946  -9420583.89261
 91  3 21  0 18 44.9970000  0  5G18G 2G11G19G 6
  23688527.993    16963180.620 5  13218016.81621
  20385071.8374  -17598443.91848 -13713019.39963
  23279235.2594    -708511.12246   -552079.64761
  21024983.899      840105.922 6    654627.82423
  21737309.4314  -12315238.31246  -9449080.69561
 91  3 21  0 18 59.9970000  0  5G18G 2G11G19G 6
  23697892.157    17012391.811 5  13256363.05221
  20381816.8994  -17615542.73348 -13726343.11763
  23285459.2434    -675807.75046   -526596.55661
  21028069.923      856311.679 6    667255.66323
  21730353.1964  -12351804.31346  -9477573.59261
 91  3 21  0 19 14.9970000  0  5G18G 2G11G19G 6
  23707257.860    17061609.032 5  13294713.96021
  20378575.2744  -17632584.86048 -13739622.66163
  23291699.345     -643009.416 6   -501039.47221
  21031163.353      872577.733 6    679930.49123
  21723395.3374  -12388369.20646  -9506065.61861
 91  3 21  0 19 29.9970000  0  5G18G 2G11G19G 6
  23716626.1574   17110834.43845  13333071.23361
  20375342.7354  -17649567.93348 -13752856.18463
  23297959.376     -610113.992 6   -475406.74621
  21034270.524      888906.466 6    692654.16123
  21716435.8994  -12424930.43746  -9534554.79361
 91  3 21  0 19 44.9970000  0  5G18G 2G11G19G 6
  23725998.1184   17160073.03645  13371438.80061
  20372123.3604  -17666486.35048 -13766039.32863
  23304237.7354    -577116.28546   -449694.31561
  21037392.298      905303.376 6    705430.95123
  21709482.1734  -12461482.24046  -9563036.61861
 91  3 21  0 19 59.9970000  0  5G18G 2G11G19G 6
  23735368.8924   17209317.97945  13409811.30561
  20368914.8294  -17683347.03748 -13779177.48763
  23310536.1814    -544023.35046   -423907.68361
  21040522.884      921761.947 6    718255.78923
  21702526.2354  -12498031.32546  -9591516.34161
 91  3 21  0 20 14.9970000  0  4G 2G11G19G 6
  20365718.0324  -17700150.13248 -13792270.77263
  23316850.1574    -510835.59146   -398047.15261
  21043667.134      938282.104 6    731128.62423
  21695571.5564  -12534577.72646  -9619993.95961
 91  3 21  0 20 29.9970000  0  4G 2G11G19G 6
  20362531.970   -17716892.109 8 -13805316.42523
  23323185.6574    -477549.69546   -372110.16161
  21046825.610      954867.461 6    744052.25423
  21688618.3844  -12571117.46746  -9648466.39761
 91  3 21  0 20 44.9970000  0  4G 2G11G19G 6
  20359356.3454  -17733581.14348 -13818320.82663
  23329535.7904    -444174.06346   -346103.24461
  21049989.759      971509.881 6    757020.35523
  21681664.1264  -12607658.64346  -9676939.95161
 91  3 21  0 20 59.9970000  0  4G 2G11G19G 6
  20356191.2204  -17750210.91848 -13831279.05163
  23335905.2674    -410702.89146   -320021.86861
  21053169.610      988215.744 6    770037.88723
  21674712.4154  -12644194.88646  -9705409.66161
 91  3 21  0 21 14.9970000  0  4G 2G11G19G 6
  20353038.821   -17766781.017 8 -13844190.77323
  23342292.5094    -377136.11146   -293866.00961
  21056360.165     1004985.642 6    783105.31923
  21667759.1184  -12680725.74346  -9733875.17261
 91  3 21  0 21 29.9970000  0  4G 2G11G19G 6
  20349895.6894  -17783294.76248 -13857058.58863
  23348697.5174    -343477.02746   -267638.22161
  21059566.485     1021816.572 6    796220.30423
  21660808.1574  -12717253.99446  -9762338.65261
 91  3 21  0 21 44.9970000  0  4G 2G11G19G 6
  20346763.501   -17799752.366 8 -13869882.65223
  23355122.454     -309726.019 6   -241338.80721
  21062777.946     1038708.475 6    809382.80223
  21653858.5564  -12753779.63046  -9790800.09561
 91  3 21  0 21 59.9970000  0  4G 2G11G19G 6
  20343642.8214  -17816153.51548 -13882662.73063
  23361561.5324    -275883.01446   -214967.69961
  21066006.751     1055661.666 6    822593.06022
  21646908.2434  -12790302.25846  -9819259.19261
 91  3 21  0 22 14.9970000  0  4G 2G11G19G 6
  20340533.2514  -17832492.57348 -13895394.42563
  23368018.540     -241942.883 6   -188520.91321
  21069241.978     1072681.872 6    835855.53123
  21639960.5404  -12826816.12246  -9847711.46561
 91  3 21  0 22 29.9970000  0  4G 2G11G19G 6
  20337434.9934  -17848773.60748 -13908080.90463
  23374497.7824    -207909.79946   -162001.69561
  21072498.142     1089765.178 6    849167.17623
  21633013.2594  -12863324.95346  -9876159.81561
 91  3 21  0 22 44.9970000  0  4G 2G11G19G 6
  20334345.462   -17865007.131 8 -13920730.36523
  23380988.1734    -173794.44546   -135418.37061
  21075753.571     1106901.165 6    862519.86823
  21626065.017   -12899838.977 6  -9904612.21721
 91  3 21  0 22 59.9970000  0  4G 2G11G19G 6
  20331266.470   -17881187.962 8 -13933338.76123
  23387496.7204    -139591.85246   -108767.06761
  21079025.907     1124095.176 6    875917.77523
  21619116.2984  -12936352.89346  -9933064.53061
 91  3 21  0 23 14.9970000  0  4G 2G11G19G 6
  20328197.6654  -17897311.92948 -13945902.85263
  23394023.1574    -105298.48046    -82045.03161
  21082310.642     1141351.280 6    889364.06623
  21612168.7744  -12972862.52846  -9961513.50861
 91  3 21  0 23 29.9970000  0  4G 2G11G19G 6
  20325141.5174  -17913377.35648 -13958421.32463
  23400566.431      -70912.748 6    -55251.02221
  21085605.446     1158671.320 6    902860.17723
  21605222.3064  -13009365.94146  -9989957.63761
 91  3 21  0 23 44.9970000  0  4G 2G11G19G 6
  20322094.9544  -17929384.36948 -13970894.28263
  23407126.524      -36435.197 6    -28385.47021
  21088912.298     1176055.327 6    916406.13222
  21598278.157   -13045863.143 7 -10018396.93121
 91  3 21  0 23 59.9970000  0  4G 2G11G19G 6
  20319060.0014  -17945334.93548 -13983323.25363
  23413703.759       -1867.836 6     -1449.94921
  21092234.024     1193501.670 6    930000.65923
  21591331.782   -13082355.743 6 -10046832.64121
 91  3 21  0 24 14.9970000  0  4G 2G11G19G 6
  20316036.1184  -17961223.76548 -13995704.12163
  23420300.4154      32794.36446     25559.49561
  21095565.2284    1211015.81146    943648.01263
  21584388.907   -13118838.112 6 -10075260.37521
 91  3 21  0 24 29.9970000  0  4G 2G11G19G 6
  20313023.7904  -17977052.03548 -14008037.79963
  23426914.259       67549.881 6     52641.65021
  21098915.8294    1228596.52246    957347.24163
  21577450.556   -13155311.501 6 -10103681.11522
 91  3 21  0 24 44.9970000  0  4G 2G11G19G 6
  20310023.9074  -17992822.27748 -14020326.26463
  23433544.571      102395.854 6     79794.26921
  21102270.0564    1246241.29546    971096.38862
  21570508.4784  -13191778.10446 -10132096.56361
 91  3 21  0 24 59.9970000  0  4G 2G11G19G 6
  20307034.3294  -18008527.89948 -14032564.37463
  23440196.462      137338.711 6    107022.40221
  21105641.1814    1263956.87646    984900.71262
  21563572.8604  -13228231.09446 -10160501.40361
 91  3 21  0 25 14.9970000  0  4G 2G11G19G 6
  20304056.2354  -18024178.22348 -14044759.39363
  23446861.149      172368.800 6    134318.49721
  21109022.8374    1281734.01146    998752.99262
  21556635.985   -13264679.647 6 -10188902.79121
 91  3 21  0 25 29.9970000  0  4G 2G11G19G 6
  20301089.3994  -18039773.49648 -14056911.51463
  23453545.2904     207485.57446    161682.15361
  21112420.954     1299572.575 6   1012653.14822
  21549702.5714  -13301123.82946 -10217300.76861
 91  3 21  0 25 44.9970000  0  4G 2G11G19G 6
  20298131.7744  -18055312.45148 -14069019.75563
  23460242.485      242690.126 6    189114.18821
  21115825.1034    1317473.99146   1026602.27562
  21542767.673   -13337562.062 6 -10245694.11721
 91  3 21  0 25 59.9970000  0  4G 2G11G19G 6
  20295183.8604  -18070800.29748 -14081088.16763
  23466957.4314     277976.94846    216610.34361
  21119243.7514    1335433.19446   1040596.43462
  21535833.274   -13373999.455 6 -10274086.80921
 91  3 21  0 26 14.9970000  0  4G 2G11G19G 6
  20292248.4234  -18086226.88048 -14093108.84163
  23473691.165      313356.006 6    244178.37721
  21122672.6034    1353460.60146   1054643.73462
  21528902.274   -13410425.647 6 -10302470.76821
 91  3 21  0 26 29.9970000  0  4G 2G11G19G 6
  20289324.1034  -18101595.74648 -14105084.54663
  23480439.970      348823.379 6    271815.22921
  21126117.4784    1371552.63346   1068741.39262
  21521971.478   -13446843.773 6 -10330848.44621
 91  3 21  0 26 44.9970000  0  4G 2G11G19G 6
  20286410.2824  -18116906.02148 -14117014.58663
  23487205.579      384379.629 6    299521.31521
  21129571.626     1389710.200 6   1082890.11922
  21515042.837   -13483253.066 7 -10359219.24421
 91  3 21  0 26 59.9970000  0  4G 2G11G19G 6
  20283507.2904  -18132159.92748 -14128900.71463
  23493987.3144     420022.37146    327294.81461
  21133039.087     1407931.362 6   1097088.40122
  21508116.985   -13519655.305 7 -10387584.53921
 91  3 21  0 27 14.9970000  0  4G 2G11G19G 6
  20280616.3064  -18147355.17748 -14140741.13863
  23500789.376      455753.850 6    355137.46121
  21136518.0484    1426218.59846   1111338.16762
  21501191.657   -13556047.866 6 -10415942.29921
 91  3 21  0 27 29.9970000  0  4G 2G11G19G 6
  20277734.6734  -18162493.87448 -14152537.49463
  23507603.9704     491571.52646    383047.26861
  21140012.7434    1444569.70446   1125637.70162
  21494266.853   -13592432.693 6 -10444294.03221
 91  3 21  0 27 44.9970000  0  4G 2G11G19G 6
  20274865.2744  -18177577.34448 -14164290.81463
  23514434.3064     527473.76246    411022.96461
  21143515.3994    1462983.54546   1139986.11662
  21487344.978   -13628810.914 7 -10472640.62321
 91  3 21  0 27 59.9970000  0  4G 2G11G19G 6
  20272005.8764  -18192600.93848 -14175997.48463
  23521285.8534     563464.93646    439067.97461
  21147033.3064    1481464.87846   1154387.12562
  21480424.228   -13665177.695 7 -10500978.29521
 91  3 21  0 28 14.9970000  0  4G 2G11G19G 6
  20269159.6894  -18207560.70448 -14187654.41463
  23528151.5794     599548.68446    467185.10561
  21150562.2044    1500017.79946   1168843.91662
  21473506.767   -13701529.000 7 -10529303.91421
 91  3 21  0 28 29.9970000  0  4G 2G11G19G 6
  20266323.3604  -18222464.04848 -14199267.38363
  23535036.274      635717.473 6    495368.51021
  21154105.3764    1518635.07346   1183350.86262
  21466592.345   -13737871.763 6 -10557622.86721
 91  3 21  0 28 44.9970000  0  4G 2G11G19G 6
  20263498.5714  -18237308.60248 -14210834.54163
  23541932.2904     671973.16146    523619.60761
  21157660.532     1537319.128 6   1197909.83522
  21459678.274   -13774203.798 7 -10585933.47021
 91  3 21  0 28 59.9970000  0  4G 2G11G19G 6
  20260684.0324  -18252097.89048 -14222358.63263
  23548850.743      708311.987 6    551935.50921
  21161230.4154    1556066.23746   1212517.94562
  21452764.267   -13810528.285 7 -10614238.18721
 91  3 21  0 29 14.9970000  0  4G 2G11G19G 6
  20257881.1494  -18266825.06948 -14233834.32763
  23555780.735      744740.629 6    580321.38721
  21164807.2044    1574883.59246   1227180.79062
  21445855.532   -13846838.102 7 -10642531.47721
 91  3 21  0 29 29.9970000  0  4G 2G11G19G 6
  20255089.6424  -18281498.45248 -14245268.10063
  23562728.806      781250.600 6    608770.63921
  21168402.173     1593763.090 6   1241892.06522
  21438946.431   -13883141.228 7 -10670819.56121
 91  3 21  0 29 44.9970000  0  4G 2G11G19G 6
  20252306.720   -18296116.615 8 -14256658.85123
  23569692.3844     817842.99946    637284.12261
  21172007.1424    1612706.14046   1256652.85462
  21432039.9234  -13919436.01647 -10699101.13861
 91  3 21  0 29 59.9970000  0  4G 2G11G19G 6
  20249537.767   -18310671.798 8 -14268000.52723
  23576674.251      854525.265 6    665867.62421
  21175625.524     1631720.692 6   1271469.36622
  21425134.962   -13955714.612 7 -10727370.09921
 91  3 21  0 30 14.9970000  0  4G 2G11G19G 6
  20246779.829   -18325164.094 8 -14279293.20023
  23583668.681      891297.043 5    694520.88121
  21179256.829     1650806.819 6   1286341.65322
  21418235.040   -13991976.861 7 -10755626.32521
 91  3 21  0 30 29.9970000  0  4G 2G11G19G 6
  20244034.649   -18339593.297 8 -14290536.71023
  23590687.892      928158.283 6    723243.84221
  21182903.821     1669964.866 6   1301269.97022
  21411338.454   -14028222.289 7 -10783869.44321
 91  3 21  0 30 44.9970000  0  4G 2G11G19G 6
  20241298.564   -18353970.175 8 -14301739.45023
  23597714.439      965097.941 6    752027.91421
  21186558.0874    1689184.11646   1316245.98362
  21404441.993   -14064461.401 7 -10812107.63221
 91  3 21  0 30 59.9970000  0  4G 2G11G19G 6
  20238573.587   -18368287.898 8 -14312896.09223
  23604762.071     1002122.681 6    780878.29321
  21190231.556     1708471.451 6   1331275.04622
  21397547.892   -14100687.102 7 -10840335.38021
 91  3 21  0 31 14.9970000  0  4G 2G11G19G 6
  20235859.814   -18382548.382 8 -14324008.13923
  23611820.064     1039230.120 5    809793.09021
  21193914.149     1727825.056 6   1346355.75322
  21390657.3924  -14136901.34847 -10868554.20461
 91  3 21  0 31 29.9970000  0  4G 2G11G19G 6
  20233158.478   -18396749.446 8 -14335073.87423
  23618898.384     1076422.139 5    838773.80221
  21197609.8064    1747247.06646   1361489.75762
  21383768.1424  -14173101.55747 -10896762.08661
 91  3 21  0 31 44.9970000  0  4G 2G11G19G 6
  20230466.509   -18410891.165 8 -14346093.37223
  23625993.774     1113698.406 5    867820.17621
  21201317.5174    1766737.40946   1376677.00562
  21376883.2744  -14209287.72147 -10924959.02761
 91  3 21  0 31 59.9970000  0  4G 2G11G19G 6
  20227785.603   -18424980.346 8 -14357071.92923
  23633100.7594    1151052.01445    896926.81061
  21205038.6574    1786289.75146   1391912.56762
  21369997.6734  -14245466.27346 -10953150.03561
 91  3 21  0 32 14.9970000  0  4G 2G11G19G 6
  20225115.274   -18439015.723 8 -14368008.56123
  23640225.048     1188484.004 5    926094.52121
  21208770.3294    1805905.40646   1407197.46462
  21363115.251   -14281635.533 7 -10981333.79921
 91  3 21  0 32 29.9970000  0  4G 2G11G19G 6
  20222455.399   -18452993.508 8 -14378900.31623
  23647358.189     1225997.707 5    955325.88821
  21212517.407     1825588.271 6   1422534.73822
  21356234.610   -14317791.722 6 -11009507.37721
 91  3 21  0 32 44.9970000  0  4G 2G11G19G 6
  20219807.407   -18466904.305 8 -14389739.87323
  23654517.532     1263602.445 5    984628.20421
  21216277.2514    1845347.83146   1437931.76762
  21349358.118   -14353925.047 6 -11037663.13921
 91  3 21  0 32 59.9970000  0  4G 2G11G19G 6
  20217171.8924  -18480755.20048 -14400532.74963
  23661689.087     1301290.626 5   1013995.53221
  21220054.1734    1865176.99946   1453383.03762
  21342485.673   -14390042.590 6 -11065806.60221
 91  3 21  0 33 14.9970000  0  4G 2G11G19G 6
  20214546.970   -18494549.503 8 -14411281.53724
  23668877.6034    1339058.76145   1043425.15861
  21223837.9934    1885072.66346   1468886.12562
  21335615.134   -14426147.273 7 -11093940.04421
 91  3 21  0 33 29.9970000  0  4G 2G11G19G 6
  20211933.6264  -18508286.79448 -14421985.88764
  23676077.7204    1376907.05345   1072917.25061
  21227635.7434    1905035.46646   1484441.52662
  21328746.298   -14462238.399 7 -11122062.92121
 91  3 21  0 33 44.9970000  0  4G 2G11G19G 6
  20209329.3994  -18521966.53948 -14432645.39964
  23683298.2594    1414835.72546   1102471.96661
  21231445.7514    1925065.95246   1500049.66362
  21321881.056   -14498315.303 7 -11150174.72122
 91  3 21  0 33 59.9970000  0  4G 2G11G19G 6
  20206738.7204  -18535583.09648 -14443255.67264
  23690528.9704    1452850.18045   1132093.53261
  21235275.5404    1945169.83546   1515714.99562
  21315020.923   -14534372.020 7 -11178270.78121
 91  3 21  0 34 14.9970000  0  4G 2G11G19G 6
  20204158.9234  -18549139.47548 -14453819.05564
  23697780.423     1490946.946 6   1161779.25521
  21239112.5174    1965344.09346   1531435.16162
  21308162.001   -14570411.524 7 -11206353.43221
 91  3 21  0 34 29.9970000  0  4G 2G11G19G 6
  20201589.0714  -18562645.63448 -14464343.30063
  23705044.4704    1529115.88346   1191521.18861
  21242965.6264    1985578.87446   1547202.49462
  21301305.548   -14606443.392 6 -11234430.13321
 91  3 21  0 34 44.9970000  0  4G 2G11G19G 6
  20199029.1424  -18576095.93148 -14474824.02163
  23712321.5404    1567362.42746   1221323.63161
  21246826.1654    2005880.09946   1563021.59162
  21294449.939   -14642461.729 7 -11262496.28822
 91  3 21  0 34 59.9970000  0  4G 2G11G19G 6
  20196480.1964  -18589491.05048 -14485261.74663
  23719613.259     1605685.623 6   1251185.78621
  21250703.4314    2026247.05246   1578891.91462
  21287598.618   -14678467.017 7 -11290552.28021
 91  3 21  0 35 14.9970000  0  4G 2G11G19G 6
  20193941.7594  -18602829.02648 -14495654.94163
  23726922.8534    1644087.10946   1281108.94361
  21254589.0564    2046681.87946   1594815.12362
  21280751.829   -14714457.073 7 -11318596.40621
 91  3 21  0 35 29.9970000  0  4G 2G11G19G 6
  20191414.8534  -18616109.06448 -14506002.99763
  23734245.368     1682567.223 6   1311093.37421
  21258490.3294    2067185.34946   1610791.81962
  21273905.673   -14750430.897 7 -11346627.87422
 91  3 21  0 35 44.9970000  0  4G 2G11G19G 6
  20188899.4314  -18629328.68148 -14516303.96763
  23741581.931     1721128.314 6   1341140.90621
  21262406.5324    2087760.11946   1626824.07862
  21267062.618   -14786385.675 7 -11374644.50522
 91  3 21  0 35 59.9970000  0  4G 2G11G19G 6
  20186395.524   -18642484.747 8 -14526555.42223
  23748935.8924    1759773.08346   1371253.65161
  21266335.6814    2108409.24346   1642914.27162
  21260225.1104  -14822318.19347 -11402643.78062
 91  3 21  0 36 14.9970000  0  4G 2G11G19G 6
  20183903.4544  -18655581.81448 -14536760.89563
  23756306.821     1798496.879 6   1401427.97021
  21270278.0014    2129128.43446   1659059.06462
  21253391.0094  -14858232.64447 -11430628.97262
 91  3 21  0 36 29.9970000  0  4G 2G11G19G 6
  20181421.7824  -18668620.99148 -14546921.26663
  23763687.5644    1837298.33645   1431662.80961
  21274233.7674    2149916.73446   1675257.70162
  21246561.267   -14894129.889 7 -11458600.77022
 91  3 21  0 36 44.9970000  0  3G 2G19G 6
  20178950.8764  -18681602.78548 -14557036.92163
  21278202.8684    2170773.93346   1691510.03162
  21239733.048   -14930010.055 7 -11486559.26722
 91  3 21  0 36 59.9970000  0  3G 2G19G 6
  20176493.157   -18694523.696 8 -14567105.13623
  21282191.7824    2191703.51646   1707818.75962
  21232908.759   -14965869.458 7 -11514501.58122
 91  3 21  0 37 14.9970000  0  3G 2G19G 6
  20174045.181   -18707386.464 8 -14577128.04823
  21286181.3534    2212702.89046   1724181.86962
  21226088.032   -15001710.523 7 -11542429.60322
 91  3 21  0 37 29.9970000  0  3G 2G19G 6
  20171608.3684  -18720191.98748 -14587106.34863
  21290190.9624    2233771.20746   1740598.70462
  21219270.392   -15037534.155 7 -11570344.04422
 91  3 21  0 37 44.9970000  0  3G 2G19G 6
  20169182.2984  -18732937.32248 -14597037.75163
  21294214.2984    2254911.17346   1757071.36762
  21212457.306   -15073337.223 7 -11598242.45422
 91  3 21  0 37 59.9970000  0  3G 2G19G 6
  20166767.8454  -18745627.17748 -14606925.92063
  21298252.4854    2276118.28946   1773596.34962
  21205648.071   -15109124.109 7 -11626128.25722
 91  3 21  0 38 14.9970000  0  3G 2G19G 6
  20164364.0954  -18758259.06448 -14616768.91763
  21302298.3144    2297395.35046   1790175.84162
  21198841.3994  -15144891.87947 -11653999.15862
 91  3 21  0 38 29.9970000  0  3G 2G19G 6
  20161970.4544  -18770835.75348 -14626568.90663
  21306361.3214    2318739.58246   1806807.68262
  21192037.165   -15180643.129 7 -11681857.18822
 91  3 21  0 38 44.9970000  0  3G 2G19G 6
  20159588.3144  -18783352.37848 -14636322.09363
  21310436.0794    2340155.87846   1823495.65862
  21185238.329   -15216372.962 7 -11709698.53722
 91  3 21  0 38 59.9970000  0  3G 2G19G 6
  20157216.134   -18795815.466 8 -14646033.56224
  21314524.4154    2361637.71846   1840234.72862
  21178442.915   -15252087.540 7 -11737528.00122
 91  3 21  0 39 14.9970000  0  3G 2G19G 6
  20154857.814   -18808218.485 8 -14655698.22824
  21318625.2044    2383192.01346   1857030.24262
  21171650.5484  -15287780.16747 -11765340.37262
 91  3 21  0 39 29.9970000  0  3G 2G19G 6
  20152507.720   -18820563.815 8 -14665317.94624
  21322741.6264    2404816.33846   1873880.32562
  21164862.228   -15323452.738 7 -11793137.11122
 91  3 21  0 39 44.9970000  0  3G 2G19G 6
  20150170.009   -18832850.480 8 -14674891.95024
  21326869.5954    2426511.76846   1890785.81762
  21158078.157   -15359103.965 7 -11820917.20422
 91  3 21  0 39 59.9970000  0  3G 2G19G 6
  20147841.274   -18845082.083 8 -14684423.05324
  21331011.024     2448274.676 6   1907743.88422
  21151297.337   -15394737.549 7 -11848683.55422
 91  3 21  0 40 14.9970000  0  3G 2G19G 6
  20145524.853   -18857259.984 8 -14693912.30623
  21335164.720     2470103.792 6   1924753.53922
  21144519.790   -15430354.337 7 -11876436.81522
 91  3 21  0 40 29.9970000  0  3G 2G19G 6
  20143218.993   -18869375.601 8 -14703353.03024
  21339333.189     2492007.768 6   1941821.52722
  21137746.071   -15465945.658 7 -11904170.23922
 91  3 21  0 40 44.9970000  0  3G 2G19G 6
  20140924.032   -18881435.660 8 -14712750.45323
  21343513.103     2513980.043 6   1958942.73722
  21130976.681   -15501517.934 7 -11931888.82222
 91  3 21  0 40 59.9970000  0  3G 2G19G 6
  20138640.681   -18893438.864 8 -14722103.57923
  21347708.4394    2536022.01246   1976118.25862
  21124210.2744  -15537069.58547 -11959591.33962
 91  3 21  0 41 14.9970000  0  4G15G 2G19G 6
  23474375.7284         -0.89555
  20136366.470   -18905382.734 8 -14731410.47023
  21351916.243     2558136.220 6   1993350.06822
  21117451.4394  -15572597.82647 -11987275.61462
 91  3 21  0 41 29.9970000  0  4G15G 2G19G 6
  23468079.9934     -33118.63845
  20134105.439   -18917265.445 8 -14740669.70624
  21356139.8994    2580324.71546   2010639.76362
  21110694.7124  -15608100.64747 -12014940.08362
 91  3 21  0 41 44.9970000  0  4G15G 2G19G 6
  23461790.2674     -66161.46445
  20131855.626   -18929092.232 8 -14749885.36224
  21360374.8684    2602582.26046   2027983.26862
  21103942.6104  -15643583.06447 -12042588.64662
 91  3 21  0 41 59.9970000  0  4G15G 2G19G 6
  23455516.3604     -99126.76444        -0.03271
  20129615.079   -18940861.139 8 -14759055.91823
  21364623.7434    2624910.96046   2045382.21762
  21097194.6494  -15679042.81347 -12070219.55462
 91  3 21  0 42 14.9970000  0  4G15G 2G19G 6
  23449260.657     -132011.692 4    -25624.55821
  20127387.048   -18952569.669 8 -14768179.42624
  21368887.7124    2647313.39546   2062838.62262
  21090451.2354  -15714477.03747 -12097830.56762
 91  3 21  0 42 29.9970000  0  4G15G 2G19G 6
  23443015.6964    -164819.15044    -51188.71961
  20125170.274   -18964221.502 8 -14777258.75524
  21373162.6654    2669786.02646   2080349.72362
  21083713.314   -15749889.153 7 -12125424.35122
 91  3 21  0 42 44.9970000  0  4G15G 2G19G 6
  23436785.0954    -197556.13144    -76697.94361
  20122963.157   -18975823.705 8 -14786299.41424
  21377450.6734    2692321.53546   2097909.83162
  21076977.2044  -15785286.18447 -12153006.38262
 91  3 21  0 42 59.9970000  0  4G15G 2G19G 6
  23430577.431     -230213.062 5   -102144.79021
  20120766.251   -18987367.105 8 -14795294.24624
  21381754.4704    2714929.36046   2115526.27862
  21070245.587   -15820658.576 7 -12180569.21222
 91  3 21  0 43 14.9970000  0  4G15G 2G19G 6
  23424374.8844    -262790.03545   -127529.37561
  20118580.017   -18998852.030 8 -14804243.51624
  21386068.923     2737609.333 6   2133198.94522
  21063518.868   -15856006.293 7 -12208112.81822
 91  3 21  0 43 29.9970000  0  4G15G 2G19G 6
  23418187.759     -295290.864 5   -152854.59621
  20116405.064   -19010282.715 8 -14813150.52024
  21390398.9154    2760357.30446   2150924.59562
  21056796.064   -15891333.459 7 -12235640.40322
 91  3 21  0 43 44.9970000  0  4G15G 2G19G 6
  23412011.665     -327707.993 4   -178114.61921
  20114241.579   -19021652.056 8 -14822009.72324
  21394740.8214    2783180.43546   2168708.81462
  21050079.696   -15926632.751 7 -12263146.26522
 91  3 21  0 43 59.9970000  0  4G15G 2G19G 6
  23405869.142     -360047.113 5   -203313.85121
  20112088.915   -19032966.272 8 -14830825.97324
  21399096.017     2806072.344 6   2186546.61922
  21043366.9624  -15961910.23347 -12290635.14362
 91  3 21  0 44 14.9970000  0  4G15G 2G19G 6
  23399727.798     -392302.599 5   -228447.92321
  20109947.181   -19044220.377 8 -14839595.37924
  21403467.415     2829038.308 6   2204442.14122
  21036658.0324  -15997160.52447 -12318102.83562
 91  3 21  0 44 29.9970000  0  4G15G 2G19G 6
  23393605.017     -424469.915 5   -253513.25221
  20107816.915   -19055410.336 8 -14848314.80024
  21407853.009     2852082.609 6   2222398.68522
  21029956.7124  -16032379.24747 -12345545.92562
 91  3 21  0 44 44.9970000  0  4G15G 2G19G 6
  23387496.228     -456563.137 5   -278520.89421
  20105697.392   -19066550.392 8 -14856995.34023
  21412251.5794    2875190.87946   2240405.09362
  21023257.181   -16067580.399 7 -12372975.32622
 91  3 21  0 44 59.9970000  0  4G15G 2G19G 6
  23381406.509     -488570.632 5   -303461.70721
  20103589.540   -19077629.444 8 -14865628.34423
  21416662.8214    2898374.45646   2258470.17662
  21016564.0564  -16102752.55047 -12400382.12762
 91  3 21  0 45 14.9970000  0  4G15G 2G19G 6
  23375330.868     -520496.613 5   -328339.00321
  20101491.657   -19088651.951 8 -14874217.29024
  21421087.4544    2921628.92346   2276590.50162
  21009876.4624  -16137900.07147 -12427769.74762
 91  3 21  0 45 29.9970000  0  4G15G 2G19G 6
  23369274.5484    -552331.89245   -353145.60461
  20099406.978   -19099609.173 8 -14882755.36323
  21425531.0874    2944962.83346   2294772.73262
  21003193.5014  -16173013.84947 -12455131.06462
 91  3 21  0 45 44.9970000  0  4G15G 2G19G 6
  23363232.4464    -584083.25345   -377886.82461
  20097332.501   -19110508.424 8 -14891248.26423
  21429981.4704    2968369.06946   2313011.32262
  20996517.0324  -16208100.97247 -12482471.61462
 91  3 21  0 45 59.9970000  0  4G15G 2G19G 6
  23357208.0564    -615750.00544   -402562.11461
  20095269.626   -19121349.488 8 -14899695.82723
  21434448.1104    2991847.89046   2331306.46662
  20989845.3994  -16243160.91247 -12509790.98462
 91  3 21  0 46 14.9970000  0  4G15G 2G19G 6
  23351194.985     -647327.853 5   -427168.14121
  20093217.876   -19132128.465 8 -14908095.00923
  21438930.985     3015403.217 6   2349661.22622
  20983180.2354  -16278189.59247 -12537085.99562
 91  3 21  0 46 29.9970000  0  4G15G 2G19G 6
  23345198.3924    -678831.79444   -451716.59061
  20091176.032   -19142860.853 8 -14916457.88523
  21443429.0174    3039019.97146   2368063.85262
  20976516.6964  -16313202.18447 -12564368.47562
 91  3 21  0 46 44.9970000  0  4G15G 2G19G 6
  23339221.6734    -710250.97644   -476198.95061
  20089144.259   -19153536.364 8 -14924776.44624
  21447932.103     3062708.607 6   2386522.48122
  20969859.1424  -16348188.06047 -12591630.13062
 91  3 21  0 46 59.9970000  0  4G15G 2G19G 6
  23333261.524     -741584.859 5   -500614.84621
  20087124.079   -19164154.719 8 -14933050.47024
  21452458.181     3086469.004 6   2405037.03422
  20963207.2354  -16383146.83147 -12618870.67062
 91  3 21  0 47 14.9970000  0  5G15G 2G13G19G 6
  23327313.0644    -772832.93145   -524963.89261
  20085114.103   -19174715.785 8 -14941279.85124
  23234958.4934         -0.27755
  21456989.462     3110301.621 6   2423607.86022
  20956559.7434  -16418077.91947 -12646089.63762
 91  3 21  0 47 29.9970000  0  5G15G 2G13G19G 6
  23321385.079     -803998.405 5   -549248.56721
  20083114.587   -19185223.159 8 -14949467.39324
  23222394.8374     -66026.30845
  21461540.149     3134202.903 6   2442232.19222
  20949916.8844  -16452984.79847 -12673289.74362
 91  3 21  0 47 44.9970000  0  5G15G 2G13G19G 6
  23315469.1654    -835075.65545   -573464.51961
  20081126.134   -19195671.652 8 -14957609.05524
  23209834.9854    -132020.14545
  21466100.306     3158178.117 6   2460914.13922
  20943280.0404  -16487861.94847 -12700466.68562
 91  3 21  0 47 59.9970000  0  5G15G 2G13G19G 6
  23309575.8924    -866068.40745   -597614.61361
  20079148.399   -19206065.370 8 -14965708.03524
  23197283.9394    -197985.57445
  21470676.399     3182223.258 6   2479650.56022
  20936647.3064  -16522713.13347 -12727623.39362
 91  3 21  0 48 14.9970000  0  5G15G 2G13G19G 6
  23303689.110     -896972.118 5   -621695.32221
  20077181.478   -19216400.286 8 -14973761.20124
  23184735.454     -263918.006 5
  21475264.696     3206342.286 6   2498444.56122
  20930021.2744  -16557534.11747 -12754756.56362
 91  3 21  0 48 29.9970000  0  5G15G 2G13G19G 6
  23297827.868     -927791.365 5   -645710.23121
  20075225.540   -19226681.305 8 -14981772.36324
  23172194.6104    -329822.03645
  21479870.009     3230530.364 6   2517292.37422
  20923400.1184  -16592329.58447 -12781869.84562
 91  3 21  0 48 44.9970000  0  5G15G 2G13G19G 6
  23291974.759     -958527.163 5   -669660.08421
  20073279.728   -19236910.126 8 -14989742.85824
  23159657.0174    -395698.59945
  21484484.837     3254786.002 6   2536192.81822
  20916782.8684  -16627100.76647 -12808964.20562
 91  3 21  0 48 59.9970000  0  5G15G 2G13G19G 6
  23286144.5484    -989172.43045   -693539.41961
  20071343.798   -19247079.789 8 -14997667.25524
  23147127.829     -461540.434 5        -0.18331
  21489112.610     3279116.154 6   2555151.33122
  20910172.7124  -16661840.58247 -12836034.13062
 91  3 21  0 49 14.9970000  0  5G15G 2G13G19G 6
  23280328.9704   -1019731.22845   -717351.34061
  20069419.751   -19257194.662 8 -15005548.95724
  23134604.853     -527351.717 5    -51281.38021
  21493758.220     3303516.326 6   2574164.40722
  20903567.1034  -16696553.31047 -12863082.94862
 91  3 21  0 49 29.9970000  0  5G15G 2G13G19G 6
  23274529.665    -1050200.138 5   -741093.25821
  20067505.696   -19267252.056 8 -15013385.87024
  23122089.5014    -593129.00145   -102536.14061
  21498419.009     3327989.582 6   2593234.43322
  20896966.6034  -16731235.71047 -12890108.13662
 91  3 21  0 49 44.9970000  0  5G15G 2G13G19G 6
  23268748.415    -1080579.328 5   -764765.23921
  20065601.860   -19277252.557 8 -15021178.44624
  23109574.3684    -658872.35745   -153764.39661
  21503086.939     3352535.480 6   2612361.05522
  20890372.8144  -16765888.21147 -12917110.02862
 91  3 21  0 49 59.9970000  0  5G15G 2G13G19G 6
  23262986.087    -1110866.592 5   -788365.57821
  20063710.290   -19287194.221 8 -15028925.17424
  23097072.3534    -724579.46445   -204964.43961
  21507770.571     3377155.889 6   2631545.74522
  20883785.1814  -16800508.57347 -12944086.86962
 91  3 21  0 50 14.9970000  0  5G15G 2G13G19G 6
  23257239.7284   -1141061.53945   -811894.03461
  20061830.165   -19297076.862 8 -15036625.90824
  23084575.1654    -790249.67845   -256135.71361
  21512471.743     3401851.009 6   2650788.64522
  20877202.7674  -16835096.35847 -12971038.32962
 91  3 21  0 50 29.9970000  0  5G15G 2G13G19G 6
  23251512.9314   -1171165.61745   -835351.64461
  20059960.110   -19306902.471 8 -15044282.20424
  23072085.571     -855884.701 5   -307279.60021
  21517187.056     3426618.856 6   2670088.21822
  20870626.8684  -16869653.31847 -12997965.76862
 91  3 21  0 50 44.9970000  0  5G15G 2G13G19G 6
  23245802.9394   -1201184.44645   -858742.82661
  20058100.126   -19316677.411 8 -15051899.01824
  23059602.4314    -921490.53745   -358400.70061
  21521909.931     3451453.305 6   2689439.68722
  20864056.2354  -16904185.40647 -13024873.82662
 91  3 21  0 50 59.9970000  0  5G15G 2G13G19G 6
  23240107.0484   -1231101.53645   -882054.73861
  20056252.7904  -19326385.23048 -15059463.52464
  23047126.0794    -987049.88745   -409485.60461
  21526653.524     3476370.863 6   2708855.91822
  20857491.6264  -16938675.92347 -13051749.49062
 91  3 21  0 51 14.9970000  0  5G15G 2G13G19G 6
  23234433.079    -1260922.081 5   -905291.41121
  20054417.415   -19336031.529 8 -15066980.09824
  23034657.829    -1052568.019 5   -460538.41321
  21531407.8534    3501365.72846   2728332.39362
  20850936.1574  -16973130.30847 -13078596.99562
 91  3 21  0 51 29.9970000  0  5G15G 2G13G19G 6
  23228777.9854   -1290652.20445   -928457.63461
  20052591.595   -19345623.212 8 -15074454.11424
  23022196.4624   -1118051.32645   -511564.07061
  21536180.235     3526431.206 6   2747863.89222
  20844385.7044  -17007555.04947 -13105421.40162
 91  3 21  0 51 44.9970000  0  5G15G 2G13G19G 6
  23223136.5794   -1320288.27245   -951550.54961
  20050777.704   -19355156.922 8 -15081882.95424
  23009742.071    -1183496.404 5   -562559.91421
  21540961.743     3551570.699 6   2767453.06222
  20837841.1734  -17041946.78747 -13132220.08862
 91  3 21  0 51 59.9970000  0  5G15G 2G13G19G 6
  23217514.2354   -1349826.73145   -974567.45361
  20048974.571   -19364629.272 8 -15089263.98424
  22997295.8144   -1248899.13545   -613522.79061
  21545761.962     3576787.733 6   2787102.65322
  20831303.571   -17076301.479 7 -13158989.92222
 91  3 21  0 52 14.9970000  0  5G15G 2G13G19G 6
  23211908.985    -1379276.961 6   -997515.58521
  20047181.587   -19374050.173 8 -15096604.92324
  22984856.4394   -1314269.06145   -664460.11861
  21550573.634     3602072.391 6   2806804.93722
  20824771.4624  -17110628.95847 -13185738.54462
 91  3 21  0 52 29.9970000  0  5G15G 2G13G19G 6
  23206323.0714   -1408634.76345  -1020391.69261
  20045399.673   -19383416.078 8 -15103903.01224
  22972422.962    -1379601.801 5   -715368.45021
  21555398.751     3627428.216 6   2826562.67822
  20818244.9154  -17144925.34847 -13212462.94662
 91  3 21  0 52 44.9970000  0  5G15G 2G13G19G 6
  23200757.259    -1437895.807 6  -1043192.40321
  20043628.220   -19392722.857 8 -15111155.02524
  22959998.2984   -1444892.94445   -766244.37261
  21560238.009     3652859.362 6   2846379.10622
  20811724.548   -17179186.218 7 -13239159.67722
 91  3 21  0 52 59.9970000  0  5G15G 2G13G19G 6
  23195209.3374   -1467052.00345  -1065911.40661
  20041870.954   -19401962.514 8 -15118354.73324
  22947583.7744   -1510134.14245   -817081.36761
  21565092.884     3678373.884 6   2866260.49822
  20805213.7674  -17213403.46147 -13265822.40662
 91  3 21  0 53 14.9970000  0  5G15G 2G13G19G 6
  23189674.9314   -1496115.17945  -1088557.90761
  20040122.899   -19411147.612 8 -15125511.93224
  22935178.3604   -1575337.40745   -867888.78861
  21569961.353     3703959.670 6   2886197.42422
  20798708.3534  -17247589.05947 -13292460.47662
 91  3 21  0 53 29.9970000  0  5G15G 2G13G19G 6
  23184163.767    -1525083.717 6  -1111130.68221
  20038385.751   -19420277.084 8 -15132625.78424
  22922779.9074   -1640501.09745   -918665.40861
  21574843.618     3729617.707 6   2906190.64922
  20792207.8844  -17281741.67447 -13319072.83862
 91  3 21  0 53 44.9970000  0  5G15G 2G13G19G 6
  23178669.392    -1553956.722 6  -1133629.03321
  20036658.157   -19429350.289 8 -15139695.79124
  22910384.5954   -1705624.44145   -969410.55961
  21579739.728     3755348.434 6   2926240.51522
  20785716.3924  -17315860.52047 -13345658.88762
 91  3 21  0 53 59.9970000  0  5G15G 2G13G19G 6
  23173193.728    -1582737.303 6  -1156055.38521
  20034941.985   -19438370.884 8 -15146724.80824
  22897997.103    -1770710.497 5  -1020126.67921
  21584651.4234    3781148.39946   2946344.32762
  20779229.3064  -17349949.08947 -13372221.34062
 91  3 21  0 54 14.9970000  0  5G15G 2G13G19G 6
  23167734.7354   -1611421.10546  -1178406.30961
  20033237.423   -19447334.618 8 -15153709.51724
  22885617.431    -1835754.583 5  -1070810.12521
  21589573.759     3807021.847 6   2966505.40022
  20772749.5244  -17384002.81547 -13398756.65462
 91  3 21  0 54 29.9970000  0  5G15G 2G13G19G 6
  23162292.290    -1640017.373 6  -1200689.01621
  20031539.337   -19456251.271 8 -15160657.54524
  22873248.095    -1900766.109 5  -1121468.16721
  21594508.829     3832958.962 6   2986716.08322
  20766273.2434  -17418031.22047 -13425272.22262
 91  3 21  0 54 44.9970000  0  5G15G 2G13G19G 6
  23156866.931    -1668516.898 6  -1222896.33121
  20029853.2124  -19465112.25848 -15167562.19864
  22860885.7204   -1965735.93545  -1172093.66961
  21599459.423     3858968.375 6   3006983.11122
  20759804.1264  -17452025.34947 -13451761.09162
 91  3 21  0 54 59.9970000  0  5G15G 2G13G19G 6
  23151464.189    -1696920.984 6  -1245029.28021
  20028177.524   -19473919.101 8 -15174424.65824
  22848529.9394   -2030664.73145  -1222687.25161
  21604422.196     3885048.795 6   3027305.46922
  20753341.720   -17485986.318 7 -13478224.13122
 91  3 21  0 55 14.9970000  0  5G15G 2G13G19G 6
  23146075.7824   -1725229.78746  -1267087.99761
  20026511.899   -19482672.139 8 -15181245.18624
  22836179.657    -2095552.650 5  -1273249.00321
  21609397.509     3911200.024 6   3047683.00222
  20746885.8604  -17519914.19847 -13504661.38462
 91  3 21  0 55 29.9970000  0  5G15G 2G13G19G 6
  23140709.6184   -1753445.14846  -1289073.90561
  20024855.899   -19491373.699 8 -15188025.60424
  22823841.5954   -2160401.51545  -1323780.31061
  21614388.3214    3937419.63146   3068113.82562
  20740435.095   -17553811.143 7 -13531074.53423
 91  3 21  0 55 44.9970000  0  5G15G 2G13G19G 6
  23135357.634    -1781566.023 6  -1310986.19321
  20023210.899   -19500023.255 8 -15194765.49824
  22811506.712    -2225210.473 5  -1374280.53121
  21619391.2284    3963708.19846   3088598.36962
  20733990.6894  -17587676.25547 -13557462.87363
 91  3 21  0 55 59.9970000  0  5G15G 2G13G19G 6
  23130022.4314   -1809594.40345  -1332826.40861
  20021573.657   -19508623.084 8 -15201466.64424
  22799182.853    -2289981.466 5  -1424751.15421
  21624405.024     3990063.415 6   3109134.85322
  20727552.2434  -17621511.66047 -13583828.06363
 91  3 21  0 56 14.9970000  0  5G15G 2G13G19G 6
  23124704.0954   -1837526.11645  -1354591.28461
  20019947.446   -19517169.526 8 -15208126.18624
  22786863.6734   -2354710.16845  -1475188.82961
  21629432.595     4016489.117 6   3129726.25422
  20721119.1964  -17655313.27347 -13610166.92262
 91  3 21  0 56 29.9970000  0  5G15G 2G13G19G 6
  23119412.204    -1865356.268 6  -1376277.00921
  20018331.774   -19525658.103 8 -15214740.64624
  22774556.6814   -2419391.60445  -1525589.68861
  21634476.9934    4042989.84446   3150376.11162
  20714695.3684  -17689076.39847 -13636475.79063
 91  3 21  0 56 44.9970000  0  5G15G 2G13G19G 6
  23114132.4154   -1893085.43846  -1397884.05561
  20016727.681   -19534089.709 8 -15221310.71524
  22762254.9544   -2484026.55145  -1575954.32361
  21639533.095     4069564.517 6   3171083.59422
  20708277.1034  -17722801.70547 -13662755.18863
 91  3 21  0 56 59.9970000  0  5G15G 2G13G19G 6
  23108875.1964   -1920713.51245  -1419412.33761
  20015134.040   -19542464.690 8 -15227836.66424
  22749964.8684   -2548614.77645  -1626282.53961
  21644604.9784    4096212.93446   3191848.53262
  20701867.1344  -17756489.16047 -13689005.08962
 91  3 21  0 57 14.9970000  0  5G15G 2G13G19G 6
  23103637.2434   -1948247.30145  -1440867.15261
  20013549.657   -19550790.158 8 -15234324.02824
  22737682.1734   -2613162.75045  -1676579.38361
  21649688.8454    4122928.19246   3212665.55862
  20695462.1894  -17790145.61247 -13715230.83462
 91  3 21  0 57 29.9970000  0  5G15G 2G13G19G 6
  23098417.5014   -1975683.99245  -1462246.30861
  20011975.329   -19559063.628 8 -15240770.87524
  22725406.134    -2677667.667 5  -1726842.67721
  21654785.384     4149712.930 6   3233536.73221
  20689064.5484  -17823768.19347 -13741430.19062
 91  3 21  0 57 44.9970000  0  5G15G 2G13G19G 6
  23093214.931    -2003019.469 5  -1483546.58221
  20010411.181   -19567281.215 8 -15247174.17224
  22713139.407    -2742125.358 5  -1777069.17621
  21659895.454     4176570.755 6   3254464.85221
  20682673.587   -17857352.922 7 -13767600.05622
 91  3 21  0 57 59.9970000  0  5G15G 2G13G19G 6
  23088027.7284   -2030254.54445  -1504768.62261
  20008858.314   -19575444.270 8 -15253534.97824
  22700881.892    -2806536.621 5  -1827259.50121
  21665024.9074    4203500.39246   3275448.94161
  20676289.173   -17890900.859 7 -13793741.25422
 91  3 21  0 58 14.9970000  0  5G15G 2G13G19G 6
  23082864.493    -2057389.565 5  -1525912.71421
  20007314.767   -19583553.509 8 -15259853.84624
  22688636.126    -2870901.886 5  -1877413.96721
  21670160.392     4230501.400 6   3296488.64721
  20669912.3604  -17924412.35247 -13819854.05163
 91  3 21  0 58 29.9970000  0  5G15G 2G13G19G 6
  23077725.9934   -2084420.62445  -1546975.78561
  20005782.923   -19591605.606 8 -15266128.18824
  22676396.103    -2935216.980 5  -1927529.35121
  21675311.493     4257577.131 6   3317586.56822
  20663542.6264  -17957883.62447 -13845935.50062
 91  3 21  0 58 44.9970000  0  5G15G 2G13G19G 6
  23072601.314    -2111347.993 5  -1567958.04921
  20004261.298   -19599601.110 8 -15272358.43424
  22664163.165    -2999481.853 5  -1977605.61721
  21680477.110     4284727.081 6   3338742.32722
  20657180.8604  -17991314.93147 -13871985.80362
 91  3 21  0 58 59.9970000  0  5G15G 2G13G19G 6
  23067495.9464   -2138172.68945  -1588860.31861
  20002749.6814  -19607541.32648 -15278545.60564
  22651945.087    -3063697.738 5  -2027643.67521
  21685661.603     4311949.877 6   3359954.83822
  20650826.1034  -18024707.35647 -13898005.80263
 91  3 21  0 59 14.9970000  0  5G15G 2G13G19G 6
  23062407.860    -2164899.084 5  -1609685.99321
  20001248.3294  -19615431.20248 -15284693.54964
  22639736.0644   -3127869.11845  -2077647.06861
  21690852.946     4339240.541 6   3381220.24221
  20644478.493   -18058065.761 7 -13923999.29323
 91  3 21  0 59 29.9970000  0  5G15G 2G13G19G 6
  23057339.9784   -2191532.74345  -1630439.40561
  19999755.7674  -19623276.72748 -15290806.93864
  22627531.1574   -3192001.47545  -2127620.07661
  21696060.931     4366593.037 6   3402533.82921
  20638134.5404  -18091395.67747 -13949970.58462
 91  3 21  0 59 44.9970000  0  5G15G 2G13G19G 6
  23052291.7984   -2218062.09945  -1651111.53961
  19998272.892   -19631066.730 8 -15296877.05824
  22615337.1104   -3256082.82745  -2177553.31761
  21701276.196     4394018.804 6   3423904.50121
  20631800.6814  -18124685.38247 -13975910.55363
 91  3 21  0 59 59.9970000  0  5G15G 2G13G19G 6
  23047262.540    -2244492.432 5  -1671706.51421
  19996800.571   -19638806.625 8 -15302908.13224
  22603149.2044   -3320118.82745  -2227451.25661
  21706511.5404    4421512.18246   3445327.87361
  20625473.4854  -18157940.41347 -14001823.49863
 91  3 21  1  0 14.9970000  0  5G15G 2G13G19G 6
  23042253.2514   -2270815.57245  -1692217.95361
  19995339.243   -19646488.774 8 -15308894.19824
  22590973.6104   -3384101.00645  -2277307.21161
  21711754.618     4449081.167 6   3466810.15121
  20619151.681   -18191152.685 7 -14027703.13623
 91  3 21  1  0 29.9970000  0  5G15G 2G13G19G 6
  23037263.7594   -2297020.72745  -1712637.44761
  19993889.228   -19654102.569 8 -15314827.00324
  22578810.923    -3448018.273 5  -2327112.61121
  21717016.970     4476736.200 6   3488359.47821
  20612842.0564  -18224311.37447 -14053541.01263
 91  3 21  1  0 44.9970000  0  5G15G 2G13G19G 6
  23032298.5564   -2323128.99945  -1732981.46361
  19992449.845   -19661669.408 8 -15320723.22024
  22566654.4854   -3511891.75345  -2376883.90661
  21722290.946     4504455.820 6   3509959.14021
  20606538.4074  -18257437.71547 -14079353.68063
 91  3 21  1  0 59.9970000  0  5G15G 2G13G19G 6
  23027350.321    -2349141.215 5  -1753250.61921
  19991018.001   -19669190.765 8 -15326583.99224
  22554509.4854   -3575722.50645  -2426621.86461
  21727579.399     4532238.612 6   3531608.02021
  20600241.0174  -18290532.62847 -14105141.85863
 91  3 21  1  1 14.9970000  0  5G15G 2G13G19G 6
  23022416.571    -2375049.639 5  -1773438.90021
  19989597.564   -19676659.114 8 -15332403.47024
  22542374.657    -3639502.378 5  -2476320.19721
  21732877.571     4560092.327 6   3553312.16721
  20593950.8924  -18323588.36647 -14130899.50863
 91  3 21  1  1 29.9970000  0  5G15G 2G13G19G 6
  23017508.6494   -2400855.42045  -1793547.19961
  19988186.298   -19684075.826 8 -15338182.70624
  22530244.9464   -3703232.15945  -2525979.50661
  21738191.798     4588015.681 6   3575070.58321
  20587668.298   -18356605.873 7 -14156627.36323
 91  3 21  1  1 44.9970000  0  5G15G 2G13G19G 6
  23012616.4314   -2426556.70745  -1813574.07461
  19986784.337   -19691439.548 8 -15343920.64824
  22518127.642    -3766910.182 5  -2575598.47621
  21743520.5324    4616009.94046   3596884.23861
  20581392.689   -18389583.686 7 -14182324.28723
 91  3 21  1  1 59.9970000  0  5G15G 2G13G19G 6
  23007742.782    -2452152.241 5  -1833518.55421
  19985393.595   -19698749.696 8 -15349616.84524
  22506020.2514   -3830535.48945  -2625176.37461
  21748864.376     4644075.945 6   3618753.80621
  20575125.0094  -18422520.87247 -14207989.56063
 91  3 21  1  2 14.9970000  0  5G15G 2G13G19G 6
  23002896.6654   -2477638.79945  -1853378.10461
  19984013.314   -19706003.471 8 -15355269.12224
  22493922.5644   -3894104.71645  -2674710.58261
  21754215.642     4672216.373 6   3640681.36821
  20568865.8684  -18455414.14347 -14233620.62263
 91  3 21  1  2 29.9970000  0  5G15G 2G13G19G 6
  22998067.915    -2503010.941 5  -1873148.50221
  19982643.696   -19713195.525 8 -15360873.30524
  22481838.0794   -3957611.95245  -2724196.48161
  21759585.040     4700436.521 6   3662671.04621
  20562614.6654  -18488257.96047 -14259213.14863
 91  3 21  1  2 44.9970000  0  5G15G 2G13G19G 6
  22993259.5644   -2528271.17545  -1892831.69961
  19981286.681   -19720328.566 8 -15366431.49824
  22469763.4704   -4021059.66745  -2773636.01761
  21764970.7204    4728733.51146   3684720.60261
  20556373.5874  -18521054.98547 -14284769.21463
 91  3 21  1  2 59.9970000  0  5G15G 2G13G19G 6
  22988473.6654   -2553428.48645  -1912434.69561
  19979939.462   -19727412.238 8 -15371951.22324
  22457699.337    -4084456.857 5  -2823036.14621
  21770371.595     4757098.060 6   3706822.79921
  20550140.1424  -18553814.32347 -14310295.91063
 91  3 21  1  3 14.9970000  0  5G15G 2G13G19G 6
  22983707.3604   -2578478.25645  -1931953.90461
  19978602.056   -19734442.116 8 -15377429.02924
  22445645.3994   -4147798.92445  -2872393.36561
  21775779.821     4785534.488 6   3728980.99821
  20543914.3534  -18586531.23847 -14335789.55063
 91  3 21  1  3 29.9970000  0  5G15G 2G13G19G 6
  22978957.8454   -2603439.83045  -1951404.38861
  19977270.165   -19741438.099 8 -15382880.43024
  22433598.423    -4211105.301 6  -2921722.72021
  21781200.774     4814022.942 6   3751179.74721
  20537691.915   -18619225.330 7 -14361265.39823
 91  3 21  1  3 44.9970000  0  5G15G 2G13G19G 6
  22974230.845    -2628300.374 6  -1970776.13721
  19975947.126   -19748387.561 8 -15388295.57724
  22421561.6964   -4274362.64245  -2971013.88661
  21786634.032     4842576.092 6   3773428.91021
  20531477.548   -18651883.738 7 -14386713.42523
 91  3 21  1  3 59.9970000  0  5G15G 2G13G19G 6
  22969513.5324   -2653054.23445  -1990064.78361
  19974635.603   -19755285.335 8 -15393670.44324
  22409532.8924   -4337565.49745  -3020262.59461
  21792082.095     4871199.149 6   3795732.54221
  20525271.1424  -18684500.91847 -14412129.34063
 91  3 21  1  4 14.9970000  0  5G15G 2G13G19G 6
  22964823.2984   -2677704.09045  -2009272.37261
  19973331.454   -19762134.552 8 -15399007.47524
  22397515.712    -4400716.387 5  -3069470.80721
  21797539.743     4899889.212 6   3818088.38521
  20519070.8064  -18717079.66447 -14437515.30963
 91  3 21  1  4 29.9970000  0  5G15G 2G13G19G 6
  22960154.868    -2702248.799 6  -2028398.02321
  19972037.618   -19768933.972 8 -15404305.70524
  22385509.0954   -4463813.91145  -3118637.43361
  21803013.6894    4928647.38646   3840497.29561
  20512879.0324  -18749618.54947 -14462870.22063
 91  3 21  1  4 44.9970000  0  5G15G 2G13G19G 6
  22955504.0244   -2726689.64746  -2047442.75561
  19970753.290   -19775685.115 8 -15409566.31124
  22373512.001    -4526859.266 6  -3167763.45021
  21808498.7434    4957471.94146   3862957.92961
  20506693.4314  -18782118.94547 -14488195.13863
 91  3 21  1  4 59.9970000  0  5G15G 2G13G19G 6
  22950871.446    -2751023.797 6  -2066404.34521
  19969478.337   -19782385.824 8 -15414787.61924
  22361524.1424   -4589849.73346  -3216846.68661
  21813998.634     4986365.012 6   3885471.96221
  20500517.6184  -18814578.35947 -14513488.11663
 91  3 21  1  5 14.9970000  0  5G15G 2G13G19G 6
  22946265.353    -2775243.119 6  -2085276.45621
  19968214.087   -19789028.626 8 -15419963.80824
  22349549.470    -4652777.302 6  -3265880.89621
  21819508.681     5015334.293 6   3908045.37921
  20494349.9394  -18846988.80247 -14538742.94463
 91  3 21  1  5 29.9970000  0  5G15G 2G13G19G 6
  22941678.9464   -2799336.74346  -2104050.62161
  19966963.157   -19795602.798 8 -15425086.52224
  22337588.9934   -4715630.87345  -3314857.45161
  21825040.290     5044390.390 6   3930686.44221
  20488193.7044  -18879339.32847 -14563951.08963
 91  3 21  1  5 44.9970000  0  5G15G 2G13G19G 6
  22937113.7434   -2823315.16646  -2122735.00561
  19965722.665   -19802119.092 8 -15430164.13124
  22325641.4074   -4778420.54345  -3363784.20461
  21830582.907     5073522.764 6   3953386.95021
  20482047.6104  -18911640.38547 -14589120.68263
 91  3 21  1  5 59.9970000  0  5G15G 2G13G19G 6
  22932572.571    -2847188.669 6  -2141337.66421
  19964491.837   -19808588.194 8 -15435204.97224
  22313699.720    -4841156.859 5  -3412669.37921
  21836138.235     5102720.665 6   3976138.51821
  20475907.5484  -18943902.35447 -14614259.81663
 91  3 21  1  6 14.9970000  0  5G15G 2G13G19G 6
  22928048.782    -2870974.386 6  -2159871.90121
  19963266.603   -19815027.736 8 -15440222.78024
  22301769.040    -4903856.784 5  -3461526.20721
  21841704.7354    5131966.51046   3998927.44661
  20469773.4394  -18976142.60147 -14639382.01963
 91  3 21  1  6 29.9970000  0  5G15G 2G13G19G 6
  22923538.993    -2894661.588 6  -2178329.37921
  19962048.220   -19821427.063 8 -15445209.25224
  22289848.0484   -4966509.34545  -3510346.11861
  21847281.618     5161270.903 5   4021761.99021
  20463643.8454  -19008350.25447 -14664478.83063
 91  3 21  1  6 44.9970000  0  5G15G 2G13G19G 6
  22919050.8764   -2918244.86046  -2196705.85761
  19960839.337   -19827781.147 8 -15450160.46924
  22277933.4854   -5029109.03045  -3559124.84361
  21852869.220     5190639.113 5   4044646.26321
  20457522.4394  -19040519.74047 -14689545.90063
 91  3 21  1  6 59.9970000  0  5G15G 2G13G19G 6
  22914581.923    -2941721.437 5  -2214999.20021
  19959639.556   -19834087.602 8 -15455074.57024
  22266033.931    -5091652.955 5  -3607860.12221
  21858470.845     5220073.141 5   4067581.82321
  20451408.0644  -19072648.55347 -14714581.27763
 91  3 21  1  7 14.9970000  0  5G15G 2G13G19G 6
  22910130.345    -2965112.679 5  -2233226.07321
  19958444.673   -19840368.153 8 -15459968.48924
  22254139.5174   -5154162.41545  -3656568.55561
  21864080.399     5249551.395 6   4090551.84921
  20445298.3534  -19104758.10047 -14739601.63663
 91  3 21  1  7 29.9970000  0  5G15G 2G13G19G 6
  22905700.2744   -2988398.68945  -2251370.93861
  19957257.767   -19846603.475 8 -15464827.16224
  22242252.970    -5216617.915 5  -3705234.91521
  21869702.9934    5279093.34946   4113571.49561
  20439195.3604  -19136828.78447 -14764591.72463
 91  3 21  1  7 44.9970000  0  5G15G 2G13G19G 6
  22901290.306    -3011569.152 5  -2269425.76121
  19956082.415   -19852783.448 8 -15469642.70424
  22230379.298    -5279008.648 5  -3753850.85121
  21875337.298     5308709.217 5   4136648.74121
  20433101.7674  -19168850.03347 -14789543.28563
 91  3 21  1  7 59.9970000  0  5G15G 2G13G19G 6
  22896903.478    -3034618.069 5  -2287385.86021
  19954917.509   -19858902.253 8 -15474410.58024
  22218522.642    -5341328.187 5  -3802411.26421
  21880989.485     5338404.731 5   4159788.04721
  20427018.5484  -19200815.78247 -14814451.60563
 91  3 21  1  8 14.9970000  0  5G15G 2G13G19G 6
  22892537.306    -3057564.931 5  -2305266.45721
  19953760.845   -19864979.935 8 -15479146.41024
  22206671.0794   -5403596.41145  -3850931.71961
  21886650.454     5368159.637 5   4182973.63621
  20420942.3214  -19232745.84847 -14839332.11163
 91  3 21  1  8 29.9970000  0  5G15G 2G13G19G 6
  22888192.759    -3080406.466 5  -2323064.98221
  19952613.532   -19871013.507 8 -15483847.87624
  22194832.0244   -5465809.91445  -3899409.53661
  21892324.642     5397977.153 5   4206208.01221
  20414873.821   -19264636.806 7 -14864182.15823
 91  3 21  1  8 44.9970000  0  5G15G 2G13G19G 6
  22883869.728    -3103138.050 5  -2340777.82221
  19951473.821   -19876998.402 8 -15488511.41124
  22183004.6494   -5527963.49646  -3947840.64561
  21898011.673     5427862.015 6   4229494.87221
  20408813.290   -19296483.835 7 -14888997.96923
 91  3 21  1  8 59.9970000  0  5G15G 2G13G19G 6
  22879560.743    -3125754.247 5  -2358400.74721
  19950345.001   -19882929.838 8 -15493133.28724
  22171191.7824   -5590052.01246  -3996221.07561
  21903712.618     5457818.756 5   4252837.73421
  20402761.6894  -19328281.93247 -14913775.65163
 91  3 21  1  9 14.9970000  0  5G15G 2G13G19G 6
  22875278.0564   -3148260.33145  -2375937.87061
  19949225.407   -19888813.198 8 -15497717.70424
  22159385.2594   -5652080.62846  -4044554.83261
  21909425.610     5487841.918 5   4276232.35021
  20396720.3534  -19360036.27847 -14938519.23663
 91  3 21  1  9 29.9970000  0  5G15G 2G13G19G 6
  22871016.4394   -3170660.97645  -2393392.83561
  19948114.220   -19894653.526 8 -15502268.59224
  22147592.3144   -5714053.65446  -4092845.27761
  21915150.923     5517926.588 5   4299674.89821
  20390684.087   -19391751.438 7 -14963232.29323
 91  3 21  1  9 44.9970000  0  5G15G 2G13G19G 6
  22866770.946    -3192955.763 5  -2410765.31021
  19947011.329   -19900450.853 8 -15506785.96924
  22135808.8994   -5775970.64846  -4141092.06061
  21920888.173     5548072.854 5   4323165.44521
  20384656.782   -19423427.092 7 -14987914.56523
 91  3 21  1  9 59.9970000  0  5G15G 2G13G19G 6
  22862552.696    -3215145.999 5  -2428056.32121
  19945915.009   -19906206.918 8 -15511271.19624
  22124037.1734   -5837832.92646  -4189296.18961
  21926634.673     5578279.128 5   4346702.75421
  20378636.587   -19455064.664 7 -15012567.16223
 91  3 21  1 10 14.9970000  0  5G15G 2G13G19G 6
  22858350.774    -3237228.942 5  -2445263.73621
  19944828.767   -19911919.436 8 -15515722.49224
  22112276.0644   -5899637.83846  -4237455.61561
  21932394.7904    5608547.55945   4370288.48661
  20372623.837   -19486661.507 7 -15037188.02523
 91  3 21  1 10 29.9970000  0  5G15G 2G13G19G 6
  22854170.470    -3259191.602 5  -2462377.41621
  19943752.704   -19917575.539 8 -15520129.82424
  22100528.321    -5961372.142 6  -4285560.03621
  21938170.923     5638890.876 5   4393932.57621
  20366621.337   -19518204.589 7 -15061766.99223
 91  3 21  1 10 44.9970000  0  5G15G 2G13G19G 6
  22850011.7204   -3281046.27045  -2479406.95961
  19942684.071   -19923187.765 8 -15524502.97224
  22088792.407    -6023048.029 6  -4333618.93721
  21943954.024     5669296.480 5   4417625.20121
  20360626.829   -19549706.080 7 -15086313.55623
 91  3 21  1 10 59.9970000  0  5G15G 2G13G19G 6
  22845874.649    -3302797.599 6  -2496355.95521
  19941623.681   -19928760.921 8 -15528845.67324
  22077067.103    -6084669.794 6  -4381635.68221
  21949752.517     5699759.419 5   4441362.51021
  20354639.4154  -19581170.67847 -15110831.36663
 91  3 21  1 11 14.9970000  0  5G15G 2G13G19G 6
  22841752.3294   -3324439.57646  -2513219.77061
  19940570.649   -19934289.473 8 -15533153.61424
  22065350.2744   -6146231.41246  -4429605.54461
  21955560.907     5730285.493 5   4465149.00721
  20348659.9624  -19612592.32247 -15135315.70463
 91  3 21  1 11 29.9970000  0  5G15G 2G13G19G 6
  22837656.1964   -3345966.45946  -2529993.89561
  19939529.009   -19939768.028 8 -15537422.60224
  22053648.4314   -6207727.19646  -4477524.14361
  21961385.337     5760880.079 5   4488988.89221
  20342689.7594  -19643965.38247 -15159762.18163
 91  3 21  1 11 44.9970000  0  5G15G 2G13G19G 6
  22833582.134    -3367387.940 6  -2546685.90821
  19938493.290   -19945206.801 8 -15541660.59024
  22041956.524    -6269166.883 6  -4525399.01521
  21967216.001     5791533.032 5   4512874.25921
  20336726.946   -19675299.695 7 -15184178.47323
 91  3 21  1 11 59.9970000  0  5G15G 2G13G19G 6
  22829524.2984   -3388697.57846  -2563290.75161
  19937467.345   -19950599.552 8 -15545862.71725
  22030276.290    -6330543.752 6  -4573224.92021
  21973064.587     5822250.652 5   4536810.01521
  20330773.493   -19706588.611 7 -15208559.40123
 91  3 21  1 12 14.9970000  0  5G15G 2G13G19G 6
  22825490.2824   -3409891.01246  -2579805.04861
  19936450.689   -19955942.131 8 -15550025.75325
  22018608.759    -6391853.096 6  -4620998.22821
  21978920.587     5853036.928 5   4560799.27421
  20324828.821   -19737827.843 7 -15232901.61123
 91  3 21  1 12 29.9970000  0  5G15G 2G13G19G 6
  22821478.2044   -3430969.01046  -2596229.39861
  19935444.001   -19961235.497 8 -15554150.43325
  22006955.907    -6453095.572 6  -4668719.40621
  21984793.689     5883890.801 5   4584841.20321
  20318892.524   -19769018.073 7 -15257205.63023
 91  3 21  1 12 44.9970000  0  5G15G 2G13G19G 6
  22817491.4854   -3451938.24646  -2612568.99961
  19934445.501   -19966486.942 8 -15558242.44525
  21995312.6424   -6514278.07246  -4716393.87661
  21990674.9704    5914805.06045   4608930.17961
  20312964.946   -19800166.233 7 -15281476.87223
 91  3 21  1 12 59.9970000  0  5G15G 2G13G19G 6
  22813526.493    -3472781.552 6  -2628810.46421
  19933456.228   -19971679.407 8 -15562288.49625
  21983686.1894   -6575383.16146  -4764008.01261
  21996572.642     5945796.965 5   4633079.66821
  20307048.517   -19831254.845 7 -15305701.71323
 91  3 21  1 13 14.9970000  0  5G15G 2G13G19G 6
  22809577.9854   -3493524.30846  -2644973.58261
  19932474.587   -19976838.669 8 -15566308.68424
  21972066.5794   -6636436.15146  -4811581.55261
  22002480.314     5976840.501 5   4657269.37721
  20301140.7434  -19862309.65847 -15329900.20963
 91  3 21  1 13 29.9970000  0  5G15G 2G13G19G 6
  22805650.556    -3514150.684 6  -2661046.01521
  19931501.431   -19981949.244 8 -15570290.93424
  21960460.4074   -6697421.15246  -4859102.14761
  22008401.024     6007951.236 5   4681511.46321
  20295239.626   -19893314.731 7 -15354059.95723
 91  3 21  1 13 44.9970000  0  5G15G 2G13G19G 6
  22801748.931    -3534661.566 6  -2677028.45921
  19930537.853   -19987012.483 8 -15574236.29024
  21948868.884    -6758338.821 6  -4906570.24821
  22014331.017     6039127.928 5   4705804.93421
  20289348.618   -19924270.888 7 -15378181.58123
 91  3 21  1 13 59.9970000  0  5G15G 2G13G19G 6
  22797866.5244   -3555061.96546  -2692924.80061
  19929582.579   -19992033.323 8 -15578148.61525
  21937289.4394   -6819193.95946  -4953989.63261
  22020276.1104    6070365.40045   4730145.78061
  20283467.087   -19955182.965 7 -15402268.86023
 91  3 21  1 14 14.9970000  0  5G15G 2G13G19G 6
  22794005.689    -3575352.225 6  -2708735.31821
  19928634.876   -19997012.567 8 -15582028.51725
  21925718.6034   -6879987.06546  -5001360.66061
  22026232.478     6101662.821 5   4754533.33221
  20277592.993   -19986051.571 7 -15426322.26823
 91  3 21  1 14 29.9970000  0  5G15G 2G13G19G 6
  22790166.071    -3595526.866 6  -2724455.74421
  19927696.103   -20001944.936 8 -15585871.89525
  21914163.532    -6940712.313 6  -5048678.82221
  22032205.939     6133025.606 5   4778971.81921
  20271727.603   -20016870.918 7 -15450337.28623
 91  3 21  1 14 44.9970000  0  5G15G 2G13G19G 6
  22786346.962    -3615582.787 6  -2740083.65821
  19926768.048   -20006827.726 8 -15589676.64225
  21902623.345    -7001366.714 6  -5095941.76721
  22038182.165     6164456.300 5   4803463.21821
  20265872.7984  -20047638.15247 -15474311.69963
 91  3 21  1 14 59.9970000  0  5G15G 2G13G19G 6
  22782554.423    -3635523.583 6  -2755621.87121
  19925847.423   -20011664.944 8 -15593445.88325
  21891091.2124   -7061953.71446  -5143152.19861
  22044174.9314    6195950.90945   4828004.42061
  20260027.040   -20078356.840 7 -15498248.28423
 91  3 21  1 15 14.9970000  0  5G15G 2G13G19G 6
  22778780.837    -3655349.166 6  -2771070.28721
  19924934.696   -20016456.811 8 -15597179.78425
  21879575.8144   -7122472.72346  -5190309.65961
  22050178.907     6227509.434 5   4852595.41821
  20254191.251   -20109026.789 7 -15522146.89223
 91  3 21  1 15 29.9970000  0  5G15G 2G13G19G 6
  22775029.3844   -3675054.75346  -2786425.20261
  19924032.837   -20021198.708 8 -15600874.75225
  21868072.7204   -7182919.21146  -5237410.61161
  22056200.892     6259136.148 5   4877239.56421
  20248363.985   -20139643.396 7 -15546003.93423
 91  3 21  1 15 44.9970000  0  5G15G 2G13G19G 6
  22771304.243    -3694639.029 6  -2801685.60021
  19923140.603   -20025889.645 8 -15604530.00725
  21856582.532    -7243291.525 6  -5284453.78421
  22062230.0174    6290832.51045   4901937.96861
  20242548.735   -20170205.094 7 -15569818.19523
 91  3 21  1 15 59.9970000  0  5G15G 2G13G19G 6
  22767598.860    -3714113.908 6  -2816860.74921
  19922254.368   -20030541.950 8 -15608155.16325
  21845107.790    -7303601.508 6  -5331448.35521
  22068274.462     6322586.054 5   4926680.94621
  20236740.4394  -20200723.88447 -15593599.01463
 91  3 21  1 16 14.9970000  0  5G15G 2G13G19G 6
  22763917.1424   -3733474.29946  -2831946.67861
  19921377.649   -20035150.672 8 -15611746.35925
  21833642.274    -7363844.001 6  -5378390.35721
  22074326.415     6354401.545 5   4951472.18721
  20230942.4704  -20231194.58447 -15617342.35263
 91  3 21  1 16 29.9970000  0  5G15G 2G13G19G 6
  22760249.103    -3752718.860 5  -2846942.36321
  19920508.985   -20039714.962 8 -15615302.93025
  21822193.3604   -7424017.64046  -5425278.68761
  22080392.759     6386279.796 5   4976312.32421
  20225154.1034  -20261615.97447 -15641047.27063
 91  3 21  1 16 44.9970000  0  5G15G 2G13G19G 6
  22756610.626    -3771847.465 6  -2861847.69821
  19919649.478   -20044234.952 8 -15618824.97625
  21810752.0714   -7484122.08946  -5472113.11161
  22086471.5014    6418220.56045   5001201.17361
  20219373.993   -20291987.900 7 -15664713.65123
 91  3 21  1 16 59.9970000  0  5G15G 2G13G19G 6
  22752993.595    -3790865.884 6  -2876667.17221
  19918795.642   -20048716.828 8 -15622317.33125
  21799329.931    -7544163.109 6  -5518898.11921
  22092561.0324    6450217.77545   5026134.01961
  20213602.064   -20322316.117 7 -15688345.98224
 91  3 21  1 17 14.9970000  0  5G15G 2G13G19G 6
  22749394.5954   -3809768.37346  -2891396.31161
  19917951.056   -20053154.849 8 -15625775.50824
  21787916.1494   -7604134.64646  -5565628.98561
  22098659.884     6482277.121 5   5051115.27721
  20207841.0874  -20352594.67347 -15711939.60063
 91  3 21  1 17 29.9970000  0  5G15G 2G13G19G 6
  22745822.212    -3828550.317 6  -2906031.51821
  19917115.454   -20057544.788 8 -15629196.21824
  21776518.282    -7664032.110 6  -5612302.13521
  22104775.368     6514402.702 5   5076148.14921
  20202089.3684  -20382819.11247 -15735491.05464
 91  3 21  1 17 44.9970000  0  5G15G 2G13G19G 6
  22742268.142    -3847213.225 6  -2920573.95821
  19916290.087   -20061888.201 8 -15632580.67224
  21765133.610    -7723856.524 6  -5658918.36121
  22110898.806     6546593.044 5   5101231.47821
  20196347.6264  -20412990.59047 -15759001.23764
 91  3 21  1 17 59.9970000  0  5G15G 2G13G19G 6
  22738741.9314   -3865760.29446  -2935026.14561
  19915470.767   -20066188.586 8 -15635931.59625
  21753763.9394   -7783611.02046  -5705480.09961
  22117037.954     6578844.592 5   5126362.50621
  20190615.4854  -20443112.49647 -15782472.79364
 91  3 21  1 18 14.9970000  0  5G15G 2G13G19G 6
  22735233.353    -3884185.619 6  -2949383.47821
  19914661.860   -20070440.495 8 -15639244.74724
  21742405.673    -7843289.810 6  -5751982.84221
  22123187.259     6611162.809 5   5151545.48021
  20184893.8374  -20473178.83347 -15805901.05064
 91  3 21  1 18 29.9970000  0  5G15G 2G13G19G 6
  22731751.321    -3902499.704 6  -2963654.10621
  19913860.056   -20074654.377 8 -15642528.26925
  21731061.7824   -7902903.02146  -5798434.49561
  22129349.5644    6643536.89045   5176771.96661
  20179181.603   -20503200.085 7 -15829294.17924
 91  3 21  1 18 44.9970000  0  5G15G 2G13G19G 6
  22728289.657    -3920695.363 6  -2977832.47621
  19913066.532   -20078823.812 8 -15645777.15924
  21719733.3064   -7962443.50646  -5844829.46461
  22135520.532     6675973.639 5   5202047.30721
  20173477.970   -20533169.166 7 -15852646.66124
 91  3 21  1 18 59.9970000  0  5G15G 2G13G19G 6
  22724846.243    -3938772.517 6  -2991918.49021
  19912281.798   -20082949.252 8 -15648991.77325
  21708415.7674   -8021911.36046  -5891167.86261
  22141705.423     6708472.702 5   5227371.19921
  20167785.001   -20563086.150 7 -15875958.54824
 91  3 21  1 19 14.9960000  0  5G15G 2G13G19G 6
  22721427.5594   -3956728.29346  -3005909.93661
  19911504.918   -20087028.552 8 -15652170.43524
  21697113.887    -8081300.604 6  -5937445.00021
  22147900.8634    6741033.41245   5252743.12661
  20162103.035   -20592947.132 7 -15899226.79924
 91  3 21  1 19 29.9960000  0  5G15G 2G13G19G 6
  22718036.004    -3974563.429 6  -3019807.36421
  19910736.918   -20091060.968 8 -15655312.56125
  21685826.535    -8140617.258 6  -5983665.57321
  22154111.137     6773661.643 5   5278167.67321
  20156430.051   -20622754.314 7 -15922453.12124
 91  3 21  1 19 44.9960000  0  5G15G 2G13G19G 6
  22714663.902    -3992277.309 6  -3033610.30421
  19909979.481   -20095047.125 8 -15658418.64024
  21674553.5824   -8199857.79346  -6029826.82361
  22160330.660     6806354.055 5   5303642.22521
  20150768.613   -20652506.407 7 -15945636.52224
 91  3 21  1 19 59.9960000  0  5G15G 2G13G19G 6
  22711313.988    -4009873.199 6  -3047321.31921
  19909228.527   -20098990.462 8 -15661491.35224
  21663293.0044   -8259025.30046  -6075931.16561
  22166564.098     6839107.217 5   5329164.11421
  20145116.512   -20682206.433 7 -15968779.34924
 91  3 21  1 20 14.9960000  0  5G15G 2G13G19G 6
  22707990.574    -4027350.813 6  -3060940.17021
  19908487.066   -20102891.207 8 -15664530.87025
  21652047.9964   -8318119.82246  -6121978.65161
  22172805.1844    6871921.01145   5354733.26061
  20139475.2314  -20711854.36147 -15991881.57264
 91  3 21  1 20 29.9960000  0  5G15G 2G13G19G 6
  22704686.988    -4044700.961 5  -3074459.69521
  19907754.316   -20106740.277 8 -15667530.12724
  21640819.449    -8377131.770 6  -6167961.78121
  22179066.8324    6904804.37645   5380356.61061
  20133845.223   -20741440.673 7 -16014935.78724
 91  3 21  1 20 44.9960000  0  5G15G 2G13G19G 6
  22701411.1064   -4061924.12245  -3087880.24961
  19907031.168   -20110538.461 8 -15670489.72625
  21629604.3714   -8436061.19246  -6213880.62961
  22185335.856     6937756.715 5   5406033.70221
  20128227.0824  -20770965.88147 -16037942.38664
 91  3 21  1 20 59.9960000  0  5G15G 2G13G19G 6
  22698155.8874   -4079024.97645  -3101205.51161
  19906316.879   -20114290.359 8 -15673413.26225
  21618404.793    -8494912.609 6  -6259738.68521
  22191618.9884    6970773.23645   5431760.80461
  20122618.356   -20800434.410 7 -16060904.81724
 91  3 21  1 21 14.9960000  0  5G15G 2G13G19G 6
  22694921.684    -4096008.502 5  -3114439.34921
  19905611.402   -20118001.694 8 -15676305.19025
  21607219.481    -8553691.296 6  -6305540.06521
  22197912.3404    7003848.19845   5457533.43961
  20117022.090   -20829851.656 7 -16083827.29424
 91  3 21  1 21 29.9960000  0  5G15G 2G13G19G 6
  22691714.2934   -4112880.91746  -3127586.59861
  19904911.402   -20121678.768 8 -15679170.42325
  21596047.0044   -8612403.02846  -6351289.26161
  22204218.293     7036975.379 5   5483346.78021
  20111432.402   -20859223.544 7 -16106714.42824
 91  3 21  1 21 44.9960000  0  5G15G 2G13G19G 6
  22688524.9884   -4129633.76846  -3140640.70261
  19904219.348   -20125313.463 8 -15682002.63425
  21584888.3794   -8671039.04246  -6396979.45261
  22210530.652     7070162.797 5   5509207.05921
  20105853.2464  -20888541.50547 -16129559.53264
 91  3 21  1 21 59.9960000  0  5G15G 2G13G19G 6
  22685361.160    -4146264.251 6  -3153599.44221
  19903536.762   -20128902.998 8 -15684799.65925
  21573745.402    -8729596.392 6  -6442608.36121
  22216859.1764    7103412.93545   5535116.19361
  20100284.2704  -20917802.60647 -16152360.33264
 91  3 21  1 22 14.9960000  0  5G15G 2G13G19G 6
  22682220.1294   -4162778.05346  -3166467.27761
  19902860.973   -20132453.413 8 -15687566.19925
  21562615.4024   -8788081.05746  -6488180.64461
  22223196.356     7136719.833 5   5561069.56621
  20094726.348   -20947012.604 7 -16175121.31824
 91  3 21  1 22 29.9960000  0  5G15G 2G13G19G 6
  22679104.5824   -4179164.33146  -3179235.72761
  19902195.457   -20135954.119 8 -15690294.00625
  21551502.9574   -8846482.08246  -6533687.76361
  22229549.652     7170093.937 5   5587075.31921
  20089178.777   -20976160.697 7 -16197834.06724
 91  3 21  1 22 44.9960000  0  5G15G 2G13G19G 6
  22676008.3954   -4195410.53046  -3191895.04761
  19901541.348   -20139392.855 8 -15692973.52425
  21540408.3954   -8904786.55546  -6579119.62361
  22235915.129     7203547.686 5   5613143.12921
  20083646.621   -21005234.101 7 -16220488.62124
 91  3 21  1 22 59.9960000  0  5G15G 2G13G19G 6
  22672937.9344   -4211536.02646  -3204460.30961
  19900895.176   -20142789.085 8 -15695619.91325
  21529327.0744   -8963013.22446  -6624490.87961
  22242294.965     7237061.641 5   5639257.85021
  20078124.293   -21034251.998 7 -16243099.92324
 91  3 21  1 23 14.9960000  0  5G15G 2G13G19G 6
  22669897.082    -4227532.368 6  -3216924.91921
  19900258.473   -20146134.861 8 -15698226.98925
  21518263.668    -9021154.084 6  -6669795.24121
  22248681.973     7270643.540 5   5665425.51221
  20072614.754   -21063206.094 7 -16265661.50924
 91  3 21  1 23 29.9960000  0  5G15G 2G13G19G 6
  22666877.723    -4243407.513 6  -3229295.08021
  19899629.348   -20149438.341 8 -15700801.10525
  21507214.7624   -9079217.02846  -6715038.91761
  22255084.957     7304285.178 5   5691639.72421
  20067116.082   -21092104.306 7 -16288179.54524
 91  3 21  1 23 44.9960000  0  5G15G 2G13G19G 6
  22663877.8094   -4259168.20846  -3241576.08461
  19899007.082   -20152706.703 8 -15703347.85925
  21496178.5824   -9137208.34046  -6760226.76461
  22261497.645     7337979.512 5   5717895.00721
  20061626.129   -21120953.319 7 -16310659.24424
 91  3 21  1 23 59.9960000  0  5G15G 2G13G19G 6
  22660902.582    -4274805.779 6  -3253761.13321
  19898393.770   -20155931.419 8 -15705860.60625
  21485159.1994   -9195119.35846  -6805352.05361
  22267924.6064    7371734.72545   5744197.72761
  20056146.637   -21149744.405 7 -16333093.80423
 91  3 21  1 24 14.9960000  0  5G15G 2G13G19G 6
  22657951.1454   -4290314.71546  -3265845.95361
  19897789.473   -20159107.116 8 -15708335.14825
  21474154.7934   -9252944.43546  -6850410.36761
  22274356.215     7405556.333 5   5770552.18421
  20050680.137   -21178471.985 7 -16355478.88224
 91  3 21  1 24 29.9960000  0  5G15G 2G13G19G 6
  22655024.3324   -4305703.46046  -3277837.11661
  19897192.762   -20162242.461 8 -15710778.25325
  21463166.1994   -9310691.96846  -6895408.26761
  22280807.3874    7439435.51545   5796951.50361
  20045223.387   -21207144.359 7 -16377820.93824
 91  3 21  1 24 44.9960000  0  5G15G 2G13G19G 6
  22652115.4104   -4320967.88946  -3289731.41761
  19896605.449   -20165333.641 8 -15713186.95225
  21452192.676    -9368357.455 6  -6940342.24621
  22287261.996     7473376.086 5   5823398.66121
  20039779.481   -21235757.326 7 -16400116.70123
 91  3 21  1 24 59.9960000  0  5G15G 2G13G19G 6
  22649236.4264   -4336109.21946  -3301529.79761
  19896025.035   -20168382.157 8 -15715562.39925
  21441232.715    -9425942.224 6  -6985213.31721
  22293733.8324    7507376.56545   5849892.47261
  20034345.691   -21264312.205 7 -16422367.20323
 91  3 21  1 25 14.9960000  0  5G15G 2G13G19G 6
  22646375.8874   -4351129.51646  -3313233.85661
  19895451.645   -20171390.175 8 -15717906.29725
  21430290.6994   -9483447.96746  -7030022.81061
  22300215.566     7541434.786 5   5876431.29921
  20028923.137   -21292810.761 7 -16444573.81624
 91  3 21  1 25 29.9960000  0  5G15G 2G13G19G 6
  22643543.059    -4366026.184 6  -3324841.59221
  19894887.527   -20174355.419 8 -15720216.85525
  21419365.1454   -9540871.89346  -7074768.54461
  22306707.5984    7575552.95545   5903016.81761
  20023510.9104  -21321250.49447 -16466734.59164
 91  3 21  1 25 44.9960000  0  5G15G 2G13G19G 6
  22640731.6994   -4380797.56746  -3336351.70661
  19894331.895   -20177276.516 8 -15722493.01325
  21408452.684    -9598212.340 6  -7119449.24221
  22313210.7384    7609732.37045   5929650.07161
  20018111.184   -21349629.613 7 -16488848.13624
 91  3 21  1 25 59.9960000  0  5G15G 2G13G19G 6
  22637943.8954   -4395444.00146  -3347764.43961
  19893784.160   -20180153.908 8 -15724735.11425
  21397557.0904   -9655469.23646  -7164064.83961
  22319727.629     7643972.369 5   5956330.54121
  20012720.996   -21377948.218 7 -16510914.53224
 91  3 21  1 26 14.9960000  0  5G15G 2G13G19G 6
  22635179.1994   -4409961.23546  -3359076.51961
  19893244.965   -20182983.495 8 -15726939.96625
  21386677.840    -9712638.334 6  -7208612.02921
  22326254.504     7678277.021 5   5983061.38921
  20007345.551   -21406201.976 7 -16532930.40124
 91  3 21  1 26 29.9960000  0  5G15G 2G13G19G 6
  22632441.5274   -4424352.64946  -3370290.54061
  19892715.465   -20185768.917 8 -15729110.39925
  21375814.6604   -9769722.98646  -7253093.39761
  22332790.856     7712642.766 5   6009839.84421
  20001979.652   -21434394.271 7 -16554898.37123
 91  3 21  1 26 44.9960000  0  5G15G 2G13G19G 6
  22629732.7774   -4438611.74246  -3381401.46161
  19892195.098   -20188504.165 8 -15731241.73525
  21364969.3484   -9826716.53146  -7297503.77661
  22339344.7384    7747075.54445   6036670.53161
  19996627.699   -21462518.630 7 -16576813.40124
 91  3 21  1 26 59.9960000  0  5G15G 2G13G19G 6
  22627039.660    -4452748.411 6  -3392416.99721
  19891681.895   -20191199.381 8 -15733341.88225
  21354139.012    -9883628.461 6  -7341850.56621
  22345915.410     7781565.189 5   6063545.52721
  19991286.965   -21490584.820 7 -16598683.10324
 91  3 21  1 27 14.9960000  0  5G15G 2G13G19G 6
  22624372.3244   -4466757.50146  -3403333.11661
  19891178.996   -20193849.634 8 -15735407.00025
  21343325.4734   -9940453.79346  -7386129.88961
  22352483.871     7816116.651 5   6090468.68621
  19985958.371   -21518587.671 7 -16620503.45524
 91  3 21  1 27 29.9960000  0  5G15G 2G13G19G 6
  22621731.731    -4480640.410 6  -3414150.90421
  19890681.426   -20196456.317 8 -15737438.16725
  21332527.6684   -9997193.49946  -7430342.49061
  22359071.395     7850728.517 5   6117438.92421
  19980641.207   -21546528.331 7 -16642275.34324
 91  3 21  1 27 44.9960000  0  5G15G 2G13G19G 6
  22619113.7314   -4494397.04346  -3424870.29761
  19890194.746   -20199019.483 8 -15739435.42125
  21321745.723   -10053847.154 6  -7474488.03721
  22365667.504     7885400.610 5   6144456.09121
  19975336.3014  -21574406.48047 -16663998.51863
 91  3 21  1 27 59.9960000  0  5G15G 2G13G19G 6
  22616520.2384   -4508027.48246  -3435491.37061
  19889714.402   -20201539.371 8 -15741398.94925
  21310982.3564  -10110414.86246  -7518566.59561
  22372280.3094    7920132.52945   6171519.86661
  19970043.3564  -21602222.04647 -16685672.92663
 91  3 21  1 28 14.9960000  0  5G15G 2G13G19G 6
  22613950.8874   -4521532.47546  -3446014.68361
  19889243.012   -20204016.945 8 -15743329.50625
  21300233.496   -10166897.259 6  -7562578.67521
  22378899.074     7954923.183 5   6198629.41221
  19964761.684   -21629975.775 7 -16707299.15623
 91  3 21  1 28 29.9960000  0  5G15G 2G13G19G 6
  22611403.2154   -4534911.75746  -3456440.02361
  19888778.340   -20206452.739 8 -15745227.51125
  21289501.5984  -10223294.24246  -7606524.22561
  22385529.4654    7989772.32345   6225784.53061
  19959492.191   -21657667.779 7 -16728877.29323
 91  3 21  1 28 44.9960000  0  5G15G 2G13G19G 6
  22608881.5274   -4548167.49046  -3466769.10861
  19888323.879   -20208848.885 8 -15747094.61525
  21278784.254   -10279607.612 6  -7650404.60721
  22392169.9494    8024677.62645   6252983.40661
  19954234.520   -21685299.889 7 -16750408.75823
 91  3 21  1 28 59.9960000  0  5G15G 2G13G19G 6
  22606382.8954   -4561296.04146  -3476999.08561
  19887876.418   -20211201.691 8 -15748927.95125
  21268085.3564  -10335833.39246  -7694216.75161
  22398826.762     8059642.413 5   6280228.63821
  19948987.5594  -21712868.30347 -16771890.58263
 91  3 21  1 29 14.9960000  0  5G15G 2G13G19G 6
  22603908.5354   -4574296.92446  -3487129.58061
  19887437.246   -20213510.938 8 -15750727.35425
  21257401.676   -10391970.775 6  -7737960.00821
  22405489.793     8094666.815 5   6307520.33921
  19943754.285   -21740372.282 7 -16793322.20023
 91  3 21  1 29 29.9960000  0  5G15G 2G13G19G 6
  22601457.9184   -4587163.55446  -3497155.46461
  19887006.668   -20215770.398 8 -15752487.95525
  21246738.184   -10448013.097 6  -7781629.18121
  22412166.363     8129757.232 5   6334863.47221
  19938533.637   -21767805.296 7 -16814698.52123
 91  3 21  1 29 44.9960000  0  5G15G 2G13G19G 6
  22599035.012    -4599905.665 6  -3507084.31021
  19886583.598   -20217990.173 8 -15754217.63225
  21236090.0124  -10503970.17146  -7825231.94361
  22418857.262     8164903.624 5   6362250.22721
  19933325.535   -21795177.091 7 -16836027.13423
 91  3 21  1 29 59.9960000  0  5G15G 2G13G19G 6
  22596639.254    -4612503.027 6  -3516900.35621
  19886172.512   -20220150.087 8 -15755900.65525
  21225460.871   -10559821.879 6  -7868752.59021
  22425559.8954    8200125.85745   6389696.06661
  19928131.2074  -21822467.17347 -16857292.07863
 91  3 21  1 30 14.9960000  0  5G15G 2G13G19G 6
  22594265.7384   -4624970.08146  -3526614.87261
  19885770.176   -20222264.558 8 -15757548.27825
  21214850.809   -10615581.924 6  -7912201.81321
  22432272.4414    8235409.45645   6417189.71361
  19922951.5514  -21849689.73447 -16878504.40463
 91  3 21  1 30 29.9960000  0  5G15G 2G13G19G 6
  22591915.457    -4637319.766 6  -3536237.93421
  19885373.941   -20224346.647 8 -15759170.66725
  21204254.8324  -10671263.21146  -7955589.67461
  22438998.2074    8270741.20745   6444720.88861
  19917781.496   -21876857.749 7 -16899674.23023
 91  3 21  1 30 44.9960000  0  5G15G 2G13G19G 6
  22589589.6134   -4649543.98646  -3545763.23561
  19884986.949   -20226388.408 8 -15760761.62925
  21193676.9104  -10726857.10746  -7998909.43761
  22445730.762     8306129.305 5   6472295.97021
  19912623.176   -21903962.709 7 -16920794.93223
 91  3 21  1 30 59.9960000  0  5G15G 2G13G19G 6
  22587287.5044   -4661643.44546  -3555191.31561
  19884604.941   -20228391.083 8 -15762322.13525
  21183111.5434  -10782364.81846  -8042162.04561
  22452474.7624    8341572.33145   6499913.85861
  19907477.371   -21931005.536 7 -16941867.22023
 91  3 21  1 31 14.9960000  0  5G15G 2G13G19G 6
  22585010.1994   -4673617.60446  -3564521.77361
  19884230.418   -20230354.515 8 -15763852.06625
  21172567.2234  -10837785.42646  -8085346.77861
  22459229.7704    8377070.40845   6527574.63761
  19902343.879   -21957985.673 7 -16962890.65723
 91  3 21  1 31 29.9960000  0  5G15G 2G13G19G 6
  22582757.8564   -4685449.59146  -3573741.43061
  19883867.066   -20232261.891 8 -15765338.32125
  21162041.035   -10893101.874 6  -8128450.32921
  22466003.215     8412640.285 5   6555291.37321
  19897223.981   -21984886.042 7 -16983851.93523
 91  3 21  1 31 44.9960000  0  5G15G 2G13G19G 6
  22580532.449    -4697152.817 6  -3582860.77721
  19883512.707   -20234126.585 8 -15766791.31625
  21151530.8564  -10948327.28446  -8171482.95961
  22472777.957     8448268.489 5   6583053.56721
  19892118.254   -22011719.858 7 -17004761.35323
 91  3 21  1 31 59.9960000  0  5G15G 2G13G19G 6
  22578325.9344   -4708732.40346  -3591883.76961
  19883165.856   -20235953.952 8 -15768215.22225
  21141038.5124  -11003466.67446  -8214448.56661
  22479569.2934    8483949.57345   6610856.93761
  19887022.910   -22038492.030 7 -17025622.73323
 91  3 21  1 32 14.9960000  0  5G15G 2G13G19G 6
  22576148.4344   -4720175.58946  -3600800.47961
  19882828.121   -20237731.871 8 -15769600.59225
  21130564.0904  -11058507.42446  -8257337.31661
  22486372.5904    8519695.60345   6638710.92361
  19881942.699   -22065190.096 7 -17046426.37523
 91  3 21  1 32 29.9960000  0  5G15G 2G13G19G 6
  22573995.215    -4731494.553 6  -3609620.40821
  19882495.785   -20239472.324 8 -15770956.77125
  21120106.520   -11113461.351 6  -8300158.38821
  22493185.8794    8555494.28245   6666605.93661
  19876874.027   -22091825.865 7 -17067181.47223
 91  3 21  1 32 44.9960000  0  5G15G 2G13G19G 6
  22571863.7704   -4742693.07446  -3618346.47161
  19882170.949   -20241179.052 8 -15772286.67225
  21109664.848   -11168331.826 6  -8342914.43721
  22500006.434     8591341.706 5   6694538.94021
  19871817.012   -22118402.759 7 -17087890.69723
 91  3 21  1 32 59.9960000  0  5G15G 2G13G19G 6
  22569756.3954   -4753770.68246  -3626978.30961
  19881852.285   -20242852.279 8 -15773590.46725
  21099240.1454  -11223118.57446  -8385605.25161
  22506836.754     8627237.975 5   6722510.00621
  19866770.316   -22144920.526 7 -17108553.85023
 91  3 21  1 33 14.9960000  0  5G15G 2G13G19G 6
  22567671.5274   -4764719.64646  -3635509.91461
  19881541.504   -20244484.242 8 -15774862.10925
  21088831.074   -11277813.471 6  -8428224.51021
  22513677.926     8663190.765 5   6750525.11421
  19861736.199   -22171371.119 7 -17129164.65623
 91  3 21  1 33 29.9960000  0  5G15G 2G13G19G 6
  22565613.0664   -4775547.12546  -3643946.84561
  19881237.996   -20246082.214 8 -15776107.26425
  21078438.3564  -11332423.56146  -8470777.68061
  22520529.606     8699192.710 5   6778578.52621
  19856715.551   -22197761.585 7 -17149728.61123
 91  3 21  1 33 44.9960000  0  5G15G 2G13G19G 6
  22563577.1454   -4786245.13446  -3652282.89261
  19880942.316   -20247638.451 8 -15777319.89725
  21068064.7704  -11386940.61646  -8513258.33961
  22527389.6064    8735251.36445   6806676.12061
  19851706.152   -22224083.901 7 -17170239.45623
 91  3 21  1 33 59.9960000  0  5G15G 2G13G19G 6
  22561563.9814   -4796814.47945  -3660518.68161
  19880653.184   -20249154.205 8 -15778500.99125
  21057707.4414  -11441365.69746  -8555667.33061
  22534262.6764    8771365.28345   6834816.79461
  19846708.566   -22250339.017 7 -17190697.94223
 91  3 21  1 34 14.9960000  0  5G15G 2G13G19G 6
  22559577.7704   -4807256.40845  -3668655.18261
  19880372.4264  -20250630.57048 -15779651.39265
  21047368.8794  -11495699.20846  -8598004.98661
  22541146.910     8807533.696 5   6862999.91421
  19841726.301   -22276527.489 7 -17211104.49823
 91  3 21  1 34 29.9960000  0  5G15G 2G13G19G 6
  22557613.2074   -4817569.36845  -3676691.19561
  19880099.6294  -20252066.11548 -15780769.99165
  21037046.3324  -11549939.46046  -8640269.96361
  22548038.9024    8843757.54045   6891226.22661
  19836756.215   -22302647.880 7 -17231458.00324
 91  3 21  1 34 44.9960000  0  5G15G 2G13G19G 6
  22555675.6454   -4827756.91546  -3684629.48961
  19879833.668   -20253464.721 8 -15781859.80125
  21026743.2384  -11604090.06146  -8682465.08961
  22554940.5124    8880032.91845   6919492.68761
  19831797.254   -22328703.573 7 -17251761.09324
 91  3 21  1 34 59.9960000  0  5G15G 2G13G19G 6
  22553759.8714   -4837821.70846  -3692472.11861
  19879573.121   -20254829.319 8 -15782923.10525
  21016452.8564  -11658153.51246  -8724592.29561
  22561853.6684    8916356.85645   6947796.98761
  19826850.973   -22354697.224 7 -17272015.84024
 91  3 21  1 35 14.9960000  0  5G15G 2G13G19G 6
  22551869.207    -4847757.496 6  -3700214.23521
  19879321.668   -20256153.744 8 -15783955.11225
  21006183.895   -11712123.450 6  -8766646.64621
  22568774.660     8952735.446 5   6976143.89621
  19821917.2314  -22380622.35447 -17292217.20064
 91  3 21  1 35 29.9960000  0  5G15G 2G13G19G 6
  22550003.2544   -4857567.04746  -3707857.98461
  19879076.457   -20257440.781 8 -15784957.98325
  20995930.5274  -11766002.24646  -8808629.97561
  22575710.731     8989165.915 5   7004531.21921
  19816996.3954  -22406481.46247 -17312367.11664
 91  3 21  1 35 44.9960000  0  5G15G 2G13G19G 6
  22548158.371    -4867249.804 6  -3715402.92121
  19878838.871   -20258690.384 8 -15785931.67825
  20985694.7854  -11819789.25246  -8850541.77561
  22582652.0044    9025648.39645   7032959.06461
  19812089.465   -22432273.975 7 -17332465.13624
 91  3 21  1 35 59.9960000  0  5G15G 2G13G19G 6
  22546344.7774   -4876797.60846  -3722842.69861
  19878608.879   -20259894.132 8 -15786869.64825
  20975477.9184  -11873476.05746  -8892375.49661
  22589606.3324    9062190.88445   7061433.66361
  19807195.246   -22457991.442 7 -17352504.67524
 91  3 21  1 36 14.9960000  0  5G15G 2G13G19G 6
  22544551.3794   -4886214.21546  -3730180.25361
  19878388.301   -20261056.071 8 -15787775.03425
  20965280.7774  -11927066.36646  -8934134.03661
  22596570.9814    9098789.20245   7089951.79061
  19802313.840   -22483637.578 7 -17372488.63324
 91  3 21  1 36 29.9960000  0  5G15G 2G13G19G 6
  22542786.8714   -4895500.20946  -3737416.03161
  19878174.379   -20262176.925 8 -15788648.40725
  20955100.9104  -11980560.57046  -8975817.67961
  22603546.7154    9135442.64645   7118512.87761
  19797446.770   -22509212.839 7 -17392417.36524
 91  3 21  1 36 44.9960000  0  5G15G 2G13G19G 6
  22541042.426    -4904657.880 6  -3744551.81021
  19877969.059   -20263258.851 8 -15789491.44325
  20944938.910   -12033960.615 6  -9017427.96921
  22610528.527     9172148.947 5   7147115.15121
  19792593.832   -22534719.119 7 -17412292.34224
 91  3 21  1 36 59.9960000  0  5G15G 2G13G19G 6
  22539325.4884   -4913687.43546  -3751587.77161
  19877769.762   -20264302.477 8 -15790304.63525
  20934796.270   -12087266.634 6  -9058964.96221
  22617530.457     9208907.421 5   7175758.04521
  19787753.621   -22560156.680 7 -17432113.77324
 91  3 21  1 37 14.9960000  0  5G15G 2G13G19G 6
  22537633.6994   -4922582.57546  -3758518.98261
  19877580.574   -20265301.960 8 -15791083.43324
  20924669.9184  -12140472.19246  -9100423.69161
  22624530.285     9245723.896 5   7204446.15721
  19782926.824   -22585519.161 7 -17451876.69624
 91  3 21  1 37 29.9960000  0  5G15G 2G13G19G 6
  22535962.363    -4931354.608 6  -3765354.25821
  19877396.356   -20266268.637 8 -15791836.67224
  20914561.481   -12193588.372 6  -9141812.78021
  22631548.9494    9282586.97044   7233170.59161
  19778113.168   -22610817.583 7 -17471589.70724
 91  3 21  1 37 44.9960000  0  5G15G 2G13G19G 6
  22534318.8484   -4939987.31646  -3772080.98161
  19877220.418   -20267186.444 8 -15792551.82924
  20904475.645   -12246598.648 6  -9183119.35721
  22638574.027     9319512.527 5   7261943.70021
  19773313.426   -22636035.718 7 -17491240.15224
 91  3 21  1 37 59.9960000  0  5G15G 2G13G19G 6
  22532700.6684   -4948494.98246  -3778710.26861
  19877054.684   -20268069.697 8 -15793240.05924
  20894403.9344  -12299517.15946  -9224354.40661
  22645606.746     9356486.224 5   7290754.33021
  19768527.809   -22661187.517 7 -17510838.90424
 91  3 21  1 38 14.9960000  0  5G15G 2G13G19G 6
  22531104.324    -4956869.371 5  -3785235.70021
  19876892.777   -20268910.277 8 -15793895.04124
  20884353.0274  -12352335.70446  -9265511.56361
  22652655.676     9393515.931 5   7319608.59721
  19763755.887   -22686264.727 7 -17530379.54524
 91  3 21  1 38 29.9960000  0  5G15G 2G13G19G 6
  22529539.6914   -4965105.25446  -3791653.20961
  19876742.004   -20269703.285 8 -15794512.94724
  20874322.441   -12405048.727 7  -9306586.50221
  22659713.660     9430606.466 5   7348510.26321
  19758998.996   -22711261.998 7 -17549857.89124
 91  3 21  1 38 44.9960000  0  5G15G 2G13G19G 6
  22527997.301    -4973208.554 6  -3797967.39321
  19876598.559   -20270454.699 8 -15795098.44325
  20864311.051   -12457662.103 7  -9347583.80021
  22666782.949     9467751.792 5   7377454.63621
  19754255.559   -22736185.098 7 -17569278.44424
 91  3 21  1 38 59.9960000  0  5G15G 2G13G19G 6
  22526477.2234   -4981192.95246  -3804188.95061
  19876463.160   -20271178.160 8 -15795662.15724
  20854315.082   -12510189.278 6  -9388513.94021
  22673857.582     9504938.140 5   7406430.96421
  19749524.527   -22761047.392 7 -17588651.61624
 91  3 21  1 39 14.9960000  0  5G15G 2G13G19G 6
  22524982.106    -4989058.426 6  -3810317.82621
  19876330.746   -20271874.012 8 -15796204.35524
  20844335.035   -12562629.993 6  -9429376.68721
  22680941.2774    9542165.18345   7435439.02361
  19744804.262   -22785848.778 7 -17607977.32424
 91  3 21  1 39 29.9960000  0  5G15G 2G13G19G 6
  22523507.2934   -4996795.52146  -3816346.67161
  19876204.3874  -20272532.90948 -15796717.75364
  20834375.176   -12614974.540 7  -9470164.50821
  22688041.1604    9579442.10944   7464485.92961
  19740098.629   -22810579.611 7 -17627248.05524
 91  3 21  1 39 44.9960000  0  5G15G 2G13G19G 6
  22522061.5594   -5004407.70146  -3822278.18161
  19876083.527   -20273158.313 8 -15797205.05624
  20824432.168   -12667225.941 6  -9510879.74921
  22695138.0274    9616765.32344   7493568.88161
  19735406.199   -22835242.985 7 -17646466.21924
 91  3 21  1 39 59.9960000  0  5G15G 2G13G19G 6
  22520634.082    -5011890.108 6  -3828108.56621
  19875972.262   -20273745.513 8 -15797662.58824
  20814506.535   -12719379.084 6  -9551518.42421
  22702250.5514    9654139.61245   7522691.65961
  19730726.340   -22859833.975 7 -17665627.98124
 91  3 21  1 40 14.9960000  0  5G15G 2G13G19G 6
  22519238.0904   -5019244.63346  -3833839.31061
  19875865.895   -20274296.725 8 -15798092.08524
  20804601.246   -12771436.118 6  -9592082.20421
  22709371.8014    9691562.59545   7551852.39661
  19726060.551   -22884354.464 7 -17684734.80424
 91  3 21  1 40 29.9960000  0  5G15G 2G13G19G 6
  22517859.981    -5026470.103 6  -3839469.47321
  19875772.731   -20274810.785 8 -15798492.63124
  20794714.145   -12823395.491 7  -9632569.88621
  22716504.941     9729035.289 4   7581051.84721
  19721407.051   -22908803.006 7 -17703785.56424
 91  3 21  1 40 44.9960000  0  5G15G 2G13G19G 6
  22516512.4024   -5033562.11746  -3844995.65761
  19875679.981   -20275283.572 8 -15798861.01324
  20784846.1214  -12875252.60147  -9672977.89561
  22723645.9414    9766561.72945   7610293.15661
  19716769.762   -22933175.238 7 -17722776.86024
 91  3 21  1 40 59.9960000  0  5G15G 2G13G19G 6
  22515189.6524   -5040522.70746  -3850419.43261
  19875599.106   -20275717.177 8 -15799198.86324
  20774995.4964  -12927009.44446  -9713307.75961
  22730796.809     9804139.622 5   7639574.58721
  19712145.184   -22957472.855 7 -17741710.01724
 91  3 21  1 41 14.9960000  0  5G15G 2G13G19G 6
  22513886.488    -5047359.430 6  -3855746.69321
  19875522.918   -20276119.044 8 -15799511.98324
  20765163.9414  -12978673.19446  -9753565.08061
  22737953.4414    9841761.39145   7668890.20961
  19707535.2544  -22981703.04947 -17760590.63164
 91  3 21  1 41 29.9960000  0  5G15G 2G13G19G 6
  22512608.4884   -5054061.38545  -3860968.92561
  19875453.652   -20276478.703 8 -15799792.21224
  20755352.832   -13030233.150 7  -9793741.53921
  22745125.3714    9879437.26544   7698247.98361
  19702938.645   -23005855.200 7 -17779410.43424
 91  3 21  1 41 44.9960000  0  5G15G 2G13G19G 6
  22511357.2154   -5060640.74045  -3866095.63661
  19875388.965   -20276808.328 8 -15800049.03724
  20745559.3634  -13081700.93247  -9833846.18061
  22752302.5664    9917155.41244   7727638.67761
  19698355.481   -23029940.964 7 -17798178.50724
 91  3 21  1 41 59.9960000  0  5G15G 2G13G19G 6
  22510127.184    -5067099.813 6  -3871128.62821
  19875335.035   -20277110.421 8 -15800284.41324
  20735781.184   -13133078.644 6  -9873880.62521
  22759485.4814    9954913.16844   7757060.25061
  19693784.113   -23053962.589 7 -17816896.60624
 91  3 21  1 42 14.9960000  0  5G15G 2G13G19G 6
  22508923.6524   -5073430.48846  -3876061.56261
  19875281.348   -20277376.917 8 -15800492.04725
  20726022.527   -13184358.012 6  -9913838.43321
  22766680.4184    9992718.30144   7786518.75261
  19689226.191   -23077911.729 7 -17835558.22824
 91  3 21  1 42 29.9960000  0  5G15G 2G13G19G 6
  22507742.3244   -5079634.39446  -3880895.71561
  19875237.770   -20277609.443 8 -15800673.21224
  20716284.934   -13235540.271 7  -9953720.57721
  22773880.9414   10030569.04943   7816012.81261
  19684682.918   -23101789.660 7 -17854164.35924
 91  3 21  1 42 44.9960000  0  5G15G 2G13G19G 6
  22506588.660    -5085706.831 6  -3885627.43521
  19875200.652   -20277803.704 8 -15800824.56324
  20706563.9734  -13286620.79247  -9993523.45661
  22781094.0274   10068469.53044   7845545.60761
  19680153.277   -23125591.844 7 -17872711.46924
 91  3 21  1 42 59.9960000  0  5G15G 2G13G19G 6
  22505458.5124   -5091647.33946  -3890256.34361
  19875169.816   -20277959.000 8
  20696862.4814  -13337598.50046 -10033246.22561
  22788319.5204   10106420.44644   7875117.70661
  19675638.301   -23149317.280 7 -17891198.77424
 91  3 21  1 43 14.9960000  0  5G15G 2G13G19G 6
  22504350.754    -5097459.740 6  -3894785.42321
  19875150.816   -20278079.327 8
  20687181.152   -13388477.445 6 -10072892.01521
  22795549.777    10144417.686 3   7904725.88421
  19671138.246   -23172969.604 7 -17909629.10924
 91  3 21  1 43 29.9960000  0  5G15G 2G13G19G 6
  22503272.5594   -5103138.74546  -3899210.55461
  19875131.090   -20278159.548 8
  20677517.902   -13439251.944 7 -10112456.42421
  22802789.191    10182466.192 3   7934374.04021
  19666651.121   -23196543.328 7 -17927998.19424
 91  3 21  1 43 44.9960000  0  5G15G 2G13G19G 6
  22502213.1294   -5108691.51246  -3903537.33361
  19875124.770   -20278206.976 8
  20667874.9104  -13489928.88947 -10151944.82961
  22810033.535    10220558.564 3   7964056.35021
  19662179.910   -23220045.580 7 -17946311.59124
 91  3 21  1 43 59.9960000  0  5G15G 2G13G19G 6
  22501183.6294   -5114111.06546  -3907760.30461
  19875123.340   -20278214.935 8
  20658251.2384  -13540501.49146 -10191351.92061
  22817296.137    10258701.518 4   7993778.08221
  19657721.441   -23243469.239 7 -17964563.74424
 91  3 21  1 44 14.9960000  0  5G15G 2G13G19G 6
  22500173.8794   -5119399.86546  -3911881.37761
  19875127.598   -20278186.076 8
  20648647.082   -13590971.944 6 -10230679.41021
  22824560.2704   10296892.14744   8023536.98561
  19653278.941   -23266816.906 7 -17982756.68124
 91  3 21  1 44 29.9960000  0  5G15G 2G13G19G 6
  22499195.785    -5124556.945 6  -3915899.82721
  19875141.277   -20278119.390 8
  20639062.0434  -13641339.06347 -10269926.39061
  22831838.9964   10335131.47343   8053333.82061
  19648850.895   -23290087.075 7 -18000889.23224
 91  3 21  1 44 44.9960000  0  5G15G 2G13G19G 6
  22498238.2074   -5129582.49746  -3919815.77861
  19875161.231   -20278014.974 8
  20629497.4264  -13691602.52947 -10309092.59661
  22839125.1374   10373419.09044   8083168.26661
  19644437.668   -23313279.646 7 -18018961.31524
 91  3 21  1 44 59.9960000  0  5G15G 2G13G19G 6
  22497306.6064   -5134472.83546  -3923626.36261
  19875190.668   -20277869.465 8
  20619951.6064  -13741758.75546 -10348175.23561
  22846420.191    10411758.284 4   8113042.90421
  19640039.387   -23336390.917 7 -18036970.05124
 91  3 21  1 45 14.9960000  0  5G15G 2G13G19G 6
  22496404.4414   -5139227.73546  -3927331.42361
  19875225.090   -20277682.482 8
  20610429.309   -13791807.054 7 -10387173.78021
  22853725.176    10450149.447 4   8142958.05221
  19635657.113   -23359420.038 7 -18054914.77524
 91  3 21  1 45 29.9960000  0  5G15G 2G13G19G 6
  22495527.4184   -5143849.90946  -3930933.05161
  19875267.441   -20277457.142 8 -15800554.26924
  20600924.5984  -13841750.46347 -10426090.59661
  22861039.4344   10488589.07344   8172910.98061
  19631290.051   -23382370.122 7 -18072797.90924
 91  3 21  1 45 44.9960000  0  5G15G 2G13G19G 6
  22494672.5124   -5148345.37746  -3934435.95661
  19875313.231   -20277199.324 8 -15800353.35424
  20591439.8874  -13891594.40047 -10464929.90961
  22868361.418    10527071.352 4   8202897.13221
  19626936.168   -23405246.612 7 -18090623.69824
 91  3 21  1 45 59.9960000  0  5G15G 2G13G19G 6
  22493839.231    -5152716.419 6  -3937841.91121
  19875372.426   -20276911.114 8 -15800128.75325
  20581971.7704  -13941340.56446 -10503693.02461
  22875692.9184   10565594.07144   8232914.78461
  19622596.621   -23428051.421 7 -18108393.63324
 91  3 21  1 46 14.9960000  0  5G15G 2G13G19G 6
  22493032.1374   -5156959.28146  -3941147.97261
  19875430.574   -20276589.008 8 -15799877.73625
  20572526.7544  -13990985.16047 -10542376.99661
  22883032.082    10604160.542 4   8262966.55121
  19618270.918   -23450780.779 7 -18126104.77124
 91  3 21  1 46 29.9960000  0  5G15G 2G13G19G 6
  22492250.4104   -5161064.84446  -3944347.06761
  19875499.590   -20276224.114 8 -15799593.38225
  20563101.0594  -14040519.07447 -10580974.72461
  22890381.3094   10642779.45944   8293059.17361
  19613962.012   -23473425.397 7 -18143749.87724
 91  3 21  1 46 44.9960000  0  5G15G 2G13G19G 6
  22491495.613    -5165027.982 6  -3947435.17621
  19875578.973   -20275811.424 8 -15799271.78525
  20553696.2464  -14089936.92847 -10619482.03261
  22897742.2464   10681455.97544   8323196.66261
  19609670.637   -23495980.025 7 -18161324.86724
 91  3 21  1 46 59.9960000  0  5G15G 2G13G19G 6
  22490764.5274   -5168857.22046  -3950418.94561
  19875667.840   -20275359.442 8 -15798919.56925
  20544312.3404  -14139247.15047 -10657905.45261
  22905113.2464   10720181.29044   8353372.16961
  19605394.707   -23518452.858 7 -18178836.11424
 91  3 21  1 47 14.9960000  0  5G15G 2G13G19G 6
  22490063.371    -5172549.194 6  -3953295.75321
  19875758.551   -20274865.119 8 -15798534.36525
  20534951.191   -14188446.169 7 -10696242.21321
  22912489.5744   10758958.32044   8383587.98461
  19601134.277   -23540840.346 7 -18196280.86224
 91  3 21  1 47 29.9960000  0  5G15G 2G13G19G 6
  22489385.254    -5176108.635 6  -3956069.29521
  19875860.395   -20274333.144 8 -15798119.81825
  20525608.3714  -14237538.12847 -10734495.57161
  22919879.809    10797782.545 4   8413840.57121
  19596888.606   -23563146.803 7 -18213662.46724
 91  3 21  1 47 44.9960000  0  5G15G 2G13G19G 6
  22488732.691    -5179525.297 6  -3958731.58021
  19875970.832   -20273753.338 8 -15797668.00225
  20516287.7464  -14286512.92047 -10772657.61861
  22927276.816    10836663.726 4   8444137.55121
  19592660.777   -23585362.114 7 -18230973.05524
 91  3 21  1 47 59.9960000  0  5G15G 2G13G19G 6
  22488110.2464   -5182810.01146  -3961291.04061
  19876087.035   -20273136.596 8 -15797187.40324
  20506988.2544  -14335381.12947 -10810736.62561
  22934689.6764   10875590.92544   8474470.38961
  19588448.723   -23607496.684 7 -18248220.72424
 91  3 21  1 48 14.9960000  0  5G15G 2G13G19G 6
  22487505.246    -5185968.804 6  -3963752.38521
  19876213.543   -20272488.962 8 -15796682.73024
  20497709.4184  -14384148.74547 -10848737.23861
  22942101.418    10914557.887 4   8504834.20821
  19584251.473   -23629556.433 7 -18265410.09024
 91  3 21  1 48 29.9960000  0  5G15G 2G13G19G 6
  22486931.316    -5189004.602 6  -3966117.89121
  19876338.910   -20271813.616 8 -15796156.46324
  20488447.6064  -14432818.52247 -10886661.61861
  22949523.676    10953561.379 4   8535226.50421
  19580067.629   -23651544.166 7 -18282543.34124
 91  3 21  1 48 44.9960000  0  5G15G 2G13G19G 6
  22486379.106    -5191901.430 6  -3968375.10521
  19876478.285   -20271094.515 8 -15795596.10124
  20479207.5664  -14481374.18547 -10924497.07361
  22956955.441    10992617.214 4   8565659.60221
  19575899.590   -23673443.664 7 -18299607.83924
 91  3 21  1 48 59.9960000  0  5G15G 2G13G19G 6
  22485853.738    -5194654.769 6  -3970520.51521
  19876623.965   -20270327.124 8 -15794998.11724
  20469989.5124  -14529810.73147 -10962239.71961
  22964400.5514   11031729.75043   8596136.86061
  19571750.543   -23695250.043 7 -18316599.77824
 91  3 21  1 49 14.9960000  0  5G15G 2G13G19G 6
  22485356.293    -5197288.003 6  -3972572.34821
  19876773.738   -20269535.078 8 -15794380.91924
  20460790.7854  -14578151.33847 -10999907.60861
  22971848.520    11070875.268 4   8626639.82721
  19567613.684   -23716986.545 7 -18333537.26724
 91  3 21  1 49 29.9960000  0  5G15G 2G13G19G 6
  22484882.418    -5199787.823 6  -3974520.20321
  19876931.121   -20268705.046 8 -15793734.12124
  20451613.152   -14626382.296 7 -11037490.06021
  22979309.8324   11110067.27343   8657179.01061
  19563493.699   -23738639.357 7 -18350409.54124
 91  3 21  1 49 44.9960000  0  5G15G 2G13G19G 6
  22484429.7544   -5202152.49546  -3976362.77061
  19877097.988   -20267835.272 8 -15793056.35224
  20442455.6604  -14674501.90147 -11074985.72961
  22986772.996    11149307.067 4   8687755.44221
  19559389.785   -23760206.635 7 -18367215.16124
 91  3 21  1 49 59.9960000  0  5G15G 2G13G19G 6
  22484005.145    -5204378.020 6  -3978096.89421
  19877271.887   -20266921.782 8 -15792344.52124
  20433321.0354  -14722505.78247 -11112391.23061
  22994256.3634   11188598.62743   8718372.20561
  19555301.566   -23781684.182 7 -18383950.86624
 91  3 21  1 50 14.9960000  0  5G15G 2G13G19G 6
  22483605.481    -5206474.089 6  -3979730.14221
  19877450.949   -20265974.374 8 -15791606.25824
  20424205.918   -14770403.661 7 -11149714.14021
  23001734.145    11227931.811 4   8749021.35621
  19551230.504   -23803081.501 7 -18400624.05924
 91  3 21  1 50 29.9960000  0  5G15G 2G13G19G 6
  22483235.340    -5208436.128 6  -3981258.96621
  19877638.981   -20264988.848 8 -15790838.29224
  20415111.902   -14818190.953 7 -11186950.87621
  23009227.5904   11267310.80444   8779706.23261
  19547174.074   -23824394.004 7 -18417231.15924
 91  3 21  1 50 44.9960000  0  5G15G 2G13G19G 6
  22482886.0124   -5210264.95946  -3982683.98761
  19877833.254   -20263965.862 8 -15790041.13824
  20406040.4264  -14865868.02947 -11224101.71861
  23016732.652    11306734.959 4   8810426.30621
  19543135.199   -23845622.116 7 -18433772.50024
 91  3 21  1 50 59.9960000  0  5G15G 2G13G19G 6
  22482561.074    -5211964.737 6  -3984008.44121
  19878034.965   -20262909.401 8 -15789217.90324
  20396986.9574  -14913438.50847 -11261169.50661
  23024243.0434   11346199.93844   8841178.18561
  19539110.277   -23866769.590 7 -18450251.00824
 91  3 21  1 51 14.9960000  0  5G15G 2G13G19G 6
  22482262.6374   -5213531.77145  -3985229.46461
  19878242.7234  -20261815.98348 -15788365.86264
  20387955.0274  -14960898.60947 -11298151.28761
  23031756.8874   11385709.16244   8871964.56361
  19535103.051   -23887832.558 7 -18466663.66924
 91  3 21  1 51 29.9960000  0  5G15G 2G13G19G 6
  22481992.723    -5214962.054 5  -3986343.93021
  19878457.793   -20260681.609 8 -15787481.90924
  20378947.1994  -15008244.15047 -11335043.79961
  23039283.934    11425266.411 4   8902788.33121
  19531111.496   -23908806.901 7 -18483007.26424
 91  3 21  1 51 44.9960000  0  5G15G 2G13G19G 6
  22481743.863    -5216258.287 6  -3987353.93121
  19878681.738   -20259509.170 8 -15786568.29724
  20369958.8954  -15055477.53547 -11371848.91661
  23046820.0744   11464869.03743   8933647.48661
  19527135.856   -23929695.105 7 -18499283.74024
 91  3 21  1 51 59.9960000  0  5G15G 2G13G19G 6
  22481527.4344   -5217414.39646  -3988254.76561
  19878912.6064  -20258292.56048 -15785620.26464
  20360991.6994  -15102592.86347 -11408562.04161
  23054371.535    11504522.514 3   8964546.26121
  19523178.504   -23950490.882 7 -18515488.19624
 91  3 21  1 52 14.9960000  0  5G15G 2G13G19G 6
  22481331.551    -5218429.881 6  -3989046.00321
  19879153.5664  -20257031.46148 -15784637.56464
  20352048.4104  -15149589.40647 -11445182.60561
  23061921.5274   11544227.23343   8995484.95161
  19519240.699   -23971193.476 7 -18531620.04624
 91  3 21  1 52 29.9960000  0  5G15G 2G13G19G 6
  22481166.1994   -5219307.80846  -3989730.06361
  19879400.6294  -20255728.76848 -15783622.45364
  20343127.7314  -15196470.02747 -11481712.84261
  23069489.535    11583980.063 2   9026461.16521
  19515317.895   -23991805.635 7 -18547681.41824
 91  3 21  1 52 44.9960000  0  5G15G 2G13G19G 6
  22481019.606    -5220051.328 6  -3990309.38521
  19879657.2934  -20254387.80148 -15782577.51664
  20334227.8484  -15243237.41147 -11518154.84261
  23077063.973    11623777.639 2   9057472.22821
  19511410.910   -24012330.328 7 -18563674.63724
 91  3 21  1 52 59.9960000  0  5G15G 2G13G19G 6
  22480904.566    -5220668.000 6  -3990789.86521
  19879917.684   -20253015.869 8 -15781508.45324
  20325348.0204  -15289898.65947 -11554514.14161
  23084643.434    11663612.433 2   9088512.30221
  19507520.996   -24032774.596 7 -18579605.18624
 91  3 21  1 53 14.9960000  0  5G15G 2G13G19G 6
  22480816.6374   -5221150.60646  -3991165.88761
  19880185.152   -20251606.221 8 -15780410.00324
  20316490.6214  -15336446.75047 -11590785.26561
  23092228.1294   11703491.12043   9119586.54761
  19503647.457   -24053131.405 7 -18595467.59024
 91  3 21  1 53 29.9960000  0  5G15G 2G13G19G 6
  22480748.012    -5221495.456 6  -3991434.54221
  19880461.027   -20250155.098 8 -15779279.23324
  20307655.0434  -15382877.84747 -11626965.21761
  23099826.8094   11743417.21743   9150697.75861
  19499790.457   -24073396.723 7 -18611258.70224
 91  3 21  1 53 44.9960000  0  5G15G 2G13G19G 6
  22480705.215    -5221708.448 6  -3991600.47621
  19880743.8244  -20248668.06048 -15778120.47464
  20298841.176   -15429197.259 7 -11663058.16021
  23107431.5434         -0.91553
  19495951.066   -24093575.906 7 -18626982.69524
 91  3 21  1 53 59.9960000  0  5G15G 2G13G19G 6
  22480687.785    -5221790.967 5
  19881033.895   -20247146.941 8 -15776935.16524
  20290047.035   -15475406.399 7 -11699065.16721
  23115046.1604      40006.73143
  19492127.660   -24113670.484 7 -18642640.76324
 91  3 21  1 54 14.9960000  0  5G15G 2G13G19G 6
  22480698.207    -5221747.297 5
  19881328.9574  -20245595.91148 -15775726.54164
  20281274.6844  -15521509.13447 -11734989.25661
  23122664.5984      80049.90843
  19488318.902   -24133684.135 7 -18658235.77324
 91  3 21  1 54 29.9960000  0  5G15G 2G13G19G 6
  22480731.746    -5221569.150 5
  19881630.9494  -20244006.58448 -15774488.07964
  20272523.7074  -15567496.74647 -11770823.64161
  23130298.5204     120136.88243
  19484526.918   -24153608.376 7 -18673761.11324
 91  3 21  1 54 44.9960000  0  5G15G 2G13G19G 6
  22480793.9734   -5221257.57245
  19881940.590   -20242380.385 8 -15773220.88724
  20263793.0044  -15613370.59347 -11806569.38261
  23137932.770      160266.046 3        -0.30031
  19480752.3164  -24173444.09447 -18689217.47564
 91  3 21  1 54 59.9960000  0  5G15G 2G13G19G 6
  22480878.0354   -5220807.96746  -3990898.58561
  19882258.356   -20240712.332 8 -15771921.08324
  20255086.754   -15659125.577 7 -11842222.50221
  23145576.207      200441.938 3     31305.54121
  19476994.7544  -24193186.44847 -18704601.08563
 91  3 21  1 55 14.9960000  0  5G15G 2G13G19G 6
  22480984.1454   -5220223.63245  -3990443.22961
  19882583.684   -20239005.965 8 -15770591.42224
  20246401.0274  -15704764.88247 -11877785.47761
  23153230.1134     240661.01143     62645.00161
  19473254.371   -24212838.698 7 -18719914.48423
 91  3 21  1 55 29.9960000  0  4G15G 2G13G 6
  22481124.793    -5219508.185 6  -3989885.68021
  19882914.6134  -20237264.80148 -15769234.64664
  20237737.4344  -15750291.80847 -11913260.88861
  19469531.590   -24232403.902 7 -18735160.05223
 91  3 21  1 55 44.9960000  0  4G15G 2G13G 6
  22481290.629    -5218654.115 6  -3989220.12421
  19883252.8404  -20235481.57648 -15767845.09364
  20229096.9104  -15795698.89447 -11948642.91661
  19465827.926   -24251874.466 7 -18750331.87623
 91  3 21  1 55 59.9960000  0  4G15G 2G13G 6
  22481472.2854   -5217663.81346  -3988448.42861
  19883600.949   -20233658.636 8 -15766424.59624
  20220478.9344  -15840988.04247 -11983933.04661
  19462140.043   -24271252.483 7 -18765431.58623
 91  3 21  1 56 14.9960000  0  4G15G 2G13G 6
  22481689.8164   -5216538.67946  -3987571.64361
  19883954.848   -20231797.106 8 -15764974.02924
  20211882.895   -15886160.027 7 -12019131.88321
  19458468.809   -24290538.825 7 -18780459.86123
 91  3 21  1 56 29.9960000  0  4G15G 2G13G 6
  22481930.973    -5215280.381 6  -3986591.10821
  19884316.215   -20229898.761 8 -15763494.77724
  20203307.8874  -15931216.70747 -12054240.86261
  19454816.371   -24309735.088 7 -18795417.94323
 91  3 21  1 56 44.9960000  0  4G15G 2G13G 6
  22482193.4344   -5213885.22945  -3985503.93061
  19884684.770   -20227959.904 8 -15761983.96224
  20194758.152   -15976153.982 7 -12089256.80721
  19451181.8634  -24328837.09047 -18810302.58364
 91  3 21  1 56 59.9960000  0  4G15G 2G13G 6
  22482486.8564   -5212354.59645  -3984311.17761
  19885061.957   -20225982.157 8 -15760442.84324
  20186228.856   -16020973.312 7 -12124180.85621
  19447564.4264  -24347846.27547 -18825114.89464
 91  3 21  1 57 14.9960000  0  4G15G 2G13G 6
  22482806.168    -5210686.693 5  -3983011.46921
  19885445.309   -20223963.718 8 -15758870.01124
  20177721.996   -16065672.565 7 -12159011.33321
  19443965.0744  -24366760.61747 -18839853.30364
 91  3 21  1 57 29.9960000  0  4G15G 2G13G 6
  22483145.6214   -5208883.71246  -3981606.51761
  19885837.262   -20221906.691 8 -15757267.10924
  20169238.738   -16110253.654 7 -12193749.73021
  19440383.3634  -24385581.85347 -18854519.16164
 91  3 21  1 57 44.9960000  0  4G15G 2G13G 6
  22483513.441    -5206944.375 6  -3980095.29221
  19886236.035   -20219809.755 8 -15755633.11624
  20160778.020   -16154715.098 7 -12228394.90121
  19436819.457   -24404308.447 7 -18869111.27424
 91  3 21  1 57 59.9960000  0  4G15G 2G13G 6
  22483909.1524   -5204856.49546
  19886645.387   -20217660.752 8
  20152342.199   -16199044.402 7 -12262937.11021
  19433276.8874  -24422928.18347 -18883620.11664
 91  3 21  1 58 14.9960000  0  4G15G 2G13G 6
  22484332.6914   -5202636.79046
  19887060.699   -20215476.234 8
  20143927.988   -16243258.026 7 -12297389.17821
  19429750.3714  -24441457.07947 -18898058.17564
 91  3 21  1 58 29.9960000  0  4G15G 2G13G 6
  22484783.3634   -5200275.03246  -3974898.26961
  19887485.199   -20213246.077 8 -15750518.51324
  20135538.691   -16287345.661 7 -12331743.06321
  19426242.879   -24459884.992 7 -18912417.54824
 91  3 21  1 58 44.9960000  0  4G15G 2G13G 6
  22485258.887    -5197786.515 6  -3972959.12021
  19887914.402   -20210985.693 8 -15748757.15724
  20127170.293   -16331322.341 7 -12366010.50521
  19422753.926   -24478226.740 7 -18926709.78024
 91  3 21  1 58 59.9960000  0  4G15G 2G13G 6
  22485763.106    -5195157.064 6  -3970910.17521
  19888353.762   -20208680.760 8 -15746961.08924
  20118825.285   -16375173.655 7 -12400180.24821
  19419282.285   -24496467.972 7 -18940923.67924
 91  3 21  1 59 14.9960000  0  4G15G 2G13G 6
  22486283.621    -5192390.712 6  -3968754.52321
  19888800.293   -20206335.504 8 -15745133.60024
  20110503.652   -16418903.596 7 -12434255.41721
  19415828.2774  -24514612.40547 -18955062.16064
 91  3 21  1 59 29.9960000  0  4G15G 2G13G 6
  22486835.098    -5189487.172 6  -3966491.98821
  19889253.457   -20203949.422 8 -15743274.30224
  20102205.762   -16462511.272 7 -12468235.32221
  19412395.2774  -24532659.52747 -18969124.81664
 91  3 21  1 59 44.9960000  0  4G15G 2G13G 6
  22487419.770    -5186446.834 6  -3964122.84521
  19889715.371   -20201523.094 8 -15741383.64024
  20093931.418   -16505997.225 7 -12502120.37621
  19408979.2234  -24550609.59047 -18983111.83663
 91  3 21  1 59 59.9960000  0  4G15G 2G13G 6
  22488008.2704   -5183278.92546  -3961654.30961
  19890184.676   -20199065.478 8 -15739468.59324
  20085677.574   -16549370.242 7 -12535917.42321
  19405578.1134  -24568471.32547 -18997030.03063
 91  3 21  2  0 14.9960000  0  4G15G 2G13G 6
  22488648.996    -5179978.440 6  -3959082.45521
  19890658.340   -20196571.781 8 -15737525.43524
  20077445.910   -16592625.145 7 -12569622.43421
  19402198.957   -24586239.565 7 -19010875.37223
 91  3 21  2  0 29.9960000  0  4G15G 2G13G 6
  22489296.871    -5176537.645 5  -3956401.27221
  19891141.457   -20194034.039 8 -15735547.95424
  20069238.918   -16635753.646 7 -12603228.95722
  19398836.934   -24603906.250 7 -19024641.57823
 91  3 21  2  0 44.9960000  0  4G15G 2G13G 6
  22489982.066    -5172966.031 6  -3953618.15221
  19891630.176   -20191461.650 8 -15733543.47924
  20061053.152   -16678764.857 7 -12636744.08122
  19395492.2074  -24621480.33347 -19038335.63363
 91  3 21  2  0 59.9960000  0  4G15G 2G13G 6
  22490686.551    -5169260.104 6  -3950730.36521
  19892127.356   -20188851.416 8 -15731509.50724
  20052891.199   -16721655.608 7 -12670165.34121
  19392167.3634  -24638958.54947 -19051954.98764
 91  3 21  2  1 14.9960000  0  4G15G 2G13G 6
  22491418.0434   -5165413.24146  -3947732.77861
  19892631.512   -20186196.583 8 -15729440.78824
  20044753.816   -16764418.916 7 -12703487.29222
  19388861.0434  -24656333.67647 -19065494.00964
 91  3 21  2  1 29.9960000  0  4G15G 2G13G 6
  22492176.754    -5161423.421 6  -3944623.78921
  19893146.496   -20183495.012 8 -15727335.64824
  20036640.270   -16807052.706 7 -12736708.32922
  19385574.559   -24673603.551 7 -19078951.00823
 91  3 21  2  1 44.9960000  0  4G15G 2G13G 6
  22492960.2624   -5157298.00346  -3941409.14261
  19893669.488   -20180754.131 8 -15725199.88324
  20028549.762   -16849563.864 7 -12769833.79922
  19382306.5354  -24690775.16447 -19092331.44563
 91  3 21  2  1 59.9960000  0  4G15G 2G13G 6
  22493770.3484   -5153037.61246  -3938089.31361
  19894196.707   -20177974.523 8 -15723033.93724
  20020485.5594  -16891952.84547 -12802864.07762
  19379056.3874  -24707848.89347 -19105635.61064
 91  3 21  2  2 14.9960000  0  4G15G 2G13G 6
  22494605.5594   -5148643.33246  -3934665.16961
  19894734.270   -20175157.114 8 -15720838.52624
  20012441.5594  -16934220.25047 -12835799.62061
  19375826.2234  -24724825.40447 -19118864.02264
 91  3 21  2  2 29.9960000  0  4G15G 2G13G 6
  22495470.3954   -5144114.59746  -3931136.25561
  19895276.504   -20172301.382 8 -15718613.25924
  20004419.715   -16976365.628 7 -12868640.07021
  19372614.9884  -24741703.83347 -19132016.00564
 91  3 21  2  2 44.9960000  0  4G15G 2G13G 6
  22496358.371    -5139451.188 6  -3927502.37521
  19895826.129   -20169407.067 8 -15716357.93024
  19996425.4814  -17018388.40247 -12901384.99062
  19369421.9414  -24758483.76047 -19145091.23464
 91  3 21  2  2 59.9960000  0  4G15G 2G13G 6
  22497274.7074   -5134654.26746  -3923764.48161
  19896384.668   -20166475.494 8 -15714073.56924
  19988451.363   -17060289.470 7 -12934035.07122
  19366247.1524  -24775166.19747 -19158090.49564
 91  3 21  2  3 14.9960000  0  4G15G 2G13G 6
  22498213.309    -5129711.414 6  -3919912.86621
  19896952.113   -20163493.880 8 -15711750.21324
  19980502.5274  -17102056.05247 -12966580.35762
  19363091.840   -24791738.064 7 -19171003.59324
 91  3 21  2  3 29.9960000  0  4G15G 2G13G 6
  22499175.426    -5124627.017 6  -3915950.94421
  19897528.598   -20160466.566 8 -15709391.25224
  19972578.941   -17143692.427 7 -12999024.18522
  19359960.6214  -24808203.73547 -19183833.94563
 91  3 21  2  3 44.9960000  0  4G15G 2G13G 6
  22500174.441    -5119401.494 6  -3911879.07021
  19898112.246   -20157393.587 8 -15706996.70224
  19964680.7774  -17185198.51347 -13031366.49262
  19356847.1454  -24824562.98147 -19196581.36864
 91  3 21  2  3 59.9960000  0  4G15G 2G13G 6
  22501191.566    -5114041.693 6  -3907702.55521
  19898705.590   -20154282.431 8 -15704572.41424
  19956806.481   -17226581.447 7 -13063612.83322
  19353752.0204  -24840822.82147 -19209251.33364
 91  3 21  2  4 14.9960000  0  4G15G 2G13G 6
  22502241.8164   -5108547.54046  -3903421.36161
  19899303.816   -20151132.669 8 -15702118.03024
  19948954.965   -17267840.599 7 -13095762.72622
  19350678.4024  -24856982.69747 -19221843.40564
 91  3 21  2  4 29.9960000  0  4G15G 2G13G 6
  22503304.1994   -5102920.04846  -3899036.28461
  19899911.504   -20147945.324 8 -15699634.36524
  19941127.4024  -17308976.93347 -13127816.91362
  19347620.676   -24873043.269 7 -19234358.09724
 91  3 21  2  4 44.9960000  0  4G15G 2G13G 6
  22504410.5274   -5097149.62146  -3894539.80061
  19900526.652   -20144710.673 8 -15697113.83524
  19933324.5824  -17349980.34747 -13159767.53162
  19344586.5204  -24888994.79347 -19246787.81463
 91  3 21  2  4 59.9960000  0  4G15G 2G13G 6
  22505534.8794   -5091240.14246  -3889934.97361
  19901150.449   -20141432.912 8 -15694559.71324
  19925544.934   -17390854.771 7 -13191617.63122
  19341570.7234  -24904840.85647 -19259135.35764
 91  3 21  2  5 14.9960000  0  4G15G 2G13G 6
  22506681.254    -5085193.773 6  -3885223.47721
  19901781.895   -20138114.074 8 -15691973.58224
  19917792.1134  -17431602.15947 -13223368.74362
  19338574.1214  -24920583.52947 -19271402.33964
 91  3 21  2  5 29.9960000  0  4G15G 2G13G 6
  22507860.012    -5079010.251 6  -3880405.10721
  19902421.301   -20134753.402 8 -15689354.85124
  19910062.2154  -17472221.66847 -13255020.21462
  19335599.8094  -24936221.70547 -19283587.89764
 91  3 21  2  5 44.9960000  0  4G15G 2G13G 6
  22509059.754    -5072687.058 5  -3875477.90321
  19903069.293   -20131348.462 8 -15686701.63024
  19902357.4414  -17512710.71947 -13286570.03162
  19332642.9104  -24951752.69047 -19295689.92464
 91  3 21  2  5 59.9960000  0  4G15G 2G13G 6
  22510292.5124   -5066225.52645  -3870442.90761
  19903726.270   -20127900.622 8 -15684014.97724
  19894677.3244  -17553070.48947 -13318019.10262
  19329707.8014  -24967177.68647 -19307709.36664
 91  3 21  2  6 14.9960000  0  4G15G 2G13G 6
  22511544.7384   -5059627.82145  -3865301.80061
  19904388.816   -20124411.905 8 -15681296.47424
  19887021.2234  -17593302.63347 -13349368.73262
  19326792.3244  -24982498.39547 -19319647.54063
 91  3 21  2  6 29.9960000  0  4G15G 2G13G 6
  22512826.3794   -5052895.25746  -3860055.61461
  19905060.668   -20120883.729 8 -15678547.22324
  19879389.3094  -17633408.47947 -13380619.94662
  19323897.0274  -24997715.94147 -19331505.33364
 91  3 21  2  6 44.9960000  0  4G15G 2G13G 6
  22514135.4024   -5046028.24046  -3854704.65761
  19905739.9414  -20117316.46948 -15675767.51664
  19871781.0664  -17673388.20847 -13411772.88862
  19321020.8634  -25012830.65247 -19343282.98764
 91  3 21  2  6 59.9960000  0  4G15G 2G13G 6
  22515466.8794   -5039023.97446  -3849246.75561
  19906425.4024  -20113707.17748 -15672955.05264
  19864197.8484  -17713238.78447 -13442825.19262
  19318165.3094  -25027839.23347 -19354977.94763
 91  3 21  2  7 14.9960000  0  4G15G 2G13G 6
  22516831.2074   -5031885.50746  -3843684.27861
                                 -15670111.98764
  19856638.6914  -17752962.84347 -13473778.91062
  19315329.1064  -25042744.17447 -19366592.15464
 91  3 21  2  7 29.9960000  0  4G15G 2G13G 6
  22518212.9104   -5024607.89846  -3838013.37561
                                 -15667234.48124
  19849104.6764  -17792555.24547 -13504630.04162
  19312512.1684  -25057540.28047 -19378121.54463
 91  3 21  2  7 44.9960000  0  4G15G 2G13G 6
  22519623.1844   -5017194.41846  -3832236.60761
  19908533.2154  -20102632.22448 -15664325.14564
  19841595.4184  -17832018.91047 -13535380.85162
  19309716.9264  -25072230.54847 -19389568.46664
 91  3 21  2  7 59.9960000  0  4G15G 2G13G 6
  22521061.0664   -5009646.94246  -3826355.42961
  19909250.8164  -20098859.37148 -15661385.23664
  19834109.0514  -17871355.47547 -13566032.63462
  19306941.3164  -25086816.57347 -19400934.16364
 91  3 21  2  8 14.9960000  0  4G15G 2G13G 6
  22522518.5514   -5001966.72146  -3820370.80561
  19909975.7314  -20095048.74348 -15658415.88664
  19826647.7464  -17910566.25147 -13596586.39262
  19304185.9344  -25101299.53547 -19412219.54764
 91  3 21  2  8 29.9960000  0  4G15G 2G13G 6
  22524007.2854   -4994150.30446  -3814280.06661
  19910709.277   -20091196.566 8 -15655414.16624
  19819209.7934  -17949647.29447 -13627039.06562
  19301449.082   -25115675.470 7 -19423421.53524
 91  3 21  2  8 44.9960000  0  4G15G 2G13G 6
  22525521.8164   -4986201.06445  -3808085.81261
  19911450.004   -20087306.151 8 -15652382.65324
  19811797.6764  -17988601.99447 -13657393.28562
  19298732.3794  -25129947.43647 -19434542.50664
 91  3 21  2  8 59.9960000  0  4G15G 2G13G 6
  22527058.9814   -4978113.31446  -3801783.64661
  19912198.629   -20083371.854 8 -15649316.94724
  19804408.5044  -18027424.17747 -13687644.24962
  19296038.1994  -25144109.42547 -19445577.78864
 91  3 21  2  9 14.9960000  0  4G15G 2G13G 6
  22528625.0594   -4969891.19546  -3795376.76461
  19912955.113   -20079397.583 8 -15646220.09524
  19797046.2774  -18066117.57047 -13717794.86162
  19293364.4884  -25158165.24047 -19456530.33864
 91  3 21  2  9 29.9960000  0  4G15G 2G13G 6
  22530215.7154   -4961534.83946  -3788865.30061
  19913719.113   -20075383.516 8 -15643092.22924
  19789708.1604  -18104682.30647 -13747845.21062
  19290708.5824  -25172114.68147 -19467399.99164
 91  3 21  2  9 44.9960000  0  4G15G 2G13G 6
  22531833.348    -4953041.727 6  -3782247.26821
  19914489.910   -20071327.014 8 -15639931.29424
  19782393.5904  -18143115.83647 -13777793.32762
  19288074.8094  -25185955.16747 -19478184.75264
 91  3 21  2  9 59.9960000  0  4G15G 2G13G 6
  22533474.8244   -4944411.35046  -3775522.27361
  19915269.981   -20067227.560 8 -15636736.89324
  19775105.6994  -18181417.23947 -13807638.49062
  19285463.4264  -25199685.64947 -19488883.79664
 91  3 21  2 10 14.9960000  0  4G15G 2G13G 6
  22535141.7624   -4935645.00846  -3768691.31761
  19916058.988   -20063086.216 8 -15633509.85124
  19767841.4964  -18219587.69647 -13837381.61262
  19282870.3954  -25213307.09447 -19499497.87164
 91  3 21  2 10 29.9960000  0  4G15G 2G13G 6
  22536834.809    -4926740.311 6  -3761752.56521
  19916854.2074  -20058900.34848 -15630248.10765
  19760604.020   -18257624.290 7 -13867020.43222
  19280300.9344  -25226816.71047 -19510024.81264
 91  3 21  2 10 44.9960000  0  4G15G 2G13G 6
  22538557.918    -4917690.767 5  -3754700.93521
  19917661.7854  -20054663.67848 -15626946.77764
  19753391.2544  -18295520.57847 -13896549.91962
  19277751.2464  -25240208.06147 -19520459.59364
 91  3 21  2 10 59.9960000  0  4G15G 2G13G 6
  22540306.3244   -4908506.39845  -3747544.24461
  19918475.770   -20050385.977 8 -15623613.48124
  19746205.3324  -18333286.18947 -13925977.58262
  19275224.0044  -25253490.55447 -19530809.54764
 91  3 21  2 11 14.9960000  0  4G15G 2G13G 6
  22542075.731    -4899183.955 5  -3740279.96021
  19919298.043   -20046064.149 8 -15620245.79624
  19739044.4104  -18370917.96847 -13955300.96362
  19272718.7314  -25266660.91147 -19541072.12764
 91  3 21  2 11 29.9960000  0  4G15G 2G13G 6
  22543874.176    -4889731.824 5  -3732914.61621
  19920127.356   -20041706.259 8 -15616850.01724
  19731907.1844  -18408423.64747 -13984526.07962
  19270229.7854  -25279726.93647 -19551253.41064
 91  3 21  2 11 44.9960000  0  4G15G 2G13G 6
  22545701.5984   -4880146.88545  -3725445.81161
  19920964.176   -20037309.142 8 -15613423.67024
  19724794.7384  -18445799.86347 -14013650.31462
  19267765.0204  -25292685.19747 -19561350.71264
 91  3 21  2 11 59.9960000  0  4G15G 2G13G 6
  22547549.7154   -4870432.11345  -3717875.82661
  19921807.535   -20032875.644 8 -15609968.97824
  19717706.254   -18483049.567 7 -14042675.97322
  19265319.8094  -25305538.34247 -19571366.11264
 91  3 21  2 12 14.9960000  0  4G15G 2G13G 6
  22549425.9734   -4860581.93046  -3710200.32761
  19922659.277   -20028399.992 8 -15606481.43524
  19710643.6454  -18520166.93547 -14071598.51162
  19262894.9654  -25318280.47547 -19581295.01064
 91  3 21  2 12 29.9960000  0  4G15G 2G13G 6
  22551327.4414   -4850584.69846  -3702410.26361
  19923520.449   -20023870.227 8 -15602951.72724
  19703607.3484  -18557139.84047 -14100408.48162
  19260493.106   -25330899.546 7 -19591128.01024
 91  3 21  2 12 44.9960000  0  4G15G 2G13G 6
  22553252.238    -4840454.639 5  -3694516.67421
  19924390.231   -20019300.743 8 -15599391.06724
  19696596.160   -18593982.275 7 -14129116.79122
  19258112.4344  -25343409.27047 -19600875.81064
 91  3 21  2 12 59.9960000  0  4G15G 2G13G 6
  22555212.5824   -4830188.83546  -3686517.32161
  19925267.5744  -20014688.63448 -15595797.19164
  19689610.824   -18630691.406 7 -14157721.22322
  19255753.6844  -25355806.78447 -19610536.17064
 91  3 21  2 13 14.9960000  0  4G15G 2G13G 6
  22557187.1214   -4819787.61945  -3678412.44961
  19926155.262   -20010033.833 8 -15592170.05424
  19682650.231   -18667267.038 7 -14186221.63322
  19253415.6294  -25368091.96347 -19620109.00264
 91  3 21  2 13 29.9960000  0  4G15G 2G13G 6
  22559190.5514   -4809252.23345  -3670203.02561
  19927048.160   -20005337.686 8 -15588510.69324
  19675715.6214  -18703710.14047 -14214618.77362
  19251098.856   -25380265.711 7 -19629594.99624
 91  3 21  2 13 44.9960000  0  4G15G 2G13G 6
  22561222.3324   -4798581.38245  -3661888.03961
  19927949.231   -20000599.015 8 -15584818.19724
  19668806.574   -18740019.438 7 -14242911.65022
  19248804.2234  -25392326.57247 -19638993.02764
 91  3 21  2 13 59.9960000  0  4G15G 2G13G 6
  22563280.309    -4787779.083 5  -3653470.61021
  19928858.1374  -19995821.28448 -15581095.26864
  19661920.965   -18776198.522 7 -14271103.05922
  19246530.0354  -25404278.10547 -19648305.87464
 91  3 21  2 14 14.9960000  0  4G15G 2G13G 6
  22565361.3324   -4776847.21445  -3644952.22961
  19929774.2704  -19991006.35648 -15577343.34564
  19655061.832   -18812249.055 7 -14299194.30822
  19244276.5124  -25416121.74447 -19657534.65064
 91  3 21  2 14 29.9960000  0  4G15G 2G13G 6
  22567463.340    -4765787.845 5  -3636334.50121
  19930698.7934  -19986156.08748 -15573563.89164
  19648224.582   -18848172.883 7 -14327186.81822
  19242042.2544  -25427859.22747 -19666680.70464
 91  3 21  2 14 44.9960000  0  4G15G 2G13G 6
  22569594.863    -4754581.901 5  -3627602.55421
  19931632.137   -19981251.482 8 -15569742.09924
  19641416.918   -18883950.817 7 -14355065.64822
  19239831.3874  -25439471.29347 -19675729.03064
 91  3 21  2 14 59.9960000  0  4G15G 2G13G 6
  22571756.7624   -4743237.32645  -3618762.58861
  19932572.707   -19976300.316 8 -15565884.02724
  19634635.074   -18919590.323 7 -14382836.61522
  19237645.8714  -25450965.56447 -19684685.56564
 91  3 21  2 15 14.9960000  0  4G15G 2G13G 6
  22573938.5434   -4731758.19645  -3609817.79261
  19933523.934   -19971306.423 8 -15561992.66424
  19627878.504   -18955095.223 7 -14410502.69122
  19235479.7074  -25462345.61847 -19693553.10263
 91  3 21  2 15 29.9960000  0  4G15G 2G13G 6
  22576148.176    -4720146.497 5  -3600769.68321
  19934481.223   -19966271.714 8 -15558069.48924
  19621146.559   -18990467.275 7 -14438065.25122
  19233335.0904  -25473613.13647 -19702332.94863
 91  3 21  2 15 44.9960000  0  4G15G 2G13G 6
  22578382.3244   -4708400.48545  -3591616.91961
  19935447.840   -19961194.131 8 -15554112.91224
  19614441.926   -19025704.603 7 -14465522.83122
  19231213.5434  -25484765.95947 -19711023.42363
 91  3 21  2 15 59.9960000  0  4G15G 2G13G 6
  22580646.8094   -4696517.66845  -3582357.55761
  19936422.129   -19956071.221 8 -15550121.00724
  19607761.887   -19060804.569 7 -14492873.37422
  19229113.2384  -25495801.46647 -19719622.48163
 91  3 21  2 16 14.9960000  0  4G15G 2G13G 6
  22582933.3404   -4684495.25345  -3572989.41461
  19937406.215   -19950900.022 8 -15546091.48024
  19601109.215   -19095764.044 7 -14520114.45122
  19227035.8634  -25506716.49447 -19728127.66264
 91  3 21  2 16 29.9960000  0  4G15G 2G13G 6
  22585247.1214   -4672338.49145  -3563516.57861
  19938398.6764  -19945685.79648 -15542028.42264
  19594482.887   -19130587.799 7 -14547249.76922
  19224981.121   -25517515.945 7 -19736542.77724
 91  3 21  2 16 44.9960000  0  4G15G 2G13G 6
  22587586.4814   -4660047.42045  -3553939.08861
  19939399.5124  -19940428.40148 -15537931.72164
  19587881.215   -19165275.780 7 -14574279.28622
  19222947.3014  -25528199.64747 -19744867.70364
 91  3 21  2 16 59.9960000  0  4G15G 2G13G 6
  22589946.1684   -4647625.07745  -3544259.30061
  19940406.4574  -19935130.87748 -15533803.75664
  19581306.340   -19199830.926 7 -14601205.29822
  19220936.6214  -25538770.18947 -19753104.45564
 91  3 21  2 17 14.9960000  0  4G15G 2G13G 6
  22592330.9964   -4635082.56145  -3534485.87761
  19941420.098   -19929803.822 8 -15529652.77824
  19574753.145   -19234263.850 7 -14628036.06922
  19218944.6844  -25549238.14947 -19761261.27464
 91  3 21  2 17 29.9960000  0  4G15G 2G13G 6
  22594747.1524   -4622408.83345  -3524610.22061
  19942442.465   -19924436.162 8 -15525470.16524
  19568226.699   -19268563.382 7 -14654762.90722
  19216973.1524  -25559592.22047 -19769329.34764
 91  3 21  2 17 44.9960000  0  4G15G 2G13G 6
  22597182.1134   -4609599.68145  -3514629.03361
  19943471.895   -19919023.720 8 -15521252.65724
  19561725.582   -19302725.319 7 -14681382.51922
  19215025.4814  -25569827.91947 -19777305.18563
 91  3 21  2 17 59.9960000  0  4G15G 2G13G 6
  22599651.856    -4596659.010 5  -3504545.36221
  19944510.2074  -19913570.34748 -15517003.25164
  19555250.113   -19336753.301 7 -14707897.75722
  19213100.5514  -25579948.92347 -19785191.64864
 91  3 21  2 18 14.9960000  0  4G15G 2G13G 6
  22602135.832    -4583584.797 5  -3494357.64821
  19945555.770   -19908073.869 8 -15512720.25624
  19548800.262   -19370645.125 7 -14734306.89322
  19211196.2624  -25589952.86947 -19792986.89763
 91  3 21  2 18 29.9960000  0  4G15G 2G13G 6
  22604648.3634   -4570377.38845  -3484066.12761
  19946610.309   -19902534.164 8 -15508403.58024
  19542377.488   -19404400.767 7 -14760609.91422
  19209314.4264  -25599839.66047 -19800690.85563
 91  3 21  2 18 44.9960000  0  4G15G 2G13G 6
  22607184.6914   -4557036.70245  -3473670.75561
  19947672.0664  -19896950.93848 -15504052.99264
  19535980.746   -19438019.416 7 -14786806.19122
  19207455.6844  -25609608.63547 -19808303.00863
 91  3 21  2 18 59.9960000  0  4G15G 2G13G 6
  22609750.973    -4543561.379 5  -3463170.48621
  19948743.324   -19891322.780 8 -15499667.38924
  19529609.082   -19471499.664 7 -14812894.62122
  19205618.7464  -25619258.22147 -19815822.12963
 91  3 21  2 19 14.9960000  0  4G15G 2G13G 6
  22612341.3484   -4529950.37745  -3452564.47561
  19949824.270   -19885648.464 8 -15495245.82224
  19523263.941   -19504840.497 7 -14838874.42322
  19203805.6994  -25628787.12047 -19823247.20964
 91  3 21  2 19 29.9960000  0  4G15G 2G13G 6
  22614953.223    -4516212.399 5  -3441859.54721
  19950910.238   -19879936.698 8 -15490795.07624
  19516944.387   -19538050.399 7 -14864752.19322
  19202014.8874  -25638203.75547 -19830584.81163
 91  3 21  2 19 44.9960000  0  4G15G 2G13G 6
  22617593.949    -4502339.861 5  -3431049.76121
  19952005.371   -19874180.031 8 -15486309.34124
  19510651.215   -19571121.756 7 -14890522.00822
  19200245.7464  -25647500.39347 -19837828.90764
 91  3 21  2 19 59.9960000  0  4G15G 2G13G 6
  22620260.738    -4488334.498 5  -3420136.47121
  19953108.9344  -19868379.60348 -15481789.49764
  19504383.457   -19604055.659 7 -14916184.71822
  19198498.5274  -25656678.10047 -19844980.33464
 91  3 21  2 20 14.9960000  0  4G15G 2G13G 6
  22622951.973    -4474193.977 5  -3409117.86521
  19954222.6214  -19862532.82448 -15477233.54164
  19498144.215   -19636849.716 7 -14941738.45822
  19196775.3324  -25665734.23847 -19852037.03264
 91  3 21  2 20 29.9960000  0  4G15G 2G13G 6
  22625669.3324   -4459913.51445  -3397990.19661
  19955343.566   -19856634.879 8 -15472637.71724
  19491930.527   -19669498.845 7 -14967179.26322
  19195077.4264  -25674663.61947 -19858994.95563
 91  3 21  2 20 44.9960000  0  4G15G 2G13G 6
  22628406.691    -4445507.308 5  -3386764.56321
  19956474.434   -19850700.013 8 -15468013.12524
  19485742.066   -19702016.998 7 -14992518.00822
  19193397.8094  -25683480.22147 -19865865.00464
 91  3 21  2 20 59.9960000  0  4G15G 2G13G 6
  22631171.309    -4430971.232 5  -3375437.73721
  19957611.1294  -19844723.63348 -15463356.17664
  19479580.7704  -19734399.73347 -15017751.24062
  19191743.8714  -25692179.43747 -19872643.58464
 91  3 21  2 21 14.9960000  0  4G15G 2G13G 6
  22633967.0044   -4416303.21545  -3364008.08461
  19958757.152   -19838703.583 8 -15458665.20524
  19473444.121   -19766644.690 7 -15042877.10822
  19190110.2074  -25700758.77247 -19879328.74664
 91  3 21  2 21 29.9960000  0  4G15G 2G13G 6
  22636782.9574   -4401502.49045  -3352475.02561
  19959910.1294  -19832638.84248 -15453939.40764
  19467334.254   -19798750.950 7 -15067894.90122
  19188500.5744  -25709217.28847 -19885919.76463
 91  3 21  2 21 44.9960000  0  4G15G 2G13G 6
  22639621.574    -4386572.771 5  -3340841.45621
  19961072.8164  -19826533.27848 -15449181.79564
  19461250.2074  -19830722.09847 -15092807.41862
  19186913.3794  -25717558.41947 -19892419.31264
 91  3 21  2 21 59.9960000  0  4G15G 2G13G 6
  22642489.6684   -4371512.20645  -3329105.92861
  19962242.949   -19820384.715 8 -15444390.68324
  19455192.645   -19862556.004 7 -15117612.98622
  19185349.0044  -25725779.79947 -19898825.55463
 91  3 21  2 22 14.9960000  0  4G15G 2G13G 6
  22645384.004    -4356318.460 5  -3317266.62221
  19963421.121   -19814190.575 8 -15439564.05724
  19449161.574   -19894250.158 7 -15142309.65522
  19183807.7544  -25733878.82447 -19905136.45663
 91  3 21  2 22 29.9960000  0  4G15G 2G13G 6
  22648294.113    -4340996.852 5  -3305327.68221
  19964607.262   -19807956.042 8 -15434705.95724
  19443155.1294  -19925809.53947 -15166901.31562
  19182289.0124  -25741860.52447 -19911355.92763
 91  3 21  2 22 44.9950000  0  4G15G 2G13G 6
  22651240.616    -4325543.022 6  -3293285.73021
  19965802.4294  -19801675.92348 -15429812.33064
  19437177.140   -19957226.468 7 -15191381.96722
  19180793.6874  -25749718.58447 -19917479.04863
 91  3 21  2 22 59.9950000  0  4G15G 2G13G 6
  22654203.0154   -4309955.19145  -3281139.35061
  19967006.0544  -19795349.52048 -15424882.64164
  19431224.780   -19988505.139 7 -15215754.88422
  19179321.2654  -25757453.91347 -19923506.55063
 91  3 21  2 23 14.9950000  0  4G15G 2G13G 6
  22657198.4524   -4294235.25146  -3268890.02761
  19968218.960   -19788977.963 8 -15419917.76624
  19425298.4834  -20019644.24547 -15240019.05862
  19177873.8354  -25765066.71947 -19929438.57263
 91  3 21  2 23 29.9950000  0  4G15G 2G13G 6
  22660212.265    -4278382.469 5  -3256537.18821
  19969439.8124  -19782560.31148 -15414916.97164
  19419400.343   -20050642.657 7 -15264173.59422
  19176448.4684  -25772555.76547 -19935274.15663
 91  3 21  2 23 44.9950000  0  4G15G 2G13G 6
  22663251.929    -4262402.124 5  -3244084.94521
  19970668.726   -19776101.782 8 -15409884.32924
  19413527.296   -20081505.390 7 -15288222.40822
  19175044.9444  -25779926.06947 -19941017.21763
 91  3 21  2 23 59.9950000  0  4G15G 2G13G 6
  22666319.6944   -4246291.03845  -3231530.83561
  19971906.843   -19769599.191 8 -15404817.35524
  19407680.4524  -20112229.14847 -15312162.92862
  19173665.6484  -25787174.15147 -19946665.04663
 91  3 21  2 24 14.9950000  0  4G15G 2G13G 6
  22669406.8584   -4230049.55645  -3218875.10461
  19973152.382   -19763052.316 8 -15399715.87924
  19401859.5624  -20142813.55147 -15335994.86462
  19172309.6164  -25794299.68147 -19952217.37463
 91  3 21  2 24 29.9950000  0  4G15G 2G13G 6
  22672522.398    -4213677.853 5  -3206117.90821
  19974406.1484  -19756461.28048 -15394579.98264
  19396067.0464  -20173258.95747 -15359718.48962
  19170977.3904  -25801302.56247 -19957674.13363
 91  3 21  2 24 44.9950000  0  4G15G 2G13G 6
  22675666.1404   -4197176.62845  -3193259.77661
  19975669.7804  -19749826.21948 -15389409.77564
  19390299.5074  -20203565.78447 -15383334.13062
  19169668.2654  -25808183.14047 -19963035.59163
 91  3 21  2 24 59.9950000  0  4G15G 2G13G 6
  22678826.171    -4180545.054 5  -3180300.08421
  19976940.3354  -19743146.27048 -15384204.59564
  19384559.6634  -20233732.98447 -15406840.97262
  19168381.9214  -25814940.17547 -19968300.78263
 91  3 21  2 25 14.9950000  0  4G15G 2G13G 6
  22682021.062    -4163783.521 6  -3167239.12721
  19978219.7574  -19736421.95448 -15378964.84164
  19378843.7964  -20263760.54747 -15430239.00662
  19167119.7804  -25821573.84647 -19973469.84563
 91  3 21  2 25 29.9950000  0  4G15G 2G13G 6
  22685236.140    -4146894.353 6  -3154078.72421
  19979507.3434  -19729655.27848 -15373692.07964
  19373156.6084  -20293650.68547 -15453529.95162
  19165881.2264  -25828086.09847 -19978544.29863
 91  3 21  2 25 44.9950000  0  4G15G 2G13G 6
  22688472.765    -4129877.151 6  -3140818.54821
  19980803.085   -19722845.628 8 -15368385.83724
  19367495.8194  -20323402.84347 -15476713.39362
  19164665.0154  -25834476.38447 -19983523.70963
 91  3 21  2 25 59.9950000  0  4G15G 2G13G 6
  22691737.960    -4112730.218 5  -3127457.28921
  19982106.991   -19715991.002 8 -15363044.55024
  19361860.4294  -20353015.13047 -15499787.83162
  19163472.0774  -25840742.38347 -19988406.27463
 91  3 21  2 26 14.9950000  0  4G15G 2G13G 6
  22695025.952    -4095450.604 5  -3113992.63321
  19983421.5854  -19709088.29648 -15357665.79064
  19356252.116   -20382484.315 7 -15522750.76522
  19162304.4134  -25846880.89447 -19993189.49963
 91  3 21  2 26 29.9950000  0  4G15G 2G13G 6
  22698333.460    -4078044.916 5  -3100429.74421
  19984742.257   -19702143.932 8 -15352254.57224
  19350670.1714  -20411816.56547 -15545606.99762
  19161157.9134  -25852898.15147 -19997878.23663
 91  3 21  2 26 44.9950000  0  4G15G 2G13G 6
  22701669.741    -4060513.309 5  -3086768.73121
  19986072.093   -19695157.811 8 -15346810.81924
  19345115.4914  -20441011.87447 -15568356.52762
  19160036.8194  -25858793.99947 -20002472.37063
 91  3 21  2 26 59.9950000  0  4G15G 2G13G 6
  22705030.3984   -4042850.08045  -3073005.15061
  19987410.468   -19688124.081 8 -15341329.97324
  19339586.6944  -20470064.25947 -15590994.68262
  19158939.8824  -25864562.16847 -20006967.01763
 91  3 21  2 27 14.9950000  0  4G15G 2G13G 6
  22708418.2804   -4025057.13345  -3059140.48061
  19988757.280   -19681044.594 8 -15335813.47624
  19334084.1794  -20498975.77847 -15613523.07062
  19157865.7654  -25870204.57747 -20011363.66963
 91  3 21  2 27 29.9950000  0  4G15G 2G13G 6
  22711832.366    -4007137.509 5  -3045177.11121
  19990112.796   -19673921.922 8 -15330263.32124
  19328608.9994  -20527748.77847 -15635943.52962
  19156814.9764  -25875723.60047 -20015664.17263
 91  3 21  2 27 44.9950000  0  4G15G 2G13G 6
  22715263.233    -3989089.343 5  -3031113.58221
  19991477.351   -19666754.030 8 -15324677.92324
  19323159.9764  -20556381.39747 -15658254.59262
  19155789.0464  -25881117.16747 -20019866.92163
 91  3 21  2 27 59.9950000  0  4G15G 2G13G 6
  22718722.296    -3970914.911 5  -3016951.67821
  19992849.038   -19659542.802 8 -15319058.76324
  19317738.0234  -20584875.56847 -15680457.78162
  19154786.4444  -25886386.94847 -20023973.21663
 91  3 21  2 28 14.9950000  0  4G15G 2G13G 6
  22722203.765    -3952613.868 5  -3002691.09521
  19994230.7964  -19652287.84648 -15313405.52364
  19312342.9604  -20613230.62747 -15702552.56862
  19153807.3904  -25891532.35047 -20027982.59163
 91  3 21  2 28 29.9950000  0  4G15G 2G13G 6
  22725710.3584   -3934182.87945  -2988329.27461
  19995619.0384  -19644986.15248 -15307715.86564
  19306974.0154  -20641443.52847 -15724536.58762
  19152852.0384  -25896550.07347 -20031892.47863
 91  3 21  2 28 44.9950000  0  4G15G 2G13G 6
  22729246.273    -3915624.404 5  -2973868.10921
  19997017.0934  -19637639.47248 -15301991.15964
  19301633.1164  -20669516.07247 -15746411.23562
  19151921.5934  -25901441.86247 -20035704.23663
 91  3 21  2 28 59.9950000  0  4G15G 2G13G 6
  22732798.444    -3896941.015 5  -2959309.60521
  19998422.608   -19630250.769 8 -15296233.70224
  19296315.9444  -20697450.85647 -15768178.53762
  19151014.2654  -25906210.24247 -20039419.82963
 91  3 21  2 29 14.9950000  0  4G15G 2G13G 6
  22736375.8124   -3878129.54645  -2944651.28861
  19999837.429   -19622816.129 8 -15290440.45524
  19291027.7884  -20725244.26547 -15789835.67862
  19150130.3744  -25910851.44247 -20043036.31663
 91  3 21  2 29 29.9950000  0  4G15G 2G13G 6
  22739984.226    -3859194.764 5  -2929896.89321
  20001260.3904  -19615340.05248 -15284614.91064
  19285763.7804  -20752900.86747 -15811386.21862
  19149270.5304  -25915369.86947 -20046557.13563
 91  3 21  2 29 44.9950000  0  4G15G 2G13G 6
  22743609.327    -3840137.438 5  -2915047.00621
  20002690.9834  -19607822.86448 -15278757.32964
  19280526.6014  -20780421.04147 -15832830.45162
  19148434.1794  -25919765.93447 -20049982.60963
 91  3 21  2 29 59.9950000  0  4G15G 2G13G 6
  22747256.562    -3820952.104 5  -2900097.37321
  20004130.9684  -19600259.18148 -15272863.52064
  19275318.2104  -20807799.53447 -15854164.27862
  19147621.7734  -25924033.87347 -20053308.24663
 91  3 21  2 30 14.9950000  0  4G15G 2G13G 6
  22750934.9214   -3801637.57945  -2885047.05961
  20005578.913   -19592647.217 8 -15266932.10124
  19270134.6634  -20835034.36747 -15875386.16762
  19146834.4214  -25928171.82947 -20056532.59463
 91  3 21  2 30 29.9950000  0  4G15G 2G13G 6
  22754631.655    -3782201.291 5  -2869901.87121
  20007034.9684  -19584994.38848 -15260968.83264
  19264977.8194  -20862132.82147 -15896501.78962
  19146070.4134  -25932187.05547 -20059661.31363
 91  3 21  2 30 44.9950000  0  4G15G 2G13G 6
  22758357.358    -3762635.594 5  -2854655.86021
  20008500.515   -19577292.965 8 -15254967.70024
  19259849.2494  -20889087.27647 -15917505.20362
  19145330.3044  -25936071.68447 -20062688.26563
 91  3 21  2 30 59.9950000  0  3G 2G13G 6
  20009974.4834  -19569547.19648 -15248932.00964
  19254745.4994  -20915901.89147 -15938399.64462
  19144616.8744  -25939829.78447 -20065616.62063
 91  3 21  2 31 14.9950000  0  3G 2G13G 6
  20011455.8584  -19561764.11148 -15242867.24064
  19249668.3274  -20942583.73747 -15959190.63462
  19143922.0154  -25943468.40447 -20068451.87963
 91  3 21  2 31 29.9950000  0  3G 2G13G 6
  20012943.523   -19553943.431 8 -15236773.18424
  19244617.2964  -20969132.49147 -15979877.91662
  19143254.4604  -25946987.00247 -20071193.61563
 91  3 21  2 31 44.9950000  0  3G 2G13G 6
  20014440.3744  -19546083.00248 -15230648.15164
  19239589.2104  -20995545.90747 -16000459.74062
  19142607.0384  -25950383.22747 -20073839.99363
 91  3 21  2 31 59.9950000  0  3G 2G13G 6
  20015944.3904  -19538179.54348 -15224489.58564
  19234589.312   -21021820.958 7 -16020933.75122
  19141984.4214  -25953653.68747 -20076388.36863
 91  3 21  2 32 14.9950000  0  3G 2G13G 6
  20017456.3904  -19530230.22248 -15218295.28164
  19229616.3514  -21047954.86747 -16041297.77762
  19141387.9764  -25956795.52447 -20078836.52063
 91  3 21  2 32 29.9950000  0  3G 2G13G 6
  20018975.866   -19522239.336 8 -15212068.59124
  19224668.9764  -21073951.59447 -16061554.90562
  19140814.2334  -25959812.68347 -20081187.52263
 91  3 21  2 32 44.9950000  0  3G 2G13G 6
  20020505.030   -19514204.493 8 -15205807.65424
  19219748.0464  -21099808.83947 -16081703.35162
  19140264.7104  -25962702.79647 -20083439.52463
 91  3 21  2 32 59.9950000  0  3G 2G13G 6
  20022043.819   -19506121.168 8 -15199508.94023
  19214855.3514  -21125522.15347 -16101739.64262
  19139738.7884  -25965461.21947 -20085588.91363
 91  3 21  2 33 14.9950000  0  3G 2G13G 6
  20023592.0154  -19497984.89448 -15193168.95864
  19209989.8514  -21151087.23347 -16121660.42662
  19139240.7884  -25968083.47647 -20087632.20063
 91  3 21  2 33 29.9950000  0  3G 2G13G 6
  20025148.1714  -19489805.22748 -15186795.16364
  19205152.4994  -21176513.70647 -16141473.19862
  19138765.6244  -25970578.86947 -20089576.63663
 91  3 21  2 33 44.9950000  0  3G 2G13G 6
  20026713.6084  -19481579.00448 -15180385.09263
  19200341.569   -21201798.352 7 -16161175.47222
  19138314.640   -25972944.293 7 -20091419.79623
 91  3 21  2 33 59.9950000  0  3G 2G13G 6
  20028287.390   -19473310.165 8 -15173941.82023
  19195556.0154  -21226944.91547 -16180770.13662
  19137887.8274  -25975183.55947 -20093164.64963
 91  3 21  2 34 14.9950000  0  3G 2G13G 6
  20029870.2024  -19464997.28948 -15167464.22763
  19190796.4914  -21251951.93447 -16200256.06862
  19137485.9214  -25977294.86447 -20094809.79463
 91  3 21  2 34 29.9950000  0  3G 2G13G 6
  20031456.4834  -19456650.04148 -15160959.84863
  19186062.648   -21276829.345 7 -16219641.01322
  19137106.9214  -25979288.03447 -20096362.88663
 91  3 21  2 34 44.9950000  0  3G 2G13G 6
  20033053.999   -19448261.733 8 -15154423.48823
  19181353.0854  -21301570.58447 -16238919.84162
  19136752.1714  -25981156.32147 -20097818.66563
 91  3 21  2 34 59.9950000  0  3G 2G13G 6
  20034658.843   -19439828.521 8 -15147852.12823
  19176673.3194  -21326171.47247 -16258089.30462
  19136420.5074  -25982895.52247 -20099173.86063
 91  3 21  2 35 14.9950000  0  3G 2G13G 6
  20036273.6634  -19431346.84248 -15141242.99863
  19172018.8584  -21350628.61847 -16277146.76762
  19136115.437   -25984501.989 7 -20100425.62423
 91  3 21  2 35 29.9950000  0  3G 2G13G 6
  20037896.1244  -19422818.19348 -15134597.27164
  19167391.8194  -21374943.59047 -16296093.44362
  19135833.4604  -25985977.31247 -20101575.19363
 91  3 21  2 35 44.9950000  0  3G 2G13G 6
  20039525.7334  -19414249.48648 -15127920.33063
  19162790.8664  -21399123.26847 -16314934.69462
  19135576.4524  -25987328.10647 -20102627.73163
 91  3 21  2 35 59.9950000  0  3G 2G13G 6
  20041164.9294  -19405636.23348 -15121208.68163
  19158215.640   -21423163.352 7 -16333667.17122
  19135344.6244  -25988549.88647 -20103579.73763
 91  3 21  2 36 14.9950000  0  3G 2G13G 6
  20042813.7414  -19396978.37648 -15114462.27364
  19153667.0934  -21447063.75447 -16352290.80362
  19135134.7964  -25989642.38847 -20104431.00963
 91  3 21  2 36 29.9950000  0  3G 2G13G 6
  20044469.968   -19388270.171 8 -15107676.63723
  19149146.9524  -21470818.94747 -16370801.28562
  19134953.7734  -25990599.88947 -20105177.08263
